[[{"header":{"parameterUnit":"m.s-1","parameterCategory":1,"la1":31.0,"la2":29.5877,"lo1":-88.7671,"lo2":-86.6584,"dy":0.0162,"dx":0.0185,"nx":115,"ny":88,"refTime":"2023-03-08T06:00:00:Z","depth":0,"parameterNumber":2,"parameterNumberName":"U-component_of_WINDS"},"data":[0.0,0.0,0.0,0.0,0.0,0.0,0.0,0.0,0.0,0.0,0.0,0.0,0.0,0.0,0.0,0.0,0.0,0.0,0.0,0.0,0.0,0.0,0.0,0.0,0.0,0.0,0.0,0.0,0.0,0.0,0.0,0.0,0.0,0.0,0.0,0.0,0.0,0.0,0.0,0.0,0.0,0.0,0.0,0.0,0.0,0.0,0.0,0.0,0.0,0.0,0.0,0.0,0.0,0.0,0.0,0.0,0.0,0.0,0.0,0.0,0.0,0.0,0.0,0.0,0.0,0.0,0.0,0.0,0.0,0.0,0.0,0.0,0.0,0.0,0.0,0.0,0.0,0.0,0.0,0.0,0.0,0.0,0.0,0.0,0.0,0.0,0.0,0.0,0.0,0.0,0.0,0.0,0.0,0.0,0.0,0.0,0.0,0.0,0.0,0.0,0.0,0.0,0.0,0.0,0.0,0.0,0.0,0.0,0.0,0.0,0.0,0.0,0.0,0.0,0.0,0.0,0.0,0.0,0.0,0.0,0.0,0.0,0.0,0.0,0.0,0.0,0.0,0.0,0.0,0.0,0.0,0.0,0.0,0.0,0.0,0.0,0.0,0.0,0.0,0.0,0.0,0.0,0.0,0.0,0.0,0.0,0.0,0.0,0.0,0.0,0.0,0.0,0.0,0.0,0.0,0.0,0.0,0.0,0.0,0.0,0.0,0.0,0.0,0.0,0.0,0.0,0.0,0.0,0.0,0.0,0.0,0.0,0.0,0.0,0.0,0.0,0.0,0.0,0.0,0.0,0.0,0.0,0.0,0.0,0.0,0.0,0.0,0.0,0.0,0.0,0.0,0.0,0.0,0.0,0.0,0.0,0.0,0.0,0.0,0.0,0.0,0.0,0.0,0.0,0.0,0.0,0.0,0.0,0.0,0.0,0.0,0.0,0.0,0.0,0.0,0.0,0.0,0.0,0.0,0.0,0.0,0.0,0.0,0.0,0.0,0.0,0.0,0.0,0.0,0.0,0.0,0.0,0.0,0.0,0.0,0.0,0.0,0.0,0.0,0.0,0.0,0.0,0.0,0.0,0.0,0.0,0.0,0.0,0.0,0.0,0.0,0.0,0.0,0.0,0.0,0.0,0.0,0.0,0.0,0.0,0.0,0.0,0.0,0.0,0.0,0.0,0.0,0.0,0.0,0.0,0.0,0.0,0.0,0.0,0.0,0.0,0.0,0.0,0.0,0.0,0.0,0.0,0.0,0.0,0.0,0.0,0.0,0.0,0.0,0.0,0.0,0.0,0.0,0.0,0.0,0.0,0.0,0.0,0.0,0.0,0.0,0.0,0.0,0.0,0.0,0.0,0.0,0.0,0.0,0.0,0.0,0.0,0.0,0.0,0.0,0.0,0.0,0.0,0.0,0.0,0.0,0.0,0.0,0.0,0.0,0.0,0.0,0.0,0.0,0.0,0.0,0.0,0.0,0.0,0.0,0.0,0.0,0.0,0.0,0.0,0.0,0.0,0.0,0.0,0.0,0.0,0.0,0.0,0.0,0.0,0.0,0.0,0.0,0.0,0.0,0.0,0.0,0.0,0.0,0.0,0.0,0.0,0.0,0.0,0.0,0.0,0.0,0.0,0.0,0.0,0.0,0.0,0.0,0.0,0.0,0.0,0.0,0.0,0.0,0.0,0.0,0.0,0.0,0.0,0.0,0.0,0.0,0.0,0.0,0.0,0.0,0.0,0.0,0.0,0.0,0.0,0.0,0.0,0.0,0.0,0.0,0.0,0.0,0.0,0.0,0.0,0.0,0.0,0.0,0.0,0.0,0.0,0.0,0.0,0.0,0.0,0.0,0.0,0.0,0.0,0.0,0.0,0.0,0.0,0.0,0.0,0.0,0.0,0.0,0.0,0.0,0.0,0.0,0.0,0.0,0.0,0.0,0.0,0.0,0.0,0.0,0.0,0.0,0.0,0.0,0.0,0.0,0.0,0.0,0.0,0.0,0.0,0.0,0.0,0.0,0.0,0.0,0.0,0.0,0.0,0.0,0.0,0.0,0.0,0.0,0.0,0.0,0.0,0.0,0.0,0.0,0.0,0.0,0.0,0.0,0.0,0.0,0.0,0.0,0.0,0.0,0.0,0.0,0.0,0.0,0.0,0.0,0.0,0.0,0.0,0.0,0.0,0.0,0.0,0.0,0.0,0.0,0.0,0.0,0.0,0.0,0.0,0.0,0.0,0.0,0.0,0.0,0.0,0.0,0.0,0.0,0.0,0.0,0.0,0.0,0.0,0.0,0.0,0.0,0.0,0.0,0.0,0.0,0.0,0.0,0.0,0.0,0.0,0.0,0.0,0.0,0.0,0.0,0.0,0.0,0.0,0.0,0.0,0.0,0.0,0.0,0.0,0.0,0.0,0.0,0.0,0.0,0.0,0.0,0.0,0.0,0.0,0.0,0.0,0.0,0.0,0.0,0.0,0.0,0.0,0.0,0.0,0.0,0.0,0.0,0.0,0.0,0.0,0.0,0.0,0.0,0.0,0.0,0.0,0.0,0.0,0.0,0.0,0.0,0.0,0.0,0.0,0.0,0.0,0.0,0.0,0.0,0.0,0.0,0.0,0.0,0.0,0.0,0.0,0.0,0.0,0.0,0.0,0.0,0.0,0.0,0.0,0.0,0.0,0.0,0.0,0.0,0.0,0.0,0.0,0.0,0.0,0.0,0.0,0.0,0.0,0.0,0.0,0.0,0.0,0.0,0.0,0.0,0.0,0.0,0.0,0.0,0.0,0.0,0.0,0.0,0.0,0.0,0.0,0.0,0.0,0.0,0.0,0.0,0.0,0.0,0.0,0.0,0.0,0.0,0.0,0.0,0.0,0.0,0.0,0.0,0.0,0.0,0.0,0.0,0.0,0.0,0.0,0.0,0.0,0.0,0.0,0.0,0.0,0.0,0.0,0.0,0.0,0.0,0.0,0.0,0.0,0.0,0.0,0.0,0.0,0.0,0.0,0.0,0.0,0.0,0.0,0.0,0.0,0.0,0.0,0.0,0.0,0.0,0.0,0.0,0.0,0.0,0.0,0.0,0.0,0.0,0.0,0.0,0.0,0.0,0.0,0.0,0.0,0.0,0.0,0.0,0.0,0.0,0.0,0.0,0.0,0.0,0.0,0.0,0.0,0.0,0.0,0.0,0.0,0.0,0.0,0.0,0.0,0.0,0.0,0.0,0.0,0.0,0.0,0.0,0.0,0.0,0.0,0.0,0.0,0.0,0.0,0.0,0.0,0.0,0.0,0.0,0.0,0.0,0.0,0.0,0.0,0.0,0.0,0.0,0.0,0.0,0.0,0.0,0.0,0.0,0.0,0.0,0.0,0.0,0.0,0.0,0.0,0.0,0.0,0.0,0.0,0.0,0.0,0.0,0.0,0.0,0.0,0.0,0.0,0.0,0.0,0.0,0.0,0.0,0.0,0.0,0.0,0.0,0.0,0.0,0.0,0.0,0.0,0.0,0.0,0.0,0.0,0.0,0.0,0.0,0.0,0.0,0.0,0.0,0.0,0.0,0.0,0.0,0.0,0.0,0.0,0.0,0.0,0.0,0.0,0.0,0.0,0.0,0.0,0.0,0.0,0.0,0.0,0.0,0.0,0.0,0.0,0.0,0.0,0.0,0.0,0.0,0.0,0.0,0.0,0.0,0.0,0.0,0.0,0.0,0.0,0.0,0.0,0.0,0.0,0.0,0.0,0.0,0.0,0.0,0.0,0.0,0.0,0.0,0.0,0.0,0.0,0.0,0.0,0.0,0.0,0.0,0.0,0.0,0.0,0.0,0.0,0.0,0.0,0.0,0.0,0.0,0.0,0.0,0.0,0.0,0.0,0.0,0.0,0.0,0.0,0.0,0.0,0.0,0.0,0.0,0.0,0.0,0.0,0.0,0.0,0.0,0.0,0.0,0.0,0.0,0.0,0.0,0.0,0.0,0.0,0.0,0.0,0.0,0.0,0.0,0.0,0.0,0.0,0.0,0.0,0.0,0.0,0.0,0.0,0.0,0.0,0.0,0.0,0.0,0.0,0.0,0.0,0.0,0.0,0.0,0.0,0.0,0.0,0.0,0.0,0.0,0.0,0.0,0.0,0.0,0.0,0.0,0.0,0.0,0.0,0.0,0.0,0.0,0.0,0.0,0.0,0.0,0.0,0.0,0.0,0.0,0.0,0.0,0.0,0.0,0.0,0.0,0.0,0.0,0.0,0.0,0.0,0.0,0.0,0.0,0.0,0.0,0.0,1.0103,0.0,0.0,0.0,0.0,0.0,0.0,0.0,0.0,0.0,0.0,0.0,0.0,0.0,0.0,0.0,0.0,0.0,0.0,0.0,0.0,0.0,0.0,0.0,0.0,0.0,0.0,0.0,0.0,0.0,0.0,0.0,0.0,0.0,0.0,0.0,0.0,0.0,0.0,0.0,0.0,0.0,0.0,0.0,0.0,0.0,0.0,0.0,0.0,0.0,0.0,0.0,0.0,0.0,0.0,0.0,0.0,0.0,0.0,0.0,0.0,0.0,0.0,0.0,0.0,0.0,0.0,0.0,0.0,0.0,0.0,0.0,0.0,0.0,0.0,0.0,0.0,0.0,0.0,0.0,0.0,0.0,0.0,0.0,0.0,0.0,0.0,0.0,0.0,0.0,0.0,0.0,0.0,0.0,0.0,0.0,0.0,0.0,0.0,0.0,0.0,0.0,0.0,0.0,0.0,0.0,0.0,0.0,0.0,0.0,0.0,1.2241,1.2819,1.1151,0.9966,0.9524,0.0,0.0,0.0,0.0,0.0,0.0,0.0,0.0,0.0,0.0,0.0,0.0,0.0,0.0,0.0,0.0,0.0,0.0,0.0,0.0,0.0,0.0,0.0,0.0,0.0,0.0,0.0,0.0,0.0,0.0,0.0,0.0,0.0,0.0,0.0,0.0,0.0,0.0,0.0,0.0,0.0,0.0,0.0,0.0,0.0,0.0,0.0,0.0,0.0,0.0,0.0,0.0,0.0,0.0,0.0,0.0,0.0,0.0,0.0,0.0,0.0,0.0,0.0,0.0,0.0,0.0,0.0,0.0,0.0,0.0,0.0,0.0,0.0,0.0,0.0,0.0,0.0,0.0,0.0,0.0,0.0,0.0,0.0,0.0,0.0,0.0,0.0,0.0,0.0,0.0,0.0,0.0,0.0,0.0,0.0,0.0,0.0,0.0,0.0,0.0,0.0,0.0,0.0,0.0,0.0,0.0,0.0,0.0,0.0,0.0,0.0,0.0,1.0419,0.9061,0.8209,0.0,0.0,0.0,0.0,0.0,0.0,0.0,0.0,0.0,0.0,0.0,0.0,0.0,0.0,0.0,0.0,0.0,0.0,0.0,0.0,0.0,0.0,0.0,0.0,0.0,0.0,0.0,0.0,0.0,0.0,0.0,0.0,0.0,0.0,0.0,0.0,0.0,0.0,0.0,0.0,0.0,0.0,0.0,0.0,0.0,0.0,0.0,0.0,0.0,0.0,0.0,0.0,0.0,0.0,0.0,0.0,0.0,0.0,0.0,0.0,0.0,0.0,0.0,0.0,0.0,0.0,0.0,0.0,0.0,0.0,0.0,0.0,0.0,0.0,0.0,0.0,0.0,0.0,0.0,0.0,0.0,0.0,0.0,0.0,0.0,0.0,0.0,0.0,0.0,0.0,0.0,0.0,0.0,0.0,0.0,0.0,0.0,0.0,0.0,0.0,0.0,0.0,0.0,0.0,0.0,0.0,0.0,0.0,0.0,0.0,1.1712,1.1777,1.0512,0.0,0.5477,0.0,0.0,0.0,0.0,0.0,0.0,0.0,0.0,0.0,0.0,0.0,0.0,0.0,0.0,0.0,0.0,0.0,0.0,0.0,0.0,0.0,0.0,0.0,0.0,0.0,0.0,0.0,0.0,0.0,0.0,0.0,0.0,0.0,0.0,0.0,0.0,0.0,0.0,0.0,0.0,0.0,0.0,0.0,0.0,0.0,0.0,0.0,0.0,0.0,0.0,0.0,0.0,0.0,0.0,0.0,0.0,0.0,0.0,0.0,0.0,0.0,0.0,0.0,0.0,0.0,0.0,0.0,0.0,0.0,0.0,0.0,0.0,0.0,0.0,0.0,0.0,0.0,0.0,0.0,0.0,0.0,0.0,0.0,0.0,0.0,0.0,0.0,0.0,0.0,0.0,0.0,0.0,0.0,0.0,0.0,0.0,0.0,0.0,0.0,0.0,0.0,0.0,0.0,0.0,0.0,0.0,0.0,0.0,0.0,0.0,1.0918,1.0657,0.9144,0.7158,0.0,0.0,0.0,0.0,0.0,0.0,0.0,0.0,0.0,0.0,0.0,0.0,0.0,0.0,0.0,0.0,0.0,0.0,0.0,0.0,0.0,0.0,0.0,0.0,0.0,0.0,0.0,0.0,0.0,0.0,0.0,0.0,0.0,0.0,0.0,0.0,0.0,0.0,0.0,0.0,0.0,0.0,0.0,0.0,0.0,0.0,0.0,0.0,0.0,0.0,0.0,0.0,0.0,0.0,0.0,0.0,0.0,0.0,0.0,0.0,0.0,0.0,0.0,0.0,0.0,0.0,0.0,0.0,0.0,0.0,0.0,0.0,0.0,0.0,0.0,0.0,0.0,0.0,0.0,0.0,0.0,0.0,0.0,0.0,0.0,0.0,0.0,0.0,0.0,0.0,0.0,0.0,0.0,0.0,0.0,0.0,0.0,0.0,0.0,0.0,0.0,0.0,0.0,0.0,0.0,0.0,0.0,0.0,0.0,0.0,1.0427,1.0042,0.9339,0.7864,0.6197,0.4281,0.0,0.0,0.0,0.0,0.0,0.0,0.0,0.0,0.0,0.0,0.0,0.0,0.0,0.0,0.0,0.0,0.0,0.0,0.0,0.0,0.0,0.0,0.0,0.0,0.0,0.0,0.0,0.0,0.0,0.0,0.0,0.0,0.0,0.0,0.0,0.0,0.0,0.0,0.0,0.0,0.0,0.0,0.0,0.0,0.0,0.0,0.0,0.0,0.0,0.0,0.0,0.0,0.0,0.0,0.0,0.0,0.0,0.0,0.0,0.0,0.0,0.0,0.0,0.0,0.0,0.0,0.0,0.0,0.0,0.0,0.0,0.0,0.0,0.0,0.0,0.0,0.0,0.0,0.0,0.0,0.0,0.0,0.0,0.0,0.0,0.0,0.0,0.0,0.0,0.0,0.0,0.0,0.0,0.0,0.0,0.0,0.0,0.0,0.0,0.0,0.0,0.0,0.0,0.0,0.0,0.0,0.0,0.0,1.0722,1.0053,0.9088,0.7966,0.7226,0.5946,0.0,0.0,0.0,0.0,0.0,0.0,0.0,0.0,0.0,0.0,0.0,0.0,0.0,0.0,0.0,0.0,0.0,0.0,0.0,0.0,0.0,0.0,0.0,0.0,0.0,0.0,0.0,0.0,0.0,0.0,0.0,0.0,0.0,0.0,0.0,0.0,0.0,0.0,0.0,0.0,0.0,0.0,0.0,0.0,0.0,0.0,0.0,0.0,0.0,0.0,0.0,0.0,0.0,0.0,0.0,0.0,0.0,0.0,0.0,0.0,0.0,0.0,0.0,0.0,0.0,0.0,0.0,0.0,0.0,0.0,0.0,0.0,0.0,0.0,0.0,0.0,0.0,0.0,0.0,0.0,0.0,0.0,0.0,0.0,0.0,0.0,0.0,0.0,0.0,0.0,0.0,0.0,0.0,0.0,0.0,0.0,0.0,0.0,0.0,0.0,0.0,0.0,0.0,0.0,0.0,0.0,0.0,0.0,0.0,0.9987,0.942,0.8652,0.7634,0.6895,0.5739,0.0,0.0,0.0,0.0,0.0,0.0,0.0,0.0,0.0,0.0,0.0,0.0,0.0,0.0,0.0,0.0,0.0,0.0,0.0,0.0,0.0,0.0,0.0,0.0,0.0,0.0,0.0,0.0,0.0,0.0,0.0,0.0,0.0,0.0,0.0,0.0,0.0,0.0,0.0,0.0,0.0,0.0,0.0,0.0,0.0,0.0,0.0,0.0,0.0,0.0,0.0,0.0,0.0,0.0,0.0,0.0,0.0,0.0,0.0,0.0,0.0,0.0,0.0,0.0,0.0,0.0,0.0,0.0,0.0,0.0,0.0,0.0,0.0,0.0,0.0,0.0,0.0,0.0,0.0,0.0,0.0,0.0,0.0,0.0,0.0,0.0,0.0,0.0,0.0,0.0,0.0,0.0,0.0,0.0,0.0,0.0,0.0,0.0,0.0,0.0,0.0,0.0,0.0,0.0,0.0,0.0,0.0,0.0,0.0,0.919,0.0,0.8075,0.7215,0.6587,0.5612,0.0,0.0,0.0,0.0,0.0,0.0,0.0,0.0,0.0,0.0,0.0,0.0,0.0,0.0,0.0,0.0,0.0,0.0,0.0,0.0,0.0,0.0,0.0,0.0,0.0,0.0,0.0,0.0,0.0,0.0,0.0,0.0,0.0,0.0,0.0,0.0,0.0,0.0,0.0,0.0,0.0,0.0,0.0,0.0,0.0,0.0,0.0,0.0,0.0,0.0,0.0,0.0,0.0,0.0,0.0,0.0,0.0,0.0,0.0,0.0,0.0,0.0,0.0,0.0,0.0,0.0,0.0,0.0,0.0,0.0,0.0,0.0,0.0,0.0,0.0,0.0,0.0,0.0,0.0,0.0,0.0,0.0,0.0,0.0,0.0,0.0,0.0,0.0,0.0,0.0,0.0,0.0,0.0,0.0,0.0,0.0,0.0,0.0,0.0,0.0,0.0,0.0,0.0,0.0,0.0,0.0,0.0,0.0,0.9737,0.857,0.7979,0.7359,0.6544,0.6289,0.553,0.0,0.0,0.0,0.0,0.0,0.0,0.0,0.0,0.0,0.0,0.0,0.0,0.0,0.0,0.0,0.0,0.0,0.0,0.0,0.0,0.0,0.0,0.0,0.0,0.0,0.0,0.0,0.0,0.0,0.0,0.0,0.0,0.0,0.0,0.0,0.0,0.0,0.0,0.0,0.0,0.0,0.0,0.0,0.0,0.0,0.0,0.0,0.0,0.0,0.0,0.0,0.0,0.0,0.0,0.0,0.0,0.0,0.0,0.0,0.0,0.0,0.0,0.0,0.0,0.0,0.0,0.0,0.0,0.0,0.0,0.0,0.0,0.0,0.0,0.0,0.0,0.0,0.0,0.0,0.0,0.0,0.0,0.0,0.0,0.0,0.0,0.0,0.0,0.0,0.0,0.0,0.0,0.0,0.0,0.0,0.0,0.0,0.0,0.0,0.0,0.0,0.0,0.0,0.0,0.0,0.0,0.0,0.0,0.0,0.8675,0.7764,0.7363,0.746,0.6315,0.5412,0.0,0.0,0.0,0.0,0.0,0.0,0.0,0.0,0.0,0.0,0.0,0.0,0.0,0.0,0.0,0.0,0.0,0.0,0.0,0.0,0.0,0.0,0.0,0.0,0.0,0.0,0.0,0.0,0.0,0.0,0.0,0.0,0.0,0.0,0.0,0.0,0.0,0.0,0.0,0.0,0.0,0.0,0.0,0.0,0.0,0.0,0.0,0.0,0.0,0.0,0.0,0.0,0.0,0.0,0.0,0.0,0.0,0.0,0.0,0.0,0.0,0.0,0.0,0.0,0.0,0.0,0.0,0.0,0.0,0.0,0.0,0.0,0.0,0.0,0.0,0.0,0.0,0.0,0.0,0.0,0.0,0.0,0.0,0.0,0.0,0.0,0.0,0.0,0.0,0.0,0.0,0.0,0.0,0.0,0.0,0.0,0.0,0.0,0.0,0.0,0.0,0.0,0.0,0.0,0.0,0.0,0.0,0.0,0.0,0.8845,0.7788,0.7256,0.746,0.6661,0.5751,0.4757,0.0,0.0,0.0,0.0,0.0,0.0,0.0,0.0,0.0,0.0,0.0,0.0,0.0,0.0,0.0,0.0,0.0,0.0,0.0,0.0,0.0,0.0,0.0,0.0,0.0,0.0,0.0,0.0,0.0,0.0,0.0,0.0,0.0,0.0,0.0,0.0,0.0,0.0,0.0,0.0,0.0,0.0,0.0,0.0,0.0,0.0,0.0,0.0,0.0,0.0,0.0,0.0,0.0,0.0,0.0,0.0,0.0,0.0,0.0,0.0,0.0,0.0,0.0,0.0,0.0,0.0,0.0,0.0,0.0,0.0,0.0,0.0,0.0,0.0,0.0,0.0,0.0,0.0,0.0,0.0,0.0,0.0,0.0,0.0,0.0,0.0,0.0,0.0,0.0,0.0,0.0,0.0,0.0,0.0,0.0,0.0,0.0,0.0,0.0,0.0,0.0,0.0,0.0,0.0,0.0,0.0,0.0,0.0,0.9076,0.7998,0.7349,0.7092,0.7315,0.6476,0.0,0.0,0.0,0.0,0.0,0.0,0.0,0.0,0.0,0.0,0.0,0.0,0.0,0.0,0.0,0.0,0.0,0.0,0.0,0.0,0.0,0.0,0.0,0.0,0.0,0.0,0.0,0.0,0.0,0.0,0.0,0.0,0.0,0.0,0.0,0.0,0.0,0.0,0.0,0.0,0.0,0.0,0.0,0.0,0.0,0.0,0.0,0.0,0.0,0.0,0.0,0.0,0.0,0.0,0.0,0.0,0.0,0.0,0.0,0.0,0.0,0.0,0.0,0.0,0.0,0.0,0.0,0.0,0.0,0.0,0.0,0.0,0.0,0.0,0.0,0.0,0.0,0.0,0.0,0.0,0.0,0.0,0.0,0.0,0.0,0.0,0.0,0.0,0.0,0.0,0.0,0.0,0.0,0.0,0.0,0.0,0.0,0.0,0.0,0.0,0.0,0.0,0.0,0.0,0.0,0.0,0.0,0.0,0.0,0.973,0.9486,0.9379,0.9423,0.7882,0.6723,0.0,0.0,0.0,0.0,0.0,0.0,0.0,0.0,0.0,0.0,0.0,0.0,0.0,0.0,0.0,0.0,0.0,0.0,0.0,0.0,0.0,0.0,0.0,0.0,0.0,0.0,0.0,0.0,0.0,0.0,0.0,0.0,0.0,0.0,0.0,0.0,0.0,0.0,0.0,0.0,0.0,0.0,0.0,0.0,0.0,0.0,0.0,0.0,0.0,0.0,0.0,0.0,0.0,0.0,0.0,0.0,0.0,0.0,0.0,0.0,0.0,0.0,0.0,0.0,0.0,0.0,0.0,0.0,0.0,0.0,0.0,0.0,0.0,0.0,0.0,0.0,0.0,0.0,0.0,0.0,0.0,0.0,0.0,0.0,0.0,0.0,0.0,0.0,0.0,0.0,0.0,0.0,0.0,0.0,0.0,0.0,0.0,0.0,0.0,0.0,0.0,0.0,0.0,0.0,0.0,0.0,0.0,0.0,1.0026,0.9509,1.0709,1.1301,1.1276,0.9267,0.7752,0.0,0.0,0.0,0.0,0.0,0.0,0.0,0.0,0.0,0.0,0.0,0.0,0.0,0.0,0.0,0.0,0.0,0.0,0.0,0.0,0.0,0.0,0.0,0.0,0.0,0.0,0.0,0.0,0.0,0.0,0.0,0.0,0.0,0.0,0.0,0.0,0.0,0.0,0.0,0.0,0.0,0.0,0.0,0.0,0.0,0.0,0.0,0.0,0.0,0.0,0.0,0.0,0.0,0.0,0.0,0.0,0.0,0.0,0.0,0.0,0.0,0.0,0.0,0.0,0.0,0.0,0.0,0.0,0.0,0.0,0.0,0.0,0.0,0.0,0.0,0.0,0.0,0.0,0.0,0.0,0.0,0.0,0.0,0.0,0.0,0.0,0.0,0.0,0.0,0.0,0.0,0.0,0.0,0.0,0.0,0.0,0.0,0.0,0.0,0.0,0.0,0.0,0.0,0.0,0.0,0.0,0.0,0.0,1.1013,0.9104,1.1547,1.2756,1.2467,1.085,0.9009,0.0,0.0,0.0,0.0,0.0,0.0,0.0,0.0,0.0,0.0,0.0,0.0,0.0,0.0,0.0,0.0,0.0,0.0,0.0,0.0,0.0,0.0,0.0,0.0,0.0,0.0,0.0,0.0,0.0,0.0,0.0,0.0,0.0,0.0,0.0,0.0,0.0,0.0,0.0,0.0,0.0,0.0,0.0,0.0,0.0,0.0,0.0,0.0,0.0,0.0,0.0,0.0,0.0,0.0,0.0,0.0,0.0,0.0,0.0,0.0,0.0,0.0,0.0,0.0,0.0,0.0,0.0,0.0,0.0,0.0,0.0,0.0,0.0,0.0,0.0,0.0,0.0,0.0,0.0,0.0,0.0,0.0,0.0,0.0,0.0,0.0,0.0,0.0,0.0,0.0,0.0,0.0,0.0,0.0,0.0,0.0,0.0,0.0,0.0,0.0,0.0,0.0,0.0,0.0,0.0,0.0,0.0,0.0,1.0002,1.0384,1.1569,1.2313,1.2504,1.0373,0.8923,0.0,0.0,0.0,0.0,0.0,0.0,0.0,0.0,0.0,0.0,0.0,0.0,0.0,0.0,0.0,0.0,0.0,0.0,0.0,0.0,0.0,0.0,0.0,0.0,0.0,0.0,0.0,0.0,0.0,0.0,0.0,0.0,0.0,0.0,0.0,0.0,0.0,0.0,0.0,0.0,0.0,0.0,0.0,0.0,0.0,0.0,0.0,0.0,1.579,0.0,0.0,0.0,0.0,0.0,0.0,0.0,0.0,0.0,0.0,0.0,0.0,0.0,0.0,0.0,0.0,0.0,0.0,0.0,0.0,0.0,0.0,0.0,0.0,0.0,0.0,0.0,0.0,0.0,0.0,0.0,0.0,0.0,0.0,0.0,0.0,0.0,0.0,0.0,0.0,0.0,0.0,0.0,0.0,0.0,0.0,0.0,0.0,0.0,0.0,0.0,0.0,0.0,0.0,0.0,0.0,0.0,0.0,0.0,1.0549,1.0897,1.2046,1.2534,1.2219,1.048,0.939,0.0,0.0,0.0,0.0,0.0,0.0,0.0,0.0,0.0,0.0,0.0,0.0,0.0,0.0,0.0,0.0,0.0,0.0,0.0,0.0,0.0,0.0,0.0,0.0,0.0,0.0,0.0,0.0,0.0,0.0,0.0,0.0,0.0,0.0,0.0,0.0,0.0,0.0,0.0,0.0,0.0,0.0,0.0,0.0,0.0,0.0,0.0,0.0,0.0,0.0,0.0,0.0,0.0,0.0,0.0,0.0,0.0,0.0,0.0,0.0,0.0,0.0,0.0,0.0,0.0,0.0,0.0,0.0,0.0,0.0,0.0,0.0,0.0,0.0,0.0,0.0,0.0,0.0,0.0,0.0,0.0,0.0,0.0,0.0,0.0,0.0,0.0,0.0,0.0,0.0,0.0,0.0,0.0,0.0,0.0,0.0,0.0,0.0,0.0,0.0,0.0,0.0,0.0,0.0,0.0,0.0,0.0,1.1136,1.1387,1.1157,1.2545,1.2886,1.186,1.0682,0.9792,0.9194,0.0,0.0,0.0,0.0,0.0,0.0,0.0,0.0,0.0,0.0,0.0,0.0,0.0,0.0,0.0,0.0,0.0,0.0,0.0,0.0,0.0,0.0,0.0,0.0,0.0,0.0,0.0,0.0,0.0,0.0,0.0,0.0,0.0,0.0,0.0,0.0,0.0,0.0,1.029,1.1055,0.0,0.0,0.0,0.0,0.0,0.0,0.0,0.0,1.5187,0.0,0.0,0.0,0.0,0.0,0.0,0.0,0.0,0.0,0.0,0.0,0.0,0.0,0.0,0.0,0.0,0.0,0.0,0.0,0.0,0.0,0.0,0.0,0.0,0.0,0.0,0.0,0.0,0.0,0.0,0.0,0.0,0.0,0.0,0.0,0.0,0.0,0.0,0.0,0.0,0.0,0.0,0.0,0.0,0.0,0.0,0.0,0.0,0.0,0.0,0.0,0.0,0.0,0.0,0.0,0.0,1.1084,1.0244,1.0525,1.1961,1.2421,1.2202,1.1277,1.0446,0.9562,0.8521,0.0,0.0,0.0,0.0,0.0,0.0,0.0,0.0,0.0,0.0,0.0,0.0,0.0,0.0,0.0,0.0,0.0,0.0,0.0,0.0,0.0,0.0,0.0,0.0,0.0,0.0,0.0,0.0,0.0,0.0,0.0,0.0,0.0,0.0,0.0,0.0,0.0,0.0,0.0,1.1642,1.2372,0.0,0.0,0.0,0.0,0.0,0.0,0.0,0.0,1.4467,0.0,0.0,0.0,0.0,0.0,0.0,0.0,0.0,0.0,0.0,0.0,0.0,0.0,0.0,0.0,0.0,0.0,0.0,0.0,0.0,0.0,0.0,0.0,0.0,0.0,0.0,0.0,0.0,0.0,0.0,0.0,0.0,0.0,0.0,0.0,0.0,0.0,0.0,0.0,0.0,0.0,0.0,0.0,0.0,0.0,0.0,0.0,0.0,0.0,0.0,0.0,0.0,0.0,0.0,0.0,1.1475,1.0973,1.1318,1.2678,1.2535,1.2067,1.1272,1.0285,0.9181,0.0,0.0,0.0,0.0,0.0,0.0,0.0,0.0,0.0,0.0,0.0,0.0,0.0,0.0,0.0,0.0,0.0,0.0,0.0,0.0,0.0,0.0,0.0,0.0,0.0,0.0,0.0,0.0,0.0,0.0,0.0,0.0,0.0,0.0,0.0,0.0,0.0,0.0,0.0,0.0,1.1662,1.2599,1.3439,0.0,0.0,0.0,0.0,0.0,0.0,1.4639,1.4185,0.0,0.0,0.0,0.0,0.0,0.0,0.0,0.0,0.0,0.0,0.0,0.0,0.0,0.0,0.0,0.0,0.0,0.0,0.0,0.0,0.0,0.0,0.0,0.0,0.0,0.0,0.0,0.0,0.0,0.0,0.0,0.0,0.0,0.0,0.0,0.0,0.0,0.0,0.0,0.0,0.0,0.0,0.0,0.0,0.0,0.0,0.0,0.0,0.0,0.0,0.0,0.0,0.0,0.0,0.0,1.1632,1.181,1.2203,1.2876,1.2768,1.2261,1.1304,1.0096,0.8934,0.0,0.0,0.0,0.0,0.0,0.0,0.0,0.0,0.0,0.0,0.0,0.0,0.0,0.0,0.0,0.0,0.0,0.0,0.0,0.0,0.0,0.0,0.0,0.0,0.0,0.0,0.0,0.0,0.0,0.0,0.0,0.0,0.0,0.0,0.0,0.0,0.0,0.0,0.0,0.0,0.0,1.2802,1.3874,1.3578,0.0,0.0,0.0,0.0,1.4381,1.4717,0.0,0.0,0.0,0.0,0.0,0.0,0.0,0.0,0.0,0.0,0.0,0.0,0.0,0.0,0.0,0.0,0.0,0.0,0.0,0.0,0.0,0.0,0.0,0.0,0.0,0.0,0.0,0.0,0.0,0.0,0.0,0.0,0.0,0.0,0.0,0.0,0.0,0.0,0.0,0.0,0.0,0.0,0.0,0.0,0.0,0.0,0.0,0.0,0.0,0.0,0.0,0.0,0.0,0.0,0.0,0.0,1.0926,1.169,1.2053,1.2109,1.3065,1.2777,1.0995,0.9973,0.8893,0.0,0.0,0.0,0.0,0.0,0.0,0.0,0.0,0.0,0.0,0.0,0.0,0.0,0.0,0.0,0.0,0.0,0.0,0.0,0.0,0.0,0.0,0.0,0.0,0.0,0.0,0.0,0.0,0.0,0.0,0.0,0.0,0.0,0.0,0.0,0.0,0.0,0.0,0.0,0.0,0.0,1.3334,1.4233,1.3891,1.354,0.0,0.0,1.5126,1.5445,1.681,0.0,0.0,0.0,0.0,0.0,0.0,0.0,0.0,0.0,0.0,0.0,0.0,0.0,0.0,0.0,0.0,0.0,0.0,0.0,0.0,0.0,0.0,0.0,0.0,0.0,0.0,0.0,0.0,0.0,0.0,0.0,0.0,0.0,0.0,0.0,0.0,0.0,0.0,0.0,0.0,0.0,0.0,0.0,0.0,0.0,0.0,0.0,0.0,0.0,0.0,0.0,0.0,0.0,0.0,0.0,1.1139,1.1274,1.2245,1.2746,1.2841,1.2827,1.2407,1.1601,0.9744,0.8583,0.0,0.0,0.0,0.0,0.0,0.0,0.0,0.0,0.0,0.0,0.0,0.0,0.0,0.0,0.0,0.0,0.0,0.0,0.0,0.0,0.0,0.0,0.0,0.0,0.0,0.0,0.0,0.0,0.0,0.0,0.0,0.0,0.0,0.0,0.0,0.0,0.0,0.0,0.0,0.0,0.0,0.0,1.4524,1.4335,0.0,0.0,0.0,1.5387,1.5094,0.0,0.0,0.0,0.0,0.0,0.0,0.0,0.0,0.0,0.0,0.0,0.0,0.0,0.0,0.0,0.0,0.0,0.0,0.0,0.0,0.0,0.0,0.0,0.0,0.0,0.0,0.0,0.0,0.0,0.0,0.0,0.0,0.0,0.0,0.0,0.0,0.0,0.0,0.0,0.0,0.0,0.0,0.0,0.0,0.0,0.0,0.0,0.0,0.0,0.0,0.0,0.0,0.0,0.0,0.0,0.0,0.0,1.1097,1.2582,1.3335,1.3175,1.2832,1.2466,1.2098,1.0135,0.0,0.0,0.0,0.0,0.0,0.0,0.0,0.0,0.0,0.0,0.0,0.0,0.0,0.0,0.0,0.0,0.0,0.0,0.0,0.0,0.0,0.0,0.0,0.0,0.0,0.0,0.0,1.0761,0.0,0.0,0.0,0.0,0.0,0.0,0.0,0.0,0.0,0.0,0.0,0.0,0.0,0.0,1.4227,1.4933,1.4909,1.5011,0.0,0.0,1.576,1.5187,1.7078,1.7644,0.0,0.0,0.0,0.0,0.0,0.0,0.0,0.0,0.0,0.0,0.0,0.0,0.0,0.0,0.0,0.0,0.0,0.0,0.0,0.0,0.0,0.0,0.0,0.0,0.0,0.0,0.0,0.0,0.0,0.0,0.0,0.0,0.0,0.0,0.0,0.0,0.0,0.0,0.0,0.0,0.0,0.0,0.0,0.0,0.0,0.0,0.0,0.0,0.0,0.0,0.0,0.0,0.0,0.0,0.0,0.9701,1.2378,1.3326,1.2217,1.3397,1.3442,1.2126,1.1639,1.083,0.0,0.0,0.0,0.0,0.0,0.0,0.0,0.0,0.0,0.0,0.0,0.0,0.0,0.0,0.0,0.0,0.0,0.0,0.0,0.0,0.0,0.0,0.0,0.0,0.0,0.0,0.0,0.0,0.0,0.0,0.0,0.0,0.0,0.0,0.0,0.0,0.0,0.0,0.0,0.0,0.0,1.5187,1.553,1.5786,1.6337,0.0,0.0,1.65,1.6779,1.8981,1.9392,1.5397,0.0,0.0,0.0,0.0,0.0,0.0,0.0,0.0,0.0,0.0,0.0,0.0,0.0,0.0,0.0,0.0,0.0,0.0,0.0,0.0,0.0,0.0,0.0,0.0,0.0,0.0,0.0,0.0,0.0,0.0,0.0,0.0,0.0,0.0,0.0,0.0,0.0,0.0,0.0,0.0,0.0,0.0,0.0,0.0,0.0,0.0,0.0,0.0,0.0,0.0,0.0,0.0,0.0,1.1296,0.9827,1.2636,1.4193,1.4328,1.4312,1.4005,1.3447,1.2297,1.1214,0.0,0.0,0.0,0.0,0.0,0.0,0.0,0.0,0.0,0.0,0.0,0.0,0.0,0.0,0.0,0.0,0.0,0.0,0.0,0.0,0.0,0.0,0.0,0.0,0.0,0.0,0.0,0.0,1.3854,1.3721,1.2531,0.0,0.0,0.0,0.0,0.0,0.0,0.0,0.0,0.0,0.0,1.5971,1.7342,1.729,0.0,0.0,1.7804,1.745,1.6711,1.7728,1.772,1.486,1.4783,0.0,0.0,0.0,0.0,0.0,0.0,0.0,0.0,0.0,0.0,0.0,0.0,0.0,0.0,0.0,0.0,0.0,0.0,0.0,0.0,0.0,0.0,0.0,0.0,0.0,0.0,0.0,0.0,0.0,0.0,0.0,0.0,0.0,0.0,0.0,0.0,0.0,0.0,0.0,0.0,0.0,0.0,0.0,0.0,0.0,0.0,0.0,0.0,0.0,0.0,0.0,0.0,1.1598,1.0924,1.3427,1.502,1.5688,1.5073,1.456,1.4261,1.3097,1.2141,0.0,0.0,0.0,0.0,0.0,0.0,0.0,0.0,0.0,0.0,0.0,0.0,0.0,0.0,0.0,0.0,0.0,0.0,0.0,0.0,0.0,0.0,0.0,0.0,0.0,0.0,0.0,0.0,1.4245,1.4103,1.3311,0.0,0.0,0.0,0.0,0.0,0.0,0.0,0.0,0.0,0.0,1.702,1.8202,1.7765,1.7393,1.7535,1.7328,1.6865,1.6145,1.6385,1.6149,1.4727,0.0,0.0,0.0,0.0,0.0,0.0,0.0,0.0,0.0,0.0,0.0,0.0,0.0,0.0,0.0,0.0,0.0,0.0,0.0,0.0,0.0,0.0,0.0,0.0,0.0,0.0,0.0,0.0,0.0,0.0,0.4476,0.0,0.0,0.0,0.0,0.0,0.0,0.0,0.0,0.0,0.0,0.0,0.0,0.0,0.0,0.0,0.0,0.0,0.0,0.0,0.0,0.0,0.0,1.2116,1.3036,1.4642,1.5565,1.556,1.5576,1.5197,1.4387,1.4261,1.4,1.3379,0.0,0.0,0.0,0.0,0.0,0.0,0.0,0.0,0.0,0.0,0.0,0.0,0.0,0.0,0.0,0.0,0.0,0.0,0.0,0.0,0.0,0.0,0.0,0.0,0.0,0.0,1.2189,1.2729,1.341,0.0,0.0,0.0,0.0,0.0,0.0,0.0,0.0,0.0,0.0,1.783,1.8642,1.7671,1.6729,1.6255,1.6662,1.5389,1.4566,1.5326,1.5296,1.5196,0.0,0.0,0.0,0.0,0.0,0.0,0.0,0.0,0.0,0.0,0.0,0.0,0.0,0.0,0.0,0.0,0.0,0.0,0.0,0.0,0.0,0.0,0.0,0.0,0.0,0.0,0.0,0.4128,0.3642,0.0,0.0,0.0,0.0,0.0,0.0,0.0,0.0,0.0,0.0,0.0,0.9087,0.9189,0.0,0.0,0.0,0.0,0.0,0.0,0.0,0.0,0.0,0.0,0.0,0.0,1.1392,1.3077,1.4751,1.5945,1.6604,1.6256,1.6051,1.602,1.5266,1.4283,1.3139,0.0,0.0,0.0,0.0,0.0,0.0,0.0,0.0,0.0,0.0,0.0,0.0,0.0,0.0,0.0,0.0,0.0,0.0,0.0,0.0,0.0,0.0,0.0,0.0,0.0,1.4424,0.0,0.0,0.0,0.0,0.0,0.0,0.0,0.0,0.0,0.0,0.0,1.5781,1.7754,1.7233,1.6775,1.7229,1.6948,1.6677,0.0,0.0,0.0,0.0,0.0,0.0,0.0,0.0,0.0,0.0,0.0,0.0,0.0,0.0,1.718,1.645,1.6952,1.7443,1.769,0.0,0.0,0.0,0.0,0.0,0.0,0.0,0.0,0.0,0.0,0.0,0.0,0.0,0.0,0.0,0.0,0.7579,0.0,0.0,0.0,0.0,0.0,0.0,0.0,0.0,0.9068,1.0036,1.0456,1.0769,1.0828,0.0,1.0356,0.9446,0.0,0.0,0.0,0.0,0.0,0.0,0.0,0.0,1.1072,1.2604,1.4694,1.6242,1.7216,1.6879,1.6752,1.6876,1.6132,1.4433,1.1751,1.2393,1.1841,0.0,0.0,0.0,0.0,0.0,0.0,0.0,0.0,0.0,0.0,0.0,0.0,0.0,0.0,0.0,0.0,0.0,0.0,0.0,0.0,0.0,0.0,0.0,1.5359,0.0,0.0,0.0,0.0,0.0,0.0,0.0,0.0,0.0,1.5225,1.5813,1.7025,1.8762,1.7963,1.7078,1.6766,0.0,0.0,0.0,0.0,0.0,0.0,0.0,1.2833,1.3218,1.3438,1.4309,1.6406,1.7696,1.8481,1.8693,0.0,0.0,1.7811,1.7896,1.8415,1.8857,1.8954,1.9077,1.9737,1.9875,1.9875,0.0,0.0,0.0,0.0,0.0,0.0,0.0,0.0,0.8501,0.8058,0.0,0.9915,0.0,0.0,0.0,0.0,0.0,0.0,0.0,0.0,1.2819,1.3482,1.1793,1.1961,1.177,1.129,1.0901,1.066,1.0575,0.9912,0.0,0.0,0.0,0.0,0.0,0.0,1.1113,1.183,1.4626,1.6523,1.7394,1.7406,1.724,1.6931,1.6918,1.4642,1.0035,1.2974,1.2968,0.92,1.0666,0.0,0.0,0.0,0.0,0.0,0.0,0.0,0.0,0.0,0.0,0.0,0.0,0.0,0.0,0.0,0.0,0.0,0.0,0.0,0.0,1.5736,0.0,0.0,0.0,0.0,0.0,0.0,0.0,0.0,0.0,0.0,1.532,1.7347,1.8862,1.9049,0.0,0.0,0.0,0.0,1.6605,1.3302,1.275,1.2689,1.2388,1.3091,1.4229,1.572,0.0,0.0,1.9642,1.9426,1.9193,1.9452,2.0522,2.069,1.9122,1.8724,1.8912,1.9497,1.9637,1.9699,2.03,2.0685,2.0631,0.822,0.0,0.0,0.0,0.0,0.6675,0.7261,0.8685,0.8694,0.8829,0.9136,1.0961,0.0,0.0,0.0,0.0,0.0,0.0,1.0717,1.1205,1.2622,1.3555,1.4036,1.4576,1.4285,1.33,1.345,1.338,1.2994,1.2716,1.1512,0.9323,0.0,0.0,0.0,0.0,1.099,1.3866,1.536,1.6773,1.8133,1.7679,1.724,1.6931,1.7115,1.6455,1.4808,1.5731,1.5552,1.4087,1.5069,0.0,0.0,0.0,0.0,0.0,0.0,0.0,0.0,0.0,0.0,0.0,0.0,0.0,0.0,0.0,0.0,0.0,0.0,0.0,1.631,1.6932,1.6551,0.0,0.0,0.0,0.0,0.0,0.0,0.0,0.0,0.0,1.7752,1.7657,1.737,0.0,0.0,1.5468,1.4402,1.5783,1.6566,1.5644,0.0,0.0,0.0,1.5881,1.5602,1.63,1.8084,1.9721,2.0245,2.1327,2.2309,2.2615,2.2988,2.3083,2.2566,2.2041,2.1822,2.2182,2.2332,2.2592,2.3441,2.3677,2.3724,1.0598,0.9609,0.8951,0.8873,0.9192,0.8649,0.9276,1.0677,1.0681,1.0727,1.0878,1.317,1.2843,1.0621,1.1642,0.0,0.0,0.0,1.1938,1.3303,1.3897,1.4738,1.5692,1.6202,1.5845,1.4856,1.5209,1.5232,1.486,1.4696,1.3489,1.1251,0.0,0.0,0.9696,1.0734,1.2406,1.4702,1.6183,1.7514,1.8703,1.8305,1.7988,1.7787,1.8002,1.7908,1.7557,1.7659,1.7558,1.7255,1.766,1.7306,0.0,0.0,0.0,0.0,0.0,0.0,0.0,0.0,0.0,0.0,0.0,1.593,0.0,0.0,0.0,0.0,1.739,1.7675,1.7186,1.7325,0.0,0.0,0.0,0.0,0.0,0.0,0.0,1.5649,1.823,1.9925,1.9843,1.9339,1.9023,1.9243,1.8354,1.7281,1.6244,0.0,1.8912,1.8108,1.8137,1.8247,1.832,1.7685,1.752,1.8302,1.9831,2.1152,2.1557,2.2937,2.4055,2.4436,2.4476,2.4468,2.4476,2.4015,2.3689,2.3904,2.3959,2.4229,2.4968,2.5214,2.5421,1.2814,1.2546,1.1112,1.1082,1.1926,1.1628,1.2324,1.3695,1.3615,1.319,1.2756,1.5836,1.4174,0.9175,1.1837,0.0,1.2008,1.2515,1.3782,1.5649,1.6146,1.6565,1.688,1.7011,1.6717,1.6024,1.6282,1.6473,1.6591,1.6066,1.5259,1.416,1.3444,1.2275,1.0923,1.3153,1.4478,1.4624,1.6775,1.8295,1.9087,1.9116,1.9116,1.9101,1.9064,1.8912,1.8567,1.8823,1.8995,1.9086,1.8839,1.8913,1.9278,0.0,0.0,0.0,0.0,0.0,0.0,0.0,0.0,0.0,0.0,0.0,0.0,0.0,0.0,0.0,1.7411,0.0,1.8699,1.763,0.0,0.0,0.0,1.773,2.0633,2.0103,1.9667,2.0153,0.0,0.0,2.1894,0.0,2.2817,2.3806,2.3565,2.2493,2.0346,2.1834,2.2583,2.0372,1.9718,1.9216,1.9376,1.9491,2.0052,2.0913,2.2045,2.2759,2.3043,2.38,2.4674,2.4881,2.5032,2.5016,2.5016,2.465,2.4531,2.4484,2.4531,2.4666,2.5032,2.5373,2.5699,1.3704,1.2625,1.3586,1.3804,1.3457,1.3395,1.3518,1.3768,1.3759,1.3948,1.4395,1.593,1.6257,1.5722,1.6567,1.6386,1.5428,1.5608,1.608,1.6777,1.6928,1.7239,1.7691,1.7747,1.7529,1.7071,1.7165,1.8184,1.9818,1.7856,1.6094,1.4686,1.4594,1.3584,1.1665,1.1642,1.2948,1.5553,1.5725,1.6886,1.9014,1.9116,1.9116,1.9101,1.8784,1.8745,1.895,1.9225,1.9545,1.9943,1.9646,1.9458,1.9501,2.1323,0.0,0.0,0.0,0.0,0.0,0.0,0.0,0.0,0.0,1.6463,1.4719,0.0,1.9443,0.0,2.0606,2.2165,2.2101,2.2377,0.0,0.0,2.1015,2.1313,2.2872,2.3428,2.3232,2.2247,2.4086,2.5768,2.6635,2.5576,2.5313,2.6721,2.4603,2.2454,2.1713,2.3154,2.3721,2.2135,2.2458,2.3185,2.304,2.3627,2.3401,2.2161,2.304,2.3753,2.3193,2.3707,2.4283,2.4372,2.4531,2.4579,2.4364,2.4221,2.4182,2.4198,2.4388,2.469,2.5032,2.5381,2.5731,1.5186,1.4646,1.6143,1.6549,1.6195,1.5858,1.5655,1.5573,1.5574,1.5799,1.618,1.6649,1.7579,1.8711,1.7487,1.6927,1.691,1.6846,1.7107,1.757,1.7878,1.8127,1.836,1.836,1.8253,1.8019,1.8073,1.9243,2.1312,2.0678,1.9313,1.7337,1.741,1.6529,1.4668,1.2921,1.3149,1.536,1.5894,1.7327,1.9733,2.001,1.9596,1.8658,1.8444,1.7914,1.7015,1.7459,1.7711,1.7758,1.8562,1.8863,1.8547,2.1599,1.9801,0.0,0.0,0.0,0.0,0.0,0.0,0.0,0.0,0.0,0.0,0.0,2.0662,1.9362,2.2855,2.4382,2.2382,2.3046,2.3715,2.4041,2.4081,2.4773,2.6516,2.6608,2.6354,2.6002,2.6461,2.736,2.853,2.7734,2.751,2.8831,2.7136,2.5472,2.4981,2.5493,2.5634,2.5117,2.4839,2.4763,2.4685,2.4966,2.495,2.4061,2.4595,2.496,2.4089,2.4878,2.531,2.4448,2.4671,2.487,2.4204,2.392,2.3832,2.3856,2.3983,2.4237,2.4563,2.4921,2.5238,1.6565,1.6903,1.807,1.8679,1.8851,1.8316,1.8042,1.7961,1.797,1.7994,1.8033,1.7869,1.8516,1.9583,1.7046,1.6385,1.7321,1.7371,1.7684,1.8264,1.8831,1.9102,1.9074,1.8966,1.8895,1.8877,1.8859,1.9903,2.1872,2.3446,2.2865,2.0367,2.021,1.9451,1.785,1.5355,1.4365,1.4953,1.6628,1.8449,2.0462,2.0444,1.9464,1.7638,1.7578,1.6562,1.4435,1.508,1.5225,1.476,1.6746,1.7894,1.7716,1.9789,1.9654,0.0,1.5235,0.0,0.0,0.0,0.0,0.0,0.0,0.0,0.0,2.0864,2.0486,2.0569,2.4531,2.5595,2.2094,2.2796,2.4283,2.638,2.6971,2.808,3.0161,2.9398,2.8905,2.9491,2.9164,2.895,2.9123,2.904,2.9303,2.9788,2.9585,2.8916,2.8483,2.7865,2.7817,2.8497,2.6989,2.6002,2.5463,2.5491,2.5663,2.5703,2.6154,2.6265,2.5112,2.6284,2.6804,2.5053,2.5292,2.5549,2.4613,2.4219,2.3926,2.4032,2.4163,2.4055,2.4061,2.4301,2.4499,1.617,1.5916,1.72,1.7985,1.8436,1.923,1.9292,1.8857,1.8866,1.9247,1.988,1.9796,1.948,1.9037,1.9233,1.8678,1.7646,1.885,1.9435,1.947,1.9594,1.998,2.0513,1.987,1.9433,1.922,1.9202,2.022,2.2148,2.3512,2.2669,1.9709,1.9326,1.8413,1.6926,0.0,0.0,0.0,1.7081,1.8206,1.9051,1.6799,1.5334,1.4939,1.4622,0.0,1.4278,1.5081,1.5492,1.5329,1.5903,0.0,0.0,0.0,0.0,0.0,0.0,0.0,0.0,0.0,0.0,0.0,2.1892,2.1508,2.1726,2.1777,2.1906,2.2228,2.5914,2.7765,2.6498,2.7997,2.9411,3.0283,3.0406,3.0815,3.1748,3.1088,3.009,2.8558,2.9533,3.0181,2.9884,2.9819,2.9754,2.929,2.9394,2.9479,2.9343,2.9323,2.9205,2.8528,2.8751,2.87,2.7132,2.8112,2.7976,2.6286,2.6492,2.6861,2.5982,2.6399,2.6939,2.6038,2.643,2.6641,2.602,2.5997,2.575,2.5943,2.5842,2.5412,2.4015,2.3912,2.4142,1.5987,0.0,1.7276,1.7976,0.0,1.9313,1.9572,1.9456,1.9668,2.0025,2.0484,2.0455,2.014,1.9629,1.959,1.9366,1.9008,1.9386,1.9928,2.0584,2.0584,2.0999,2.1718,2.1242,2.0488,1.9522,1.9507,2.0545,2.2546,2.4054,2.3898,2.2135,2.1924,2.1313,2.0331,2.0084,1.9412,1.8353,1.8991,2.0,2.1299,2.004,1.8617,1.7187,0.0,0.0,0.0,0.0,0.0,0.0,0.0,0.0,0.0,0.0,0.0,2.0874,2.2738,2.3713,2.3381,2.4088,2.5131,2.6542,2.6246,2.4854,2.2255,2.4209,2.5679,2.5834,2.7979,2.9163,2.8832,3.0275,3.1516,3.2079,3.2134,3.2265,3.2373,3.1454,3.0325,2.9577,3.0065,3.0858,3.1906,3.1355,3.0683,2.9858,2.9708,2.9658,2.929,2.9344,2.9277,2.8746,2.9568,3.0041,2.9314,2.9745,2.9978,2.8194,2.8238,2.8065,2.6645,2.7094,2.741,2.6296,2.6556,2.7065,2.6396,2.6353,2.6481,2.6481,2.6481,2.6209,2.5138,2.4775,2.4639,1.5634,1.6627,1.7248,1.7872,1.8493,1.8929,1.9326,1.9716,0.0,0.0,0.0,2.0546,2.0541,2.0419,1.9492,1.948,2.0122,1.9593,2.0031,2.1215,2.122,2.1705,2.2518,2.2369,2.1621,2.043,2.0311,2.1341,2.3343,2.4758,2.5228,2.4883,2.4804,2.4564,2.4155,2.3865,2.2981,2.1502,2.0948,2.1579,2.3351,2.3306,2.2048,1.952,1.9747,1.9077,1.7306,1.7467,1.7839,1.8251,1.7856,1.8372,1.9874,2.0003,2.0323,2.1118,2.3758,2.5581,2.6097,2.7022,2.8412,3.0402,3.0254,2.8222,2.3739,2.6914,2.9091,2.9091,2.9549,2.9806,2.9735,3.0949,3.197,3.2622,3.2804,3.2879,3.2791,3.1649,3.0788,3.0758,3.0913,3.1699,3.372,3.3101,3.1974,3.1167,3.0732,3.0203,2.9518,2.947,2.9546,2.9945,3.0625,3.0886,3.0824,3.0951,3.0776,3.0039,3.0033,2.9536,2.8043,2.8225,2.7975,2.6313,2.6956,2.7243,2.6569,2.6767,2.6798,2.6924,2.698,2.7037,2.6948,2.6381,2.5775,1.4491,1.5403,1.582,1.6629,1.7612,1.8132,1.8692,1.9236,1.9877,2.021,2.0331,2.0357,2.0375,2.0414,2.0232,1.9883,1.9429,1.9953,2.0341,0.0,2.0541,2.1335,2.2695,2.2047,2.2192,2.2967,2.2626,2.3347,2.4925,2.5399,2.5351,2.5005,2.4858,2.4644,2.4392,2.4759,2.4751,2.428,2.1437,2.0263,2.0869,1.9007,1.7703,1.7082,1.7796,1.797,1.7652,1.8255,1.8542,1.8618,1.9093,2.05,2.2914,2.1993,2.2981,2.6626,2.6584,2.7412,2.9827,2.942,2.945,3.0394,3.1023,3.0413,2.8395,2.8728,2.9091,2.9107,2.9265,2.9166,2.9154,3.035,3.1399,3.2027,3.2588,3.2922,3.2892,3.2611,3.2135,3.1526,3.2617,3.3312,3.3667,3.4054,3.3736,3.2595,3.2096,3.1906,3.1378,3.0871,3.1169,3.2154,3.2649,3.2388,3.1769,3.1466,3.1192,3.0274,3.05,3.0364,2.9138,2.9332,2.9351,2.8256,2.8307,2.8379,2.8188,2.8228,2.834,2.8279,2.8522,2.8735,2.8652,2.8123,2.7413,1.3663,1.4383,1.5006,1.5738,1.6561,1.755,1.8298,1.8828,1.9151,1.9509,1.9884,2.0031,2.0133,2.0231,2.0239,2.0074,1.9823,2.0232,2.0878,2.1698,2.1306,2.2213,2.4054,2.3368,2.356,2.4618,2.4397,2.4708,2.5498,2.5602,2.5492,2.526,2.5031,2.4839,2.4752,2.4862,2.4874,2.4764,2.3602,2.3088,2.319,2.2189,2.1342,2.0784,2.152,2.1863,2.1721,2.247,2.3,2.3232,2.3636,2.4394,2.5558,2.5033,2.5579,2.7573,2.7622,2.8169,2.9668,3.0323,3.0845,3.1184,3.1268,3.139,3.1408,2.9951,2.9289,2.981,2.9881,2.998,3.0289,3.1198,3.194,3.2374,3.2751,3.2958,3.3044,3.2829,3.265,3.2567,3.3279,3.4001,3.4302,3.4991,3.505,3.3912,3.3336,3.289,3.2704,3.2404,3.2319,3.2692,3.2726,3.2644,3.2438,3.2438,3.1977,3.108,3.109,3.0868,3.0066,3.0023,2.9925,2.958,2.9661,2.9729,2.9751,2.998,2.9916,2.9511,2.954,2.9611,2.9071,2.8757,2.8256,1.2881,1.3517,1.4164,1.4902,1.5682,1.693,1.774,1.8156,1.82,1.8538,1.9059,1.9541,1.9821,1.9937,2.0024,2.0139,2.0289,2.0554,2.1363,2.2462,2.2166,2.3105,2.4952,2.4414,2.4608,2.5464,2.5461,2.552,2.565,2.5616,2.5552,2.549,2.5225,2.5072,2.5015,2.4883,2.4756,2.4764,2.5234,2.5451,2.529,2.5358,2.5095,2.4499,2.5285,2.5729,2.5565,2.6321,2.6947,2.7299,2.7417,2.7452,2.7407,2.7313,2.7299,2.7351,2.7816,2.8316,2.8765,3.0472,3.1541,3.1558,3.1534,3.1922,3.2647,3.1349,3.0293,3.0584,3.0723,3.0916,3.1196,3.1803,3.2373,3.2575,3.2755,3.2967,3.3259,3.2956,3.2929,3.3498,3.4116,3.4756,3.5455,3.6191,3.6415,3.573,3.472,3.4124,3.4141,3.3988,3.3518,3.3145,3.2735,3.2752,3.3193,3.3119,3.2805,3.2043,3.2003,3.156,3.0847,3.0543,3.0362,3.0273,3.04,3.0421,3.0674,3.0821,3.0767,3.0123,3.0149,3.0035,2.961,2.9379,2.9065,1.2054,1.2696,1.2985,1.3931,1.5257,1.6076,1.66,1.6912,1.7068,1.7359,1.7838,1.8863,1.9372,1.9519,1.9848,2.0028,2.0223,2.1082,2.1591,2.1869,2.246,2.3314,2.4239,2.4152,2.4553,2.5351,2.5455,2.5522,2.5605,2.5566,2.5527,2.5493,2.5402,2.5327,2.5165,2.5122,2.4998,2.4809,2.485,2.4657,2.4296,2.4722,2.4846,2.4617,2.5982,2.6757,2.6712,2.7531,2.7958,2.8002,2.802,2.7908,2.7701,2.7469,2.733,2.7299,2.7368,2.7678,2.8454,2.9903,3.08,3.0886,3.1935,3.238,3.2076,3.2921,3.2747,3.1495,3.1372,3.1465,3.0734,3.1255,3.1785,3.1946,3.2331,3.2813,3.351,3.3194,3.3323,3.4528,3.5234,3.621,3.6636,3.7736,3.8443,3.7866,3.6958,3.6322,3.6182,3.5429,3.4777,3.4484,3.401,3.3584,3.3605,3.3501,3.3303,3.3135,3.3056,3.266,3.2003,3.1677,3.1347,3.1388,3.0554,3.0738,3.0647,3.0308,3.0456,3.0468,3.0512,3.0714,3.0931,3.0555,2.9703,1.1303,1.1788,1.2175,1.3137,1.4339,1.4873,1.546,1.6107,1.6211,1.6645,1.7238,1.7893,1.8503,1.9103,1.936,1.9826,2.0524,2.1031,2.1797,2.2615,2.2602,2.3247,2.4475,2.3984,2.4273,2.5234,2.542,2.5517,2.5629,2.6058,2.6328,2.6403,2.6753,2.6942,2.6885,2.6785,2.6687,2.663,2.6553,2.6435,2.6143,2.53,2.5039,2.5504,2.6486,2.7257,2.7653,2.8352,2.8651,2.8488,2.8337,2.8218,2.813,2.7908,2.763,2.7345,2.7582,2.8035,2.8606,2.9669,3.0178,3.0024,3.0989,3.1386,3.1024,3.2024,3.2307,3.1798,3.2462,3.2647,3.1516,3.1919,3.2391,3.2547,3.2813,3.3328,3.4206,3.4133,3.4185,3.4578,3.5366,3.6257,3.6854,3.7817,3.852,3.8722,3.8398,3.8101,3.7767,3.7006,3.6399,3.5982,3.5377,3.4654,3.3998,3.3641,3.3714,3.406,3.4098,3.3806,3.3952,3.3946,3.3862,3.3305,3.2807,3.25,3.2834,3.214,3.1801,3.1395,3.051,3.0537,3.0651,3.0646,3.0359,1.0653,1.1176,1.1697,1.2508,1.3459,1.3703,1.4277,1.5051,1.5184,1.5689,1.6496,1.6763,1.7417,1.835,1.8967,1.9762,2.052,2.1142,2.2036,2.312,2.2776,2.3347,2.4506,2.3945,2.4055,2.4851,2.5098,2.5272,2.5524,2.6403,2.6841,2.6991,2.7693,2.8115,2.8106,2.8029,2.7981,2.7939,2.7844,2.7808,2.7556,2.6397,2.5907,2.6398,2.7172,2.7796,2.8228,2.8989,2.9286,2.9031,2.8835,2.8737,2.8625,2.8449,2.8075,2.763,2.7926,2.8297,2.8594,2.9369,2.9702,2.953,3.0176,3.0559,3.063,3.1268,3.1738,3.176,3.2778,3.2904,3.2403,3.2593,3.3041,3.3444,3.3539,3.3897,3.4745,3.4798,3.4675,3.4864,3.5471,3.6114,3.6949,3.7881,3.8774,3.9193,3.9339,3.9332,3.8875,3.8325,3.7847,3.7318,3.6722,3.5764,3.4482,3.4085,3.4252,3.4344,3.4526,3.4672,3.5101,3.5128,3.5304,3.4146,3.4413,3.4571,3.4293,3.3927,3.3458,3.2575,3.1865,3.1347,3.1389,3.1164,3.1031,1.0018,1.0974,1.1421,1.1987,1.2678,1.271,1.3082,1.3664,1.3756,1.4296,1.5184,1.5534,1.6138,1.7215,1.8866,1.9733,2.0079,2.1588,2.241,2.2702,2.3269,2.3691,2.384,2.3803,2.3989,2.4404,2.4467,2.4771,2.5329,2.628,2.6753,2.6888,2.7798,2.8201,2.8312,2.8359,2.8196,2.8279,2.8257,2.8139,2.8073,2.7939,2.7692,2.7548,2.8112,2.8531,2.8713,2.9421,2.9848,2.9829,2.9685,2.9511,2.9269,2.8997,2.8609,2.8192,2.829,2.8326,2.829,2.8895,2.9312,2.9372,2.9935,3.0477,3.0574,3.122,3.1672,3.1596,3.2036,3.2364,3.2772,3.2855,3.3197,3.383,3.4019,3.4398,3.5029,3.4789,3.5044,3.5702,3.5562,3.5841,3.7153,3.8722,3.925,3.9568,3.9776,3.9918,3.9868,3.9441,3.8962,3.8476,3.7857,3.6951,3.5549,3.4922,3.4611,3.4766,3.4971,3.4699,3.4316,3.4184,3.4651,3.4896,3.4966,3.5169,3.5426,3.5305,3.4828,3.4332,3.4011,3.359,3.2661,3.2052,3.1821,0.9787,1.0419,1.0942,1.1317,1.1569,1.1655,1.2013,1.2519,1.2659,1.3331,1.4406,1.5173,1.6136,1.7288,1.8849,1.9731,2.0107,2.1383,2.2331,2.2926,2.3376,2.3648,2.3792,2.3728,2.3908,2.4229,2.4207,2.4505,2.5271,2.6564,2.7368,2.7807,2.9004,2.9706,2.9761,2.9822,2.9847,2.9818,2.9826,2.9815,2.9749,2.9799,2.9693,2.9551,2.9218,2.9321,2.9863,3.0162,3.0269,3.0286,3.0105,2.9958,2.9791,2.9439,2.9198,2.9126,2.9092,2.8911,2.8688,2.8742,2.8757,2.8629,2.9251,2.9536,2.9402,3.0221,3.1435,3.2567,3.2977,3.3261,3.3371,3.3186,3.3007,3.3356,3.4036,3.4623,3.4809,3.5074,3.5584,3.5818,3.4638,3.4054,3.6266,3.7215,3.8018,3.9173,3.9867,4.0311,4.0506,4.0353,4.0051,3.9767,3.9126,3.8318,3.7478,3.6163,3.554,3.5745,3.5945,3.5955,3.5712,3.5833,3.6216,3.6208,3.6079,3.5967,3.63,3.6029,3.5722,3.54,3.5169,3.4855,3.405,3.342,3.3006,0.9719,1.01,1.0472,1.0735,1.0799,1.0855,1.1093,1.1494,1.1801,1.2481,1.3523,1.4751,1.5931,1.711,1.8573,1.9388,1.9811,2.1008,2.2005,2.2667,2.2947,2.3159,2.3323,2.3271,2.3432,2.3821,2.3947,2.4273,2.5006,2.667,2.7627,2.7902,2.9641,3.055,3.0583,3.0708,3.076,3.0762,3.0799,3.0774,3.0793,3.0786,3.0801,3.0701,3.0131,3.0048,3.0638,3.0624,3.0608,3.0568,3.042,3.0269,3.0112,2.9893,2.9758,2.9758,2.9658,2.9476,2.92,2.9001,2.8837,2.8634,2.9057,2.9105,2.8681,2.9431,3.0686,3.1924,3.2816,3.3058,3.2949,3.2468,3.2579,3.3698,3.4725,3.5294,3.5558,3.6035,3.6274,3.6029,3.4556,3.4364,3.5863,3.6753,3.7697,3.8924,3.99,4.0701,4.0907,4.1153,4.1161,4.1115,4.0426,3.9851,3.9256,3.8251,3.6783,3.6737,3.6743,3.6929,3.6806,3.7089,3.7296,3.7344,3.7375,3.7232,3.7034,3.6696,3.6425,3.6094,3.5949,3.5736,3.5251,3.4772,3.4345,0.9707,1.0067,1.0115,1.0271,1.0436,1.0465,1.0428,1.0617,1.1215,1.1844,1.2574,1.4142,1.5452,1.644,1.8091,1.8823,1.9186,2.059,2.1483,2.1761,2.2073,2.2332,2.2508,2.2561,2.2703,2.3049,2.3602,2.4026,2.4431,2.6382,2.7456,2.7841,2.9443,3.0395,3.0502,3.0601,3.067,3.0701,3.074,3.0778,3.078,3.076,3.0775,3.0793,3.0702,3.0663,3.0769,3.0784,3.0782,3.0777,3.0657,3.0477,3.0298,3.0346,3.029,2.9999,2.9965,2.987,2.9706,2.9606,2.9514,2.9456,2.9551,2.9491,2.933,2.92,2.9337,2.9973,3.0741,3.1421,3.1393,3.1119,3.2099,3.5402,3.5793,3.615,3.6934,3.7327,3.7166,3.6364,3.5382,3.5523,3.6399,3.7145,3.798,3.8643,3.9768,4.081,4.1035,4.1466,4.1996,4.2038,4.156,4.0937,4.0735,4.0418,3.8838,3.7642,3.76,3.7561,3.7076,3.7075,3.7419,3.7519,3.7764,3.7665,3.7929,3.7688,3.7587,3.7295,3.7078,3.6674,3.6042,3.5655,3.548,0.9411,0.9668,1.0032,1.0173,1.0239,1.0403,1.0445,1.0438,1.0965,1.1482,1.2256,1.3864,1.5593,1.7142,1.8176,1.853,1.8745,1.9843,2.0682,2.1306,2.1639,2.2005,2.232,2.2508,2.2607,2.2865,2.3486,2.3886,2.4357,2.6005,2.7092,2.7646,2.915,3.0126,3.0314,3.0442,3.0521,3.0559,3.0587,3.0592,3.0611,3.0594,3.0589,3.0585,3.0589,3.0589,3.0589,3.0723,3.08,3.078,3.0757,3.0693,3.0586,3.0554,3.0524,3.0383,3.0183,3.0054,2.9999,2.9886,2.9775,2.971,2.9676,2.9677,2.9626,2.927,2.9518,3.0238,3.0445,3.0495,3.1436,3.1626,3.2276,3.3929,3.4673,3.5512,3.6443,3.6649,3.6331,3.5783,3.5792,3.6109,3.6251,3.6738,3.7093,3.8238,3.9265,4.0077,4.0943,4.1523,4.2078,4.2454,4.2136,4.1926,4.174,4.1533,4.0666,3.9344,3.8882,3.8405,3.7796,3.7445,3.7686,3.7895,3.8095,3.831,3.8586,3.8587,3.84,3.8368,3.8084,3.7539,3.6752,3.6517,3.6503,0.904,0.9315,0.9746,0.9895,0.9841,1.0132,1.0198,1.0189,1.0713,1.1231,1.1955,1.3531,1.512,1.6566,1.7272,1.7679,1.792,1.875,1.9549,2.0338,2.1038,2.1529,2.2034,2.2326,2.25,2.2686,2.3064,2.3428,2.385,2.5305,2.6283,2.6815,2.8156,2.9155,2.9595,2.9813,3.0037,3.0356,3.046,3.046,3.047,3.0477,3.0482,3.0502,3.0482,3.0482,3.051,3.0611,3.0685,3.0693,3.0708,3.0723,3.0721,3.0669,3.0653,3.062,3.0466,3.0298,3.0286,3.0198,3.0094,2.9966,2.9956,2.998,2.9946,2.9626,3.002,3.0502,3.029,3.0203,3.1017,3.1128,3.1613,3.2718,3.4199,3.5506,3.6683,3.714,3.7213,3.7076,3.7302,3.7408,3.7252,3.6856,3.6887,3.8235,3.897,3.9669,4.0745,4.1599,4.2184,4.2703,4.274,4.2663,4.2675,4.2501,4.2284,4.1297,4.0357,3.9613,3.8912,3.848,3.844,3.8568,3.8779,3.8948,3.9198,3.8928,3.8743,3.888,3.8999,3.8738,3.825,3.7919,3.7767,0.8653,0.904,0.9413,0.946,0.9368,0.9676,0.9763,0.9729,1.0552,1.1072,1.1639,1.3103,1.4103,1.4744,1.591,1.6524,1.6747,1.7626,1.8288,1.8941,1.9878,2.0797,2.1444,2.1899,2.226,2.2456,2.2401,2.2708,2.3394,2.4548,2.5159,2.5595,2.6763,2.7657,2.8395,2.8769,2.9372,2.9982,3.0257,3.0364,3.0359,3.0424,3.044,3.0432,3.0451,3.0451,3.0451,3.0468,3.0494,3.0506,3.0599,3.0679,3.0739,3.074,3.073,3.0757,3.0661,3.0585,3.058,3.0515,3.0447,3.0376,3.0365,3.0392,3.0321,3.0215,3.0123,3.0233,3.0166,3.0157,3.0102,3.0026,3.0731,3.2353,3.4508,3.6625,3.8846,3.8823,3.8674,3.9081,3.9421,3.9389,3.8924,3.8369,3.838,3.8867,3.9275,3.9802,4.0587,4.1481,4.2333,4.2662,4.2713,4.2717,4.2506,4.2685,4.2505,4.2206,4.1421,4.0902,4.0114,3.9645,3.9106,3.9267,3.9436,3.961,3.961,3.9439,3.9431,3.9631,3.9741,3.9902,3.9586,3.9011,3.8752,0.8298,0.9001,0.9008,0.9117,0.924,0.9636,0.9786,0.9826,1.0656,1.1096,1.1576,1.2648,1.3501,1.4054,1.5038,1.5716,1.6164,1.6941,1.7572,1.8064,1.875,1.9939,2.1039,2.1645,2.1945,2.2096,2.2116,2.2297,2.2764,2.3799,2.4538,2.5063,2.5892,2.6746,2.7416,2.8145,2.8707,2.9053,2.9813,3.0169,3.0174,3.0196,3.0203,3.0216,3.026,3.0285,3.0273,3.0292,3.0351,3.0513,3.0607,3.0672,3.0654,3.0715,3.0742,3.072,3.0676,3.0671,3.0665,3.0657,3.0599,3.0565,3.0523,3.0525,3.0479,3.0443,3.0381,3.0348,3.0389,3.037,3.0283,3.0183,3.1239,3.3422,3.5211,3.6957,3.8268,3.9008,3.9357,3.9508,3.981,3.9785,3.9382,3.8839,3.8643,3.9208,3.9477,3.9733,4.0528,4.0997,4.1669,4.2025,4.2155,4.2211,4.2321,4.2582,4.2682,4.2695,4.2359,4.2172,4.1402,4.081,4.0201,3.9848,3.9993,4.0172,4.0163,4.0038,4.02,4.0308,4.0163,4.0053,3.9868,3.9505,3.9446,0.8139,0.8738,0.8745,0.8896,0.9106,0.9361,0.9517,0.9718,1.0285,1.0761,1.1167,1.19,1.2618,1.3226,1.3867,1.447,1.5016,1.5978,1.6689,1.7203,1.808,1.9332,2.0583,2.1341,2.1746,2.1869,2.1876,2.2101,2.2456,2.3083,2.3603,2.4005,2.4621,2.5332,2.611,2.6786,2.7827,2.8721,2.9328,2.9542,2.9869,3.0034,3.0094,3.0109,3.0157,3.0171,3.0204,3.0204,3.0292,3.0424,3.0488,3.0506,3.0567,3.0604,3.0634,3.0618,3.0618,3.0626,3.066,3.0662,3.0644,3.0634,3.0625,3.0607,3.0589,3.0581,3.0574,3.0508,3.0542,3.0529,3.0471,3.044,3.1487,3.3299,3.4971,3.6425,3.7889,3.9155,3.9551,3.9635,3.987,4.0157,3.9724,3.9028,3.9063,3.9399,3.9369,3.981,4.0359,4.0623,4.0928,4.1361,4.1731,4.1879,4.2125,4.2389,4.2441,4.2463,4.2783,4.2686,4.23,4.1687,4.134,4.0844,4.0756,4.0731,4.0794,4.0883,4.0823,4.0762,4.0462,4.0398,4.0324,4.0083,4.0084,0.8127,0.8421,0.8521,0.8738,0.8956,0.9008,0.9159,0.9413,0.9718,1.0131,1.0608,1.1065,1.171,1.2215,1.2774,1.3112,1.3647,1.4994,1.584,1.6617,1.7626,1.8864,1.9919,2.0854,2.1311,2.1556,2.1645,2.1878,2.2136,2.2309,2.2546,2.297,2.3247,2.3794,2.482,2.5269,2.6689,2.8222,2.8576,2.8817,2.9343,2.9725,2.9969,3.0019,3.0113,3.0142,3.0171,3.0185,3.0247,3.0364,3.0256,3.0325,3.0442,3.0432,3.0466,3.0517,3.0521,3.0542,3.057,3.0587,3.0612,3.0643,3.0683,3.0701,3.0694,3.07,3.0656,3.0602,3.0675,3.0643,3.0544,3.0522,3.1382,3.2889,3.3897,3.5298,3.736,3.9157,3.9825,3.93,3.9799,4.0137,3.9853,3.9566,3.9392,3.989,3.9814,4.0004,4.0368,4.0634,4.0802,4.0946,4.1306,4.1625,4.1914,4.2232,4.2171,4.2164,4.2667,4.2807,4.2649,4.2276,4.2253,4.2044,4.1603,4.1614,4.1812,4.1764,4.1545,4.1442,4.1278,4.1276,4.121,4.0723,4.055,0.814,0.858,0.8474,0.8586,0.8857,0.8962,0.9008,0.9113,0.9614,0.9873,1.0182,1.0804,1.1267,1.1578,1.2116,1.2608,1.316,1.4365,1.5543,1.6854,1.7462,1.812,1.8991,1.9929,2.0556,2.0861,2.1134,2.1368,2.1568,2.1866,2.2164,2.2591,2.2789,2.3289,2.3947,2.4711,2.5417,2.635,2.734,2.8107,2.8576,2.9289,2.9715,2.9786,2.9972,3.0098,3.0128,3.0142,3.0171,3.0221,3.0273,3.0294,3.034,3.0414,3.0453,3.0462,3.0482,3.0509,3.0513,3.0517,3.0559,3.0614,3.0618,3.0682,3.0758,3.0732,3.0696,3.0694,3.0722,3.0723,3.0637,3.0648,3.1448,3.2697,3.3444,3.4291,3.6086,3.7633,3.8311,3.8684,3.953,4.0362,3.9605,3.9959,4.0056,4.0342,4.0333,4.0328,4.0477,4.0665,4.0718,4.0766,4.0864,4.1147,4.1252,4.1665,4.1939,4.1973,4.2415,4.3006,4.2823,4.277,4.2705,4.2551,4.2297,4.2412,4.2655,4.2328,4.2008,4.2093,4.2056,4.1854,4.1614,4.1258,4.0878,0.7943,0.8043,0.8262,0.8527,0.8692,0.8857,0.8956,0.9061,0.9361,0.9614,0.9865,1.0403,1.082,1.1226,1.1569,1.2058,1.2967,1.4236,1.5478,1.6539,1.7131,1.753,1.7827,1.8741,1.9536,2.023,2.0748,2.1007,2.1214,2.1417,2.1705,2.1977,2.2237,2.2599,2.3122,2.3797,2.4397,2.5245,2.6243,2.7177,2.7904,2.8758,2.9362,2.9495,2.9732,2.9902,2.9918,3.0049,3.0049,3.006,3.0128,3.0209,3.0254,3.0328,3.0364,3.0364,3.0364,3.0398,3.04,3.0413,3.0434,3.0552,3.0567,3.0601,3.0682,3.0701,3.0689,3.0645,3.0642,3.0646,3.0653,3.0658,3.1424,3.2359,3.3117,3.3916,3.5154,3.632,3.7211,3.7538,3.8043,3.8574,3.885,3.9481,3.9779,3.9669,3.9811,3.9881,4.052,4.0662,4.0635,4.0636,4.0583,4.062,4.0639,4.1011,4.1628,4.1818,4.2126,4.281,4.3215,4.3154,4.3121,4.3075,4.3122,4.3177,4.3251,4.2903,4.2559,4.2535,4.2441,4.2211,4.1971,4.16,4.1184,0.7348,0.7348,0.8032,0.8425,0.8639,0.8825,0.8978,0.9112,0.9249,0.9528,0.9821,1.0001,1.0685,1.1021,1.1183,1.1799,1.2997,1.4165,1.5355,1.6175,1.6637,1.6921,1.7188,1.7814,1.8636,1.9834,2.0364,2.0663,2.0893,2.1135,2.1308,2.137,2.157,2.2108,2.2512,2.2704,2.3372,2.4472,2.5244,2.6158,2.7205,2.8128,2.8743,2.9321,2.9514,2.968,2.9732,2.9836,2.9905,2.9767,2.9918,3.0049,3.0109,3.0185,3.0204,3.0218,3.0226,3.026,3.0285,3.029,3.0356,3.0462,3.0482,3.0492,3.0535,3.0639,3.0633,3.0642,3.0651,3.0828,3.0778,3.1139,3.1574,3.2393,3.3199,3.3885,3.4687,3.5491,3.6289,3.6718,3.6965,3.7234,3.7864,3.8486,3.876,3.9034,3.919,3.9519,4.016,4.0586,4.0488,4.0668,4.0684,4.0616,4.0615,4.0646,4.1224,4.1511,4.1797,4.2432,4.3233,4.358,4.3624,4.398,4.4065,4.3974,4.3818,4.3572,4.33,4.3069,4.2976,4.2974,4.2577,4.1991,4.1613,0.5928,0.7359,0.7775,0.8312,0.889,0.9062,0.9292,0.9529,0.9584,0.9651,0.9795,1.0468,1.0841,1.1116,1.1308,1.2166,1.333,1.4273,1.4971,1.5784,1.62,1.6392,1.6667,1.7105,1.7787,1.8486,1.9303,1.9984,2.0512,2.0795,2.1007,2.1243,2.1413,2.1816,2.2269,2.2556,2.2782,2.3594,2.4325,2.5189,2.6123,2.7229,2.8301,2.9079,2.9336,2.9436,2.9495,2.9551,2.9551,2.9476,2.9624,2.9712,2.9815,3.0015,3.0157,3.0204,3.0204,3.018,3.0221,3.024,3.0273,3.0321,3.0337,3.0381,3.0462,3.0558,3.0607,3.0849,3.1138,3.1468,3.1516,3.1969,3.2879,3.3635,3.4023,3.4521,3.526,3.5769,3.6016,3.6269,3.6211,3.623,3.6992,3.7639,3.8049,3.8338,3.8533,3.8961,3.9604,4.0006,4.0193,4.0493,4.0858,4.0771,4.0688,4.0688,4.0916,4.11,4.1407,4.1866,4.2684,4.3678,4.413,4.4056,4.424,4.4289,4.4195,4.4042,4.3986,4.3767,4.3781,4.3775,4.3327,4.2832,4.2569,0.544,0.6986,0.7544,0.8294,0.9048,0.9238,0.9431,0.9711,0.9754,0.9855,1.001,1.0457,1.091,1.1209,1.1398,1.2396,1.3578,1.4122,1.4781,1.5545,1.5745,1.5869,1.6188,1.6582,1.7128,1.7666,1.8266,1.9191,2.0162,2.0525,2.0681,2.0829,2.1023,2.1413,2.177,2.1869,2.2252,2.2842,2.3466,2.4216,2.5118,2.6437,2.77,2.847,2.8929,2.9064,2.9111,2.9237,2.9217,2.9175,2.9301,2.936,2.9495,2.975,3.0064,3.0109,3.0138,3.0152,3.0185,3.0204,3.018,3.0095,3.0169,3.0209,3.0228,3.0311,3.0698,3.1475,3.1513,3.1961,3.2278,3.2771,3.3153,3.3585,3.4099,3.4645,3.5113,3.5632,3.5853,3.5942,3.5985,3.6096,3.6347,3.6911,3.7356,3.7641,3.7845,3.8365,3.8986,3.9334,3.9622,4.0262,4.0666,4.0909,4.0836,4.0821,4.0816,4.0927,4.1071,4.1524,4.2005,4.2954,4.3446,4.3605,4.3884,4.4349,4.4279,4.4037,4.4229,4.4438,4.429,4.4157,4.4009,4.3743,4.3446,0.5615,0.6687,0.7526,0.8433,0.9265,0.9414,0.9643,0.984,0.9969,1.0058,1.0168,1.0413,1.0886,1.1435,1.197,1.2764,1.3995,1.4165,1.4806,1.5314,1.5372,1.54,1.5736,1.6057,1.6534,1.7015,1.7446,1.8232,1.9694,2.0102,2.022,2.0361,2.0579,2.0812,2.1133,2.1334,2.1753,2.2281,2.2823,2.3441,2.462,2.5994,2.7218,2.802,2.842,2.8646,2.87,2.886,2.8902,2.8855,2.8925,2.906,2.9042,2.9359,2.9715,2.9902,3.003,3.0123,3.0157,3.0128,3.0049,2.995,3.0019,3.0003,3.0034,3.0314,3.0997,3.2554,3.2645,3.2536,3.3023,3.3306,3.3474,3.3672,3.4214,3.4629,3.4972,3.5368,3.5762,3.5852,3.5846,3.5973,3.6177,3.6244,3.6698,3.6836,3.7027,3.7476,3.8062,3.8552,3.9,3.9842,4.0425,4.0901,4.1003,4.0972,4.0974,4.1006,4.1057,4.1271,4.1643,4.2131,4.2496,4.2892,4.3786,4.4182,4.4096,4.4246,4.4706,4.4886,4.4688,4.4527,4.4401,4.4318,4.4109,0.6658,0.6716,0.7876,0.8882,0.9589,0.9771,1.0098,1.0443,1.0343,1.0308,1.0315,1.0833,1.117,1.1709,1.2869,1.3468,1.3863,1.4347,1.4882,1.5312,1.5137,1.5131,1.539,1.5691,1.6001,1.6461,1.6986,1.8219,1.9266,1.9494,1.9711,1.9975,2.0115,2.0308,2.0715,2.0959,2.1488,2.2039,2.2497,2.3527,2.5013,2.6068,2.6964,2.7786,2.8192,2.8344,2.8378,2.8533,2.8551,2.8492,2.8492,2.8583,2.8694,2.8707,2.8975,2.936,2.9782,3.0176,3.0045,3.0015,2.9886,2.9803,2.9786,2.9769,2.9921,3.0255,3.1427,3.4598,3.3968,3.3509,3.3903,3.4458,3.4779,3.4806,3.4856,3.5116,3.529,3.525,3.5611,3.5757,3.5764,3.5819,3.5955,3.5965,3.6016,3.6105,3.6267,3.6736,3.7184,3.7729,3.8687,3.9624,4.0189,4.0644,4.1073,4.1072,4.1068,4.1074,4.109,4.1114,4.1356,4.1637,4.163,4.2171,4.3141,4.3865,4.3805,4.4209,4.5064,4.5189,4.4822,4.476,4.48,4.4751,4.4732,0.6668,0.6939,0.7844,0.89,0.9856,1.0056,1.0316,1.0577,1.0552,1.0554,1.0629,1.085,1.1396,1.2237,1.3322,1.4063,1.4551,1.4764,1.5185,1.5367,1.517,1.5063,1.5371,1.544,1.5558,1.5969,1.6473,1.7083,1.8178,1.9065,1.9502,1.9472,1.9762,2.0025,2.0292,2.0447,2.091,2.1535,2.2316,2.3526,2.4919,2.5686,2.6359,2.7584,2.7811,2.7943,2.8017,2.8027,2.8146,2.8136,2.8219,2.8335,2.8422,2.844,2.8533,2.8911,2.9027,2.9301,2.9643,2.9853,2.9769,2.9607,2.9589,2.9803,3.0019,3.0299,3.152,3.4656,3.467,3.4478,3.4552,3.4933,3.5066,3.5176,3.5223,3.5266,3.5321,3.5391,3.5488,3.559,3.5678,3.5741,3.5805,3.588,3.5916,3.5991,3.604,3.6279,3.6679,3.7093,3.8252,3.9627,4.005,4.0418,4.0848,4.1089,4.1091,4.1094,4.1087,4.1114,4.1127,4.1241,4.1308,4.1554,4.2323,4.2914,4.3276,4.3854,4.4432,4.4669,4.4858,4.4899,4.4996,4.5285,4.5206,0.628,0.7057,0.7952,0.8967,0.9977,1.018,1.0364,1.0555,1.0611,1.0681,1.0744,1.0863,1.16,1.2704,1.3476,1.4209,1.5119,1.515,1.5426,1.5487,1.5298,1.5098,1.5248,1.5219,1.5383,1.5603,1.5961,1.643,1.7099,1.8003,1.8764,1.8974,1.9295,1.9654,1.9884,2.01,2.0548,2.118,2.179,2.2975,2.43,2.4567,2.5562,2.6558,2.72,2.7402,2.7595,2.773,2.7836,2.7893,2.8053,2.8164,2.8219,2.8246,2.8335,2.854,2.8565,2.8688,2.9111,2.9398,2.9476,2.9434,2.9576,2.9983,3.015,3.0297,3.1439,3.451,3.4888,3.4962,3.5111,3.5092,3.511,3.511,3.5127,3.5176,3.5223,3.5266,3.535,3.5463,3.5568,3.5631,3.5718,3.5788,3.5866,3.5908,3.5942,3.5949,3.6302,3.6737,3.7883,3.9325,4.0203,4.0501,4.0832,4.1101,4.1108,4.1099,4.1112,4.1113,4.1131,4.1126,4.1177,4.1468,4.1777,4.1913,4.2247,4.2983,4.3702,4.411,4.4531,4.494,4.519,4.5495,4.5629,0.5539,0.7131,0.8431,0.9364,0.997,1.0053,1.0225,1.0521,1.0534,1.0604,1.0681,1.0996,1.1794,1.2834,1.3545,1.4213,1.4805,1.5186,1.5431,1.5502,1.5363,1.5126,1.5126,1.5167,1.5242,1.512,1.5504,1.5816,1.6132,1.6951,1.7827,1.8535,1.8907,1.9213,1.9596,1.9995,2.0361,2.0878,2.1274,2.1944,2.2934,2.3435,2.4255,2.5641,2.6247,2.6606,2.7334,2.7491,2.7642,2.7672,2.7806,2.794,2.7996,2.8154,2.8273,2.8282,2.83,2.8388,2.8639,2.9038,2.9107,2.9311,2.9699,3.0194,3.0374,3.0207,3.1636,3.4088,3.4794,3.4983,3.5057,3.5092,3.5075,3.5056,3.5038,3.5056,3.5089,3.5089,3.5187,3.5336,3.5425,3.5469,3.553,3.5601,3.5755,3.5813,3.5844,3.586,3.6317,3.6813,3.7747,3.8954,4.0187,4.0746,4.0986,4.11,4.1105,4.1101,4.1099,4.1105,4.111,4.1113,4.1111,4.1168,4.1401,4.1294,4.1459,4.2563,4.341,4.3791,4.415,4.4408,4.4957,4.5407,4.5602,0.5197,0.6343,0.8044,0.9106,0.9643,0.9669,0.9884,1.0151,1.0287,1.0401,1.0624,1.1351,1.2151,1.3009,1.3974,1.4697,1.5294,1.5581,1.5699,1.5593,1.5337,1.5091,1.5009,1.486,1.4584,1.4799,1.5142,1.5369,1.5468,1.6114,1.6815,1.7599,1.8433,1.9087,1.9545,1.9854,2.0204,2.0447,2.0828,2.144,2.2135,2.2638,2.3407,2.4845,2.5213,2.5831,2.6605,2.6824,2.7132,2.74,2.7496,2.763,2.7806,2.8042,2.8126,2.8109,2.8126,2.8209,2.8388,2.8827,2.9209,2.9226,2.9635,3.0243,3.073,3.0691,3.2075,3.3761,3.4831,3.4945,3.4964,3.4983,3.4964,3.4964,3.4964,3.5001,3.5001,3.5001,3.5019,3.5168,3.5216,3.5243,3.5306,3.5368,3.5562,3.5721,3.5745,3.583,3.6211,3.6756,3.7627,3.8498,3.968,4.0648,4.0928,4.1033,4.1095,4.1096,4.109,4.1101,4.1111,4.1107,4.1112,4.1113,4.1113,4.1152,4.158,4.2498,4.2973,4.3031,4.3337,4.3708,4.4385,4.525,4.5602,0.5054,0.6098,0.7274,0.827,0.9011,0.929,0.9564,0.9807,1.0033,1.0281,1.0681,1.1531,1.2397,1.3252,1.4094,1.4893,1.5381,1.57,1.5884,1.5776,1.5532,1.5349,1.5164,1.4946,1.4715,1.4741,1.4753,1.4903,1.4983,1.5377,1.612,1.704,1.8052,1.8717,1.925,1.9581,1.9818,1.998,2.027,2.0738,2.141,2.1899,2.2665,2.3981,2.4484,2.5217,2.5924,2.628,2.659,2.6906,2.7135,2.7293,2.7539,2.7795,2.7882,2.794,2.7996,2.8081,2.8291,2.8633,2.9269,2.9698,2.9973,3.0686,3.1309,3.1673,3.2944,3.4233,3.4812,3.4908,3.4908,3.4927,3.4927,3.4927,3.4927,3.4927,3.4927,3.4945,3.4927,3.4963,3.5018,3.5069,3.5133,3.5205,3.538,3.5521,3.5582,3.5611,3.5795,3.6425,3.7288,3.8171,3.9131,4.0032,4.0785,4.0898,4.0991,4.1032,4.1039,4.1106,4.1105,4.1111,4.1099,4.1101,4.1103,4.1105,4.1422,4.1952,4.205,4.2017,4.2643,4.3485,4.4448,4.5317,4.5743,0.5282,0.6483,0.6418,0.7079,0.8147,0.8891,0.9311,0.9506,0.994,1.0281,1.073,1.149,1.2381,1.3295,1.393,1.4601,1.5119,1.5459,1.573,1.5766,1.5725,1.5751,1.5579,1.5269,1.4747,1.4665,1.4504,1.4466,1.4627,1.4835,1.5513,1.6494,1.749,1.8316,1.8784,1.9026,1.9213,1.9413,1.9596,1.995,2.0369,2.0965,2.1866,2.281,2.3642,2.4365,2.5151,2.573,2.6071,2.6402,2.6708,2.6939,2.7324,2.739,2.7513,2.7672,2.7701,2.773,2.7789,2.8201,2.8999,3.0053,3.0268,3.1031,3.2505,3.3158,3.3305,3.4279,3.4651,3.4831,3.4889,3.4889,3.487,3.4889,3.4889,3.4889,3.4889,3.4908,3.4908,3.4908,3.4908,3.4945,3.5,3.5066,3.522,3.5328,3.5374,3.5456,3.5528,3.6337,3.7293,3.7881,3.8767,3.9663,4.0431,4.0752,4.0897,4.0935,4.0976,4.1039,4.1089,4.1115,4.1109,4.1113,4.1101,4.1108,4.1116,4.1203,4.1364,4.1678,4.2676,4.357,4.4557,4.5203,4.547,0.4768,0.531,0.6718,0.7159,0.7083,0.8196,0.8811,0.9112,0.9768,1.0281,1.0822,1.1849,1.2437,1.2914,1.3663,1.439,1.4735,1.4836,1.5069,1.57,1.5672,1.5513,1.5396,1.5101,1.4683,1.4369,1.4137,1.4046,1.4197,1.4312,1.4957,1.5985,1.7173,1.8094,1.8616,1.8898,1.8988,1.913,1.9228,1.9413,1.9632,2.0083,2.0704,2.167,2.2461,2.3405,2.4356,2.5013,2.5545,2.5928,2.6193,2.6691,2.694,2.7007,2.7345,2.7465,2.7465,2.7526,2.7659,2.7975,2.8479,2.949,3.0362,3.0874,3.1595,3.2697,3.3302,3.3876,3.4371,3.4588,3.4689,3.4708,3.4728,3.481,3.483,3.485,3.487,3.4889,3.4908,3.4908,3.4908,3.4908,3.4945,3.4963,3.5081,3.5162,3.522,3.5243,3.5289,3.6473,3.7526,3.7814,3.8466,3.9348,4.0055,4.0409,4.0718,4.0819,4.0897,4.0968,4.1025,4.1046,4.1058,4.1039,4.1081,4.1115,4.1109,4.1113,4.11,4.1515,4.2307,4.2828,4.3379,4.4118,4.4755,0.4519,0.4959,0.6758,0.7133,0.6756,0.783,0.8533,0.8957,0.9636,1.0127,1.0609,1.1774,1.2163,1.2262,1.3084,1.3929,1.4213,1.4384,1.4893,1.5575,1.5538,1.5598,1.5461,1.5036,1.4873,1.4469,1.3947,1.3776,1.4121,1.3931,1.4654,1.594,1.7021,1.7786,1.8297,1.8514,1.8745,1.8874,1.9026,1.9087,1.9411,1.99,2.0502,2.1222,2.1984,2.2909,2.3625,2.4351,2.5005,2.5373,2.5835,2.6383,2.6453,2.6825,2.7186,2.7218,2.7247,2.7341,2.7478,2.7539,2.8202,2.9299,2.996,3.0658,3.123,3.2339,3.2991,3.3541,3.4037,3.4321,3.4476,3.4495,3.4561,3.4647,3.4728,3.4751,3.4811,3.4831,3.485,3.485,3.487,3.4889,3.4851,3.4908,3.4963,3.5018,3.5053,3.5092,3.5151,3.6264,3.719,3.7389,3.7881,3.8735,3.9508,4.014,4.0436,4.068,4.0787,4.0869,4.0878,4.0888,4.0935,4.098,4.0984,4.1006,4.1091,4.1117,4.1097,4.1187,4.1544,4.1983,4.2234,4.3061,4.4042,0.4515,0.5395,0.6391,0.6885,0.7139,0.7842,0.8486,0.9043,0.9489,0.9833,1.0174,1.1095,1.133,1.1331,1.2229,1.2941,1.3327,1.3785,1.4563,1.5303,1.5458,1.5688,1.5843,1.5653,1.5254,1.4737,1.4216,1.382,1.4221,1.4132,1.4789,1.59,1.6809,1.7398,1.7786,1.8192,1.8428,1.8687,1.8836,1.8912,1.9194,2.0142,2.0611,2.13,2.2162,2.2954,2.3564,2.3983,2.4389,2.4792,2.5243,2.5672,2.6087,2.6674,2.6842,2.6959,2.7023,2.7184,2.7264,2.7296,2.7902,2.8966,2.9937,3.0988,3.1886,3.2296,3.2535,3.3037,3.3532,3.3943,3.425,3.4321,3.4367,3.4454,3.4539,3.4604,3.4689,3.4749,3.4769,3.4771,3.4772,3.4772,3.4674,3.4733,3.4753,3.4812,3.4908,3.521,3.5344,3.5704,3.6443,3.6462,3.7089,3.8004,3.8782,3.9514,4.013,4.0405,4.059,4.0694,4.0706,4.0761,4.0807,4.0839,4.0859,4.0917,4.1007,4.1064,4.1078,4.1195,4.1309,4.1451,4.1831,4.2639,4.345,0.4411,0.4688,0.6178,0.6668,0.6647,0.7735,0.8425,0.8843,0.9121,0.9367,0.9702,1.058,1.0683,1.0482,1.1115,1.1702,1.2143,1.2555,1.3473,1.4214,1.505,1.542,1.5686,1.5706,1.5519,1.5083,1.4455,1.3961,1.4262,1.4297,1.4631,1.5461,1.6534,1.6954,1.7286,1.7818,1.8181,1.8472,1.8666,1.8864,1.9176,1.9987,2.044,2.1082,2.2028,2.2814,2.3314,2.3978,2.444,2.4808,2.5577,2.6066,2.5937,2.6382,2.664,2.6775,2.6925,2.7072,2.7089,2.7107,2.7586,2.8562,2.9428,3.0956,3.189,3.23,3.2161,3.2603,3.3001,3.3411,3.3742,3.3891,3.4018,3.416,3.425,3.4321,3.439,3.439,3.4435,3.4502,3.4505,3.4442,3.4379,3.4445,3.4508,3.4593,3.4788,3.5095,3.5495,3.5837,3.6179,3.6236,3.7014,3.8174,3.8232,3.8784,3.9524,4.0106,4.0323,4.053,4.0568,4.0629,4.0681,4.0725,4.073,4.0828,4.0926,4.0971,4.0971,4.1071,4.1175,4.1247,4.15,4.2206,4.2588,0.4301,0.4522,0.595,0.6652,0.7025,0.7735,0.8213,0.8465,0.886,0.9141,0.9398,1.0036,1.0123,0.9889,1.0236,1.0729,1.1273,1.1797,1.2655,1.3907,1.4378,1.5167,1.5533,1.5659,1.5624,1.5229,1.4932,1.4649,1.4749,1.4898,1.5178,1.5285,1.6244,1.6493,1.6835,1.7544,1.8156,1.8426,1.8643,1.8969,1.944,2.0043,2.0481,2.0905,2.1902,2.261,2.3251,2.4117,2.4374,2.4639,2.5422,2.5701,2.5605,2.5937,2.6452,2.6607,2.6775,2.6909,2.6959,2.7007,2.7572,2.8271,2.8973,3.0127,3.1428,3.2162,3.2109,3.2266,3.2553,3.2858,3.3136,3.34,3.3625,3.3839,3.3917,3.3968,3.3993,3.3993,3.4043,3.4117,3.4093,3.4043,3.4049,3.4147,3.4265,3.4394,3.4542,3.4781,3.532,3.5893,3.6348,3.6671,3.7564,3.8571,3.8458,3.8497,3.9318,4.0005,4.0157,4.0321,4.0403,4.0469,4.0469,4.0545,4.0615,4.0706,4.0796,4.0809,4.0829,4.0943,4.1038,4.1123,4.1208,4.1487,4.1649,0.4242,0.4574,0.5664,0.6756,0.7735,0.7794,0.7854,0.7985,0.8642,0.8935,0.9036,0.9422,0.9455,0.9315,0.9596,0.9911,1.0435,1.0917,1.1797,1.3543,1.3817,1.4403,1.5003,1.5736,1.5409,1.5366,1.544,1.541,1.5584,1.5415,1.5063,1.5224,1.6241,1.6551,1.6259,1.758,1.8267,1.8442,1.8872,1.9293,2.0046,2.0807,2.1581,2.1757,2.238,2.3024,2.3522,2.3824,2.3925,2.4302,2.4735,2.5153,2.5362,2.568,2.6189,2.6435,2.6572,2.6725,2.6809,2.6876,2.7743,2.8304,2.8629,2.9653,3.0934,3.1394,3.1254,3.2004,3.2419,3.2651,3.2939,3.3154,3.3372,3.3486,3.357,3.3625,3.3652,3.3597,3.3496,3.3505,3.3393,3.3364,3.3505,3.3606,3.3828,3.4087,3.4316,3.4487,3.5224,3.592,3.6287,3.6799,3.7581,3.834,3.8721,3.8874,3.9444,3.9924,4.0059,4.0138,4.0215,4.0252,4.0252,4.0341,4.0422,4.0545,4.0629,4.0636,4.0718,4.0839,4.0926,4.098,4.1062,4.1181,4.1208,0.4356,0.4353,0.5171,0.6204,0.7246,0.73,0.7521,0.7907,0.823,0.8388,0.8441,0.8708,0.8944,0.8937,0.9038,0.9302,0.9618,1.0093,1.0752,1.1687,1.2472,1.3234,1.3716,1.4563,1.4716,1.4951,1.5329,1.6038,1.597,1.5413,1.4873,1.516,1.6031,1.6231,1.5742,1.7255,1.8215,1.8552,1.8919,1.9483,2.0175,2.0757,2.1344,2.1721,2.2271,2.2875,2.3421,2.3852,2.4271,2.4815,2.5307,2.5513,2.5584,2.5881,2.6115,2.6258,2.6465,2.6637,2.6842,2.7063,2.7774,2.8571,2.9098,2.9892,3.0398,3.0211,3.0612,3.1603,3.2283,3.2537,3.2702,3.2908,3.3124,3.3184,3.3196,3.3273,3.3302,3.3154,3.297,3.2876,3.2749,3.2795,3.2934,3.313,3.3382,3.3634,3.3873,3.4315,3.5261,3.5988,3.6017,3.65,3.7181,3.7845,3.8509,3.9098,3.9612,3.9859,3.9996,4.0036,4.0036,4.0098,4.0158,4.0196,4.0272,4.0375,4.0438,4.0469,4.0554,4.0694,4.0807,4.0868,4.0926,4.1038,4.1084,0.4408,0.4408,0.5007,0.5987,0.6972,0.7133,0.7408,0.7842,0.8008,0.8068,0.8115,0.8421,0.8633,0.8745,0.8752,0.8858,0.9078,0.937,1.0214,1.0867,1.1365,1.2132,1.2833,1.3444,1.3839,1.4183,1.5213,1.5854,1.6028,1.5326,1.479,1.5102,1.5769,1.585,1.5475,1.6861,1.8059,1.8668,1.8878,1.9508,2.0261,2.0983,2.1481,2.1861,2.2235,2.2799,2.3187,2.3666,2.4063,2.4599,2.502,2.5476,2.5605,2.5791,2.6098,2.6458,2.6733,2.6909,2.72,2.7542,2.7967,2.8814,2.9374,3.0116,3.074,3.067,3.0765,3.164,3.2144,3.2419,3.2453,3.2634,3.3032,3.3232,3.3019,3.2925,3.283,3.2636,3.2636,3.2702,3.247,3.2197,3.2385,3.2586,3.2844,3.334,3.3595,3.3835,3.485,3.5858,3.5932,3.633,3.7096,3.8123,3.9172,3.9475,3.9608,3.9819,3.9933,3.9954,3.9996,4.0017,4.0077,4.0118,4.0157,4.0196,4.0252,4.0306,4.0389,4.0511,4.0642,4.0738,4.0807,4.0869,4.0917,0.4463,0.457,0.5007,0.5882,0.6864,0.6977,0.73,0.7848,0.7901,0.7901,0.7949,0.8368,0.8521,0.8633,0.8745,0.8752,0.8871,0.914,0.9847,1.0329,1.0806,1.1123,1.1691,1.2401,1.2976,1.381,1.4814,1.5553,1.6023,1.529,1.4901,1.5029,1.511,1.5182,1.5487,1.6228,1.7313,1.808,1.8665,1.959,2.0513,2.141,2.1643,2.1894,2.2217,2.2586,2.292,2.3319,2.3595,2.4188,2.4759,2.5208,2.5492,2.5621,2.6135,2.6526,2.7268,2.7547,2.7843,2.8165,2.8741,2.9353,2.9693,3.0169,3.0774,3.1015,3.1117,3.1355,3.186,3.2248,3.2283,3.2351,3.2781,3.3184,3.2925,3.2636,3.247,3.2318,3.242,3.2521,3.2144,3.1819,3.1929,3.2144,3.2457,3.293,3.3306,3.3587,3.4095,3.5023,3.5579,3.6332,3.7261,3.837,3.9486,3.9712,3.9633,3.9754,3.987,3.9914,3.9954,3.9975,4.0015,4.0057,4.0117,4.0098,4.0118,4.0158,4.027,4.0356,4.0485,4.0588,4.0642,4.0706,4.075,0.4463,0.4519,0.4625,0.5336,0.6317,0.6426,0.6972,0.7794,0.7901,0.7901,0.7955,0.8115,0.8321,0.848,0.8699,0.8752,0.8705,0.8918,0.8991,0.9351,0.9897,1.0002,1.0447,1.151,1.246,1.3396,1.435,1.5069,1.5599,1.533,1.5178,1.5229,1.5392,1.5367,1.5189,1.5961,1.6761,1.7498,1.8431,1.9361,2.0407,2.1033,2.1264,2.1506,2.1793,2.1983,2.2296,2.277,2.3406,2.409,2.4735,2.5146,2.5349,2.5468,2.5979,2.6735,2.7477,2.7905,2.8194,2.8555,2.9087,2.9254,2.9649,3.0168,3.062,3.0855,3.0935,3.0952,3.1449,3.1967,3.2074,3.202,3.2317,3.2898,3.2973,3.2656,3.2378,3.2384,3.2454,3.2162,3.1711,3.1654,3.1783,3.1965,3.2073,3.2475,3.2717,3.3069,3.3679,3.4465,3.5191,3.6024,3.7006,3.8173,3.9085,3.9566,3.9614,3.9721,3.9804,3.9848,3.9889,3.9911,3.9951,3.9933,3.9951,3.9954,3.9975,4.0017,4.0099,4.0196,4.0339,4.0454,4.05,4.053,4.0545]},{"header":{"parameterUnit":"m.s-1","parameterCategory":1,"la1":31.0,"la2":29.5877,"lo1":-88.7671,"lo2":-86.6584,"dy":0.0162,"dx":0.0185,"nx":115,"ny":88,"refTime":"2023-03-08T06:00:00:Z","depth":0,"parameterNumber":3,"parameterNumberName":"V-component_of_WINDS"},"data":[0.0,0.0,0.0,0.0,0.0,0.0,0.0,0.0,0.0,0.0,0.0,0.0,0.0,0.0,0.0,0.0,0.0,0.0,0.0,0.0,0.0,0.0,0.0,0.0,0.0,0.0,0.0,0.0,0.0,0.0,0.0,0.0,0.0,0.0,0.0,0.0,0.0,0.0,0.0,0.0,0.0,0.0,0.0,0.0,0.0,0.0,0.0,0.0,0.0,0.0,0.0,0.0,0.0,0.0,0.0,0.0,0.0,0.0,0.0,0.0,0.0,0.0,0.0,0.0,0.0,0.0,0.0,0.0,0.0,0.0,0.0,0.0,0.0,0.0,0.0,0.0,0.0,0.0,0.0,0.0,0.0,0.0,0.0,0.0,0.0,0.0,0.0,0.0,0.0,0.0,0.0,0.0,0.0,0.0,0.0,0.0,0.0,0.0,0.0,0.0,0.0,0.0,0.0,0.0,0.0,0.0,0.0,0.0,0.0,0.0,0.0,0.0,0.0,0.0,0.0,0.0,0.0,0.0,0.0,0.0,0.0,0.0,0.0,0.0,0.0,0.0,0.0,0.0,0.0,0.0,0.0,0.0,0.0,0.0,0.0,0.0,0.0,0.0,0.0,0.0,0.0,0.0,0.0,0.0,0.0,0.0,0.0,0.0,0.0,0.0,0.0,0.0,0.0,0.0,0.0,0.0,0.0,0.0,0.0,0.0,0.0,0.0,0.0,0.0,0.0,0.0,0.0,0.0,0.0,0.0,0.0,0.0,0.0,0.0,0.0,0.0,0.0,0.0,0.0,0.0,0.0,0.0,0.0,0.0,0.0,0.0,0.0,0.0,0.0,0.0,0.0,0.0,0.0,0.0,0.0,0.0,0.0,0.0,0.0,0.0,0.0,0.0,0.0,0.0,0.0,0.0,0.0,0.0,0.0,0.0,0.0,0.0,0.0,0.0,0.0,0.0,0.0,0.0,0.0,0.0,0.0,0.0,0.0,0.0,0.0,0.0,0.0,0.0,0.0,0.0,0.0,0.0,0.0,0.0,0.0,0.0,0.0,0.0,0.0,0.0,0.0,0.0,0.0,0.0,0.0,0.0,0.0,0.0,0.0,0.0,0.0,0.0,0.0,0.0,0.0,0.0,0.0,0.0,0.0,0.0,0.0,0.0,0.0,0.0,0.0,0.0,0.0,0.0,0.0,0.0,0.0,0.0,0.0,0.0,0.0,0.0,0.0,0.0,0.0,0.0,0.0,0.0,0.0,0.0,0.0,0.0,0.0,0.0,0.0,0.0,0.0,0.0,0.0,0.0,0.0,0.0,0.0,0.0,0.0,0.0,0.0,0.0,0.0,0.0,0.0,0.0,0.0,0.0,0.0,0.0,0.0,0.0,0.0,0.0,0.0,0.0,0.0,0.0,0.0,0.0,0.0,0.0,0.0,0.0,0.0,0.0,0.0,0.0,0.0,0.0,0.0,0.0,0.0,0.0,0.0,0.0,0.0,0.0,0.0,0.0,0.0,0.0,0.0,0.0,0.0,0.0,0.0,0.0,0.0,0.0,0.0,0.0,0.0,0.0,0.0,0.0,0.0,0.0,0.0,0.0,0.0,0.0,0.0,0.0,0.0,0.0,0.0,0.0,0.0,0.0,0.0,0.0,0.0,0.0,0.0,0.0,0.0,0.0,0.0,0.0,0.0,0.0,0.0,0.0,0.0,0.0,0.0,0.0,0.0,0.0,0.0,0.0,0.0,0.0,0.0,0.0,0.0,0.0,0.0,0.0,0.0,0.0,0.0,0.0,0.0,0.0,0.0,0.0,0.0,0.0,0.0,0.0,0.0,0.0,0.0,0.0,0.0,0.0,0.0,0.0,0.0,0.0,0.0,0.0,0.0,0.0,0.0,0.0,0.0,0.0,0.0,0.0,0.0,0.0,0.0,0.0,0.0,0.0,0.0,0.0,0.0,0.0,0.0,0.0,0.0,0.0,0.0,0.0,0.0,0.0,0.0,0.0,0.0,0.0,0.0,0.0,0.0,0.0,0.0,0.0,0.0,0.0,0.0,0.0,0.0,0.0,0.0,0.0,0.0,0.0,0.0,0.0,0.0,0.0,0.0,0.0,0.0,0.0,0.0,0.0,0.0,0.0,0.0,0.0,0.0,0.0,0.0,0.0,0.0,0.0,0.0,0.0,0.0,0.0,0.0,0.0,0.0,0.0,0.0,0.0,0.0,0.0,0.0,0.0,0.0,0.0,0.0,0.0,0.0,0.0,0.0,0.0,0.0,0.0,0.0,0.0,0.0,0.0,0.0,0.0,0.0,0.0,0.0,0.0,0.0,0.0,0.0,0.0,0.0,0.0,0.0,0.0,0.0,0.0,0.0,0.0,0.0,0.0,0.0,0.0,0.0,0.0,0.0,0.0,0.0,0.0,0.0,0.0,0.0,0.0,0.0,0.0,0.0,0.0,0.0,0.0,0.0,0.0,0.0,0.0,0.0,0.0,0.0,0.0,0.0,0.0,0.0,0.0,0.0,0.0,0.0,0.0,0.0,0.0,0.0,0.0,0.0,0.0,0.0,0.0,0.0,0.0,0.0,0.0,0.0,0.0,0.0,0.0,0.0,0.0,0.0,0.0,0.0,0.0,0.0,0.0,0.0,0.0,0.0,0.0,0.0,0.0,0.0,0.0,0.0,0.0,0.0,0.0,0.0,0.0,0.0,0.0,0.0,0.0,0.0,0.0,0.0,0.0,0.0,0.0,0.0,0.0,0.0,0.0,0.0,0.0,0.0,0.0,0.0,0.0,0.0,0.0,0.0,0.0,0.0,0.0,0.0,0.0,0.0,0.0,0.0,0.0,0.0,0.0,0.0,0.0,0.0,0.0,0.0,0.0,0.0,0.0,0.0,0.0,0.0,0.0,0.0,0.0,0.0,0.0,0.0,0.0,0.0,0.0,0.0,0.0,0.0,0.0,0.0,0.0,0.0,0.0,0.0,0.0,0.0,0.0,0.0,0.0,0.0,0.0,0.0,0.0,0.0,0.0,0.0,0.0,0.0,0.0,0.0,0.0,0.0,0.0,0.0,0.0,0.0,0.0,0.0,0.0,0.0,0.0,0.0,0.0,0.0,0.0,0.0,0.0,0.0,0.0,0.0,0.0,0.0,0.0,0.0,0.0,0.0,0.0,0.0,0.0,0.0,0.0,0.0,0.0,0.0,0.0,0.0,0.0,0.0,0.0,0.0,0.0,0.0,0.0,0.0,0.0,0.0,0.0,0.0,0.0,0.0,0.0,0.0,0.0,0.0,0.0,0.0,0.0,0.0,0.0,0.0,0.0,0.0,0.0,0.0,0.0,0.0,0.0,0.0,0.0,0.0,0.0,0.0,0.0,0.0,0.0,0.0,0.0,0.0,0.0,0.0,0.0,0.0,0.0,0.0,0.0,0.0,0.0,0.0,0.0,0.0,0.0,0.0,0.0,0.0,0.0,0.0,0.0,0.0,0.0,0.0,0.0,0.0,0.0,0.0,0.0,0.0,0.0,0.0,0.0,0.0,0.0,0.0,0.0,0.0,0.0,0.0,0.0,0.0,0.0,0.0,0.0,0.0,0.0,0.0,0.0,0.0,0.0,0.0,0.0,0.0,0.0,0.0,0.0,0.0,0.0,0.0,0.0,0.0,0.0,0.0,0.0,0.0,0.0,0.0,0.0,0.0,0.0,0.0,0.0,0.0,0.0,0.0,0.0,0.0,0.0,0.0,0.0,0.0,0.0,0.0,0.0,0.0,0.0,0.0,0.0,0.0,0.0,0.0,0.0,0.0,0.0,0.0,0.0,0.0,0.0,0.0,0.0,0.0,0.0,0.0,0.0,0.0,0.0,0.0,0.0,0.0,0.0,0.0,0.0,0.0,0.0,0.0,0.0,0.0,0.0,0.0,0.0,0.0,0.0,0.0,0.0,0.0,0.0,0.0,0.0,0.0,0.0,0.0,0.0,0.0,0.0,0.0,0.0,0.0,0.0,0.0,0.0,0.0,0.0,0.0,0.0,0.0,0.0,0.0,0.0,0.0,0.0,0.0,0.0,0.0,0.0,0.0,0.0,0.0,0.0,0.0,0.0,0.0,0.0,0.0,0.0,0.0,0.0,0.0,0.0,0.0,0.0,0.0,0.0,0.0,0.0,0.0,0.0,0.0,0.0,0.0,0.0,0.0,0.0,0.0,0.0,0.0,0.0,0.0,0.0,0.0,0.0,0.0,0.0,0.0,0.0,0.0,0.0,0.0,0.0,0.0,0.0,3.1095,0.0,0.0,0.0,0.0,0.0,0.0,0.0,0.0,0.0,0.0,0.0,0.0,0.0,0.0,0.0,0.0,0.0,0.0,0.0,0.0,0.0,0.0,0.0,0.0,0.0,0.0,0.0,0.0,0.0,0.0,0.0,0.0,0.0,0.0,0.0,0.0,0.0,0.0,0.0,0.0,0.0,0.0,0.0,0.0,0.0,0.0,0.0,0.0,0.0,0.0,0.0,0.0,0.0,0.0,0.0,0.0,0.0,0.0,0.0,0.0,0.0,0.0,0.0,0.0,0.0,0.0,0.0,0.0,0.0,0.0,0.0,0.0,0.0,0.0,0.0,0.0,0.0,0.0,0.0,0.0,0.0,0.0,0.0,0.0,0.0,0.0,0.0,0.0,0.0,0.0,0.0,0.0,0.0,0.0,0.0,0.0,0.0,0.0,0.0,0.0,0.0,0.0,0.0,0.0,0.0,0.0,0.0,0.0,0.0,0.0,2.4822,2.643,2.5799,2.7196,3.091,0.0,0.0,0.0,0.0,0.0,0.0,0.0,0.0,0.0,0.0,0.0,0.0,0.0,0.0,0.0,0.0,0.0,0.0,0.0,0.0,0.0,0.0,0.0,0.0,0.0,0.0,0.0,0.0,0.0,0.0,0.0,0.0,0.0,0.0,0.0,0.0,0.0,0.0,0.0,0.0,0.0,0.0,0.0,0.0,0.0,0.0,0.0,0.0,0.0,0.0,0.0,0.0,0.0,0.0,0.0,0.0,0.0,0.0,0.0,0.0,0.0,0.0,0.0,0.0,0.0,0.0,0.0,0.0,0.0,0.0,0.0,0.0,0.0,0.0,0.0,0.0,0.0,0.0,0.0,0.0,0.0,0.0,0.0,0.0,0.0,0.0,0.0,0.0,0.0,0.0,0.0,0.0,0.0,0.0,0.0,0.0,0.0,0.0,0.0,0.0,0.0,0.0,0.0,0.0,0.0,0.0,0.0,0.0,0.0,0.0,0.0,0.0,2.5787,2.7079,3.0638,0.0,0.0,0.0,0.0,0.0,0.0,0.0,0.0,0.0,0.0,0.0,0.0,0.0,0.0,0.0,0.0,0.0,0.0,0.0,0.0,0.0,0.0,0.0,0.0,0.0,0.0,0.0,0.0,0.0,0.0,0.0,0.0,0.0,0.0,0.0,0.0,0.0,0.0,0.0,0.0,0.0,0.0,0.0,0.0,0.0,0.0,0.0,0.0,0.0,0.0,0.0,0.0,0.0,0.0,0.0,0.0,0.0,0.0,0.0,0.0,0.0,0.0,0.0,0.0,0.0,0.0,0.0,0.0,0.0,0.0,0.0,0.0,0.0,0.0,0.0,0.0,0.0,0.0,0.0,0.0,0.0,0.0,0.0,0.0,0.0,0.0,0.0,0.0,0.0,0.0,0.0,0.0,0.0,0.0,0.0,0.0,0.0,0.0,0.0,0.0,0.0,0.0,0.0,0.0,0.0,0.0,0.0,0.0,0.0,0.0,2.5699,2.5992,2.8494,0.0,3.146,0.0,0.0,0.0,0.0,0.0,0.0,0.0,0.0,0.0,0.0,0.0,0.0,0.0,0.0,0.0,0.0,0.0,0.0,0.0,0.0,0.0,0.0,0.0,0.0,0.0,0.0,0.0,0.0,0.0,0.0,0.0,0.0,0.0,0.0,0.0,0.0,0.0,0.0,0.0,0.0,0.0,0.0,0.0,0.0,0.0,0.0,0.0,0.0,0.0,0.0,0.0,0.0,0.0,0.0,0.0,0.0,0.0,0.0,0.0,0.0,0.0,0.0,0.0,0.0,0.0,0.0,0.0,0.0,0.0,0.0,0.0,0.0,0.0,0.0,0.0,0.0,0.0,0.0,0.0,0.0,0.0,0.0,0.0,0.0,0.0,0.0,0.0,0.0,0.0,0.0,0.0,0.0,0.0,0.0,0.0,0.0,0.0,0.0,0.0,0.0,0.0,0.0,0.0,0.0,0.0,0.0,0.0,0.0,0.0,0.0,2.5261,2.5415,2.7936,2.9817,0.0,0.0,0.0,0.0,0.0,0.0,0.0,0.0,0.0,0.0,0.0,0.0,0.0,0.0,0.0,0.0,0.0,0.0,0.0,0.0,0.0,0.0,0.0,0.0,0.0,0.0,0.0,0.0,0.0,0.0,0.0,0.0,0.0,0.0,0.0,0.0,0.0,0.0,0.0,0.0,0.0,0.0,0.0,0.0,0.0,0.0,0.0,0.0,0.0,0.0,0.0,0.0,0.0,0.0,0.0,0.0,0.0,0.0,0.0,0.0,0.0,0.0,0.0,0.0,0.0,0.0,0.0,0.0,0.0,0.0,0.0,0.0,0.0,0.0,0.0,0.0,0.0,0.0,0.0,0.0,0.0,0.0,0.0,0.0,0.0,0.0,0.0,0.0,0.0,0.0,0.0,0.0,0.0,0.0,0.0,0.0,0.0,0.0,0.0,0.0,0.0,0.0,0.0,0.0,0.0,0.0,0.0,0.0,0.0,0.0,2.3557,2.5012,2.6011,2.7653,2.9153,3.0462,0.0,0.0,0.0,0.0,0.0,0.0,0.0,0.0,0.0,0.0,0.0,0.0,0.0,0.0,0.0,0.0,0.0,0.0,0.0,0.0,0.0,0.0,0.0,0.0,0.0,0.0,0.0,0.0,0.0,0.0,0.0,0.0,0.0,0.0,0.0,0.0,0.0,0.0,0.0,0.0,0.0,0.0,0.0,0.0,0.0,0.0,0.0,0.0,0.0,0.0,0.0,0.0,0.0,0.0,0.0,0.0,0.0,0.0,0.0,0.0,0.0,0.0,0.0,0.0,0.0,0.0,0.0,0.0,0.0,0.0,0.0,0.0,0.0,0.0,0.0,0.0,0.0,0.0,0.0,0.0,0.0,0.0,0.0,0.0,0.0,0.0,0.0,0.0,0.0,0.0,0.0,0.0,0.0,0.0,0.0,0.0,0.0,0.0,0.0,0.0,0.0,0.0,0.0,0.0,0.0,0.0,0.0,0.0,2.0929,2.2847,2.5312,2.801,2.8452,2.9225,0.0,0.0,0.0,0.0,0.0,0.0,0.0,0.0,0.0,0.0,0.0,0.0,0.0,0.0,0.0,0.0,0.0,0.0,0.0,0.0,0.0,0.0,0.0,0.0,0.0,0.0,0.0,0.0,0.0,0.0,0.0,0.0,0.0,0.0,0.0,0.0,0.0,0.0,0.0,0.0,0.0,0.0,0.0,0.0,0.0,0.0,0.0,0.0,0.0,0.0,0.0,0.0,0.0,0.0,0.0,0.0,0.0,0.0,0.0,0.0,0.0,0.0,0.0,0.0,0.0,0.0,0.0,0.0,0.0,0.0,0.0,0.0,0.0,0.0,0.0,0.0,0.0,0.0,0.0,0.0,0.0,0.0,0.0,0.0,0.0,0.0,0.0,0.0,0.0,0.0,0.0,0.0,0.0,0.0,0.0,0.0,0.0,0.0,0.0,0.0,0.0,0.0,0.0,0.0,0.0,0.0,0.0,0.0,0.0,2.014,2.2057,2.4265,2.6622,2.6904,2.7593,0.0,0.0,0.0,0.0,0.0,0.0,0.0,0.0,0.0,0.0,0.0,0.0,0.0,0.0,0.0,0.0,0.0,0.0,0.0,0.0,0.0,0.0,0.0,0.0,0.0,0.0,0.0,0.0,0.0,0.0,0.0,0.0,0.0,0.0,0.0,0.0,0.0,0.0,0.0,0.0,0.0,0.0,0.0,0.0,0.0,0.0,0.0,0.0,0.0,0.0,0.0,0.0,0.0,0.0,0.0,0.0,0.0,0.0,0.0,0.0,0.0,0.0,0.0,0.0,0.0,0.0,0.0,0.0,0.0,0.0,0.0,0.0,0.0,0.0,0.0,0.0,0.0,0.0,0.0,0.0,0.0,0.0,0.0,0.0,0.0,0.0,0.0,0.0,0.0,0.0,0.0,0.0,0.0,0.0,0.0,0.0,0.0,0.0,0.0,0.0,0.0,0.0,0.0,0.0,0.0,0.0,0.0,0.0,0.0,1.9376,0.0,2.2646,2.4955,2.5471,2.6402,0.0,0.0,0.0,0.0,0.0,0.0,0.0,0.0,0.0,0.0,0.0,0.0,0.0,0.0,0.0,0.0,0.0,0.0,0.0,0.0,0.0,0.0,0.0,0.0,0.0,0.0,0.0,0.0,0.0,0.0,0.0,0.0,0.0,0.0,0.0,0.0,0.0,0.0,0.0,0.0,0.0,0.0,0.0,0.0,0.0,0.0,0.0,0.0,0.0,0.0,0.0,0.0,0.0,0.0,0.0,0.0,0.0,0.0,0.0,0.0,0.0,0.0,0.0,0.0,0.0,0.0,0.0,0.0,0.0,0.0,0.0,0.0,0.0,0.0,0.0,0.0,0.0,0.0,0.0,0.0,0.0,0.0,0.0,0.0,0.0,0.0,0.0,0.0,0.0,0.0,0.0,0.0,0.0,0.0,0.0,0.0,0.0,0.0,0.0,0.0,0.0,0.0,0.0,0.0,0.0,0.0,0.0,0.0,1.8027,1.8696,1.8913,2.0496,2.3399,2.4317,2.5741,0.0,0.0,0.0,0.0,0.0,0.0,0.0,0.0,0.0,0.0,0.0,0.0,0.0,0.0,0.0,0.0,0.0,0.0,0.0,0.0,0.0,0.0,0.0,0.0,0.0,0.0,0.0,0.0,0.0,0.0,0.0,0.0,0.0,0.0,0.0,0.0,0.0,0.0,0.0,0.0,0.0,0.0,0.0,0.0,0.0,0.0,0.0,0.0,0.0,0.0,0.0,0.0,0.0,0.0,0.0,0.0,0.0,0.0,0.0,0.0,0.0,0.0,0.0,0.0,0.0,0.0,0.0,0.0,0.0,0.0,0.0,0.0,0.0,0.0,0.0,0.0,0.0,0.0,0.0,0.0,0.0,0.0,0.0,0.0,0.0,0.0,0.0,0.0,0.0,0.0,0.0,0.0,0.0,0.0,0.0,0.0,0.0,0.0,0.0,0.0,0.0,0.0,0.0,0.0,0.0,0.0,0.0,0.0,0.0,1.9484,1.8071,1.9182,2.2959,2.2023,2.2543,0.0,0.0,0.0,0.0,0.0,0.0,0.0,0.0,0.0,0.0,0.0,0.0,0.0,0.0,0.0,0.0,0.0,0.0,0.0,0.0,0.0,0.0,0.0,0.0,0.0,0.0,0.0,0.0,0.0,0.0,0.0,0.0,0.0,0.0,0.0,0.0,0.0,0.0,0.0,0.0,0.0,0.0,0.0,0.0,0.0,0.0,0.0,0.0,0.0,0.0,0.0,0.0,0.0,0.0,0.0,0.0,0.0,0.0,0.0,0.0,0.0,0.0,0.0,0.0,0.0,0.0,0.0,0.0,0.0,0.0,0.0,0.0,0.0,0.0,0.0,0.0,0.0,0.0,0.0,0.0,0.0,0.0,0.0,0.0,0.0,0.0,0.0,0.0,0.0,0.0,0.0,0.0,0.0,0.0,0.0,0.0,0.0,0.0,0.0,0.0,0.0,0.0,0.0,0.0,0.0,0.0,0.0,0.0,0.0,1.975,1.8018,1.8658,2.2136,2.1451,2.1652,2.287,0.0,0.0,0.0,0.0,0.0,0.0,0.0,0.0,0.0,0.0,0.0,0.0,0.0,0.0,0.0,0.0,0.0,0.0,0.0,0.0,0.0,0.0,0.0,0.0,0.0,0.0,0.0,0.0,0.0,0.0,0.0,0.0,0.0,0.0,0.0,0.0,0.0,0.0,0.0,0.0,0.0,0.0,0.0,0.0,0.0,0.0,0.0,0.0,0.0,0.0,0.0,0.0,0.0,0.0,0.0,0.0,0.0,0.0,0.0,0.0,0.0,0.0,0.0,0.0,0.0,0.0,0.0,0.0,0.0,0.0,0.0,0.0,0.0,0.0,0.0,0.0,0.0,0.0,0.0,0.0,0.0,0.0,0.0,0.0,0.0,0.0,0.0,0.0,0.0,0.0,0.0,0.0,0.0,0.0,0.0,0.0,0.0,0.0,0.0,0.0,0.0,0.0,0.0,0.0,0.0,0.0,0.0,0.0,2.0032,1.8842,1.9146,2.1044,2.2349,2.2586,0.0,0.0,0.0,0.0,0.0,0.0,0.0,0.0,0.0,0.0,0.0,0.0,0.0,0.0,0.0,0.0,0.0,0.0,0.0,0.0,0.0,0.0,0.0,0.0,0.0,0.0,0.0,0.0,0.0,0.0,0.0,0.0,0.0,0.0,0.0,0.0,0.0,0.0,0.0,0.0,0.0,0.0,0.0,0.0,0.0,0.0,0.0,0.0,0.0,0.0,0.0,0.0,0.0,0.0,0.0,0.0,0.0,0.0,0.0,0.0,0.0,0.0,0.0,0.0,0.0,0.0,0.0,0.0,0.0,0.0,0.0,0.0,0.0,0.0,0.0,0.0,0.0,0.0,0.0,0.0,0.0,0.0,0.0,0.0,0.0,0.0,0.0,0.0,0.0,0.0,0.0,0.0,0.0,0.0,0.0,0.0,0.0,0.0,0.0,0.0,0.0,0.0,0.0,0.0,0.0,0.0,0.0,0.0,0.0,2.1601,2.2623,2.3658,2.4709,2.257,2.182,0.0,0.0,0.0,0.0,0.0,0.0,0.0,0.0,0.0,0.0,0.0,0.0,0.0,0.0,0.0,0.0,0.0,0.0,0.0,0.0,0.0,0.0,0.0,0.0,0.0,0.0,0.0,0.0,0.0,0.0,0.0,0.0,0.0,0.0,0.0,0.0,0.0,0.0,0.0,0.0,0.0,0.0,0.0,0.0,0.0,0.0,0.0,0.0,0.0,0.0,0.0,0.0,0.0,0.0,0.0,0.0,0.0,0.0,0.0,0.0,0.0,0.0,0.0,0.0,0.0,0.0,0.0,0.0,0.0,0.0,0.0,0.0,0.0,0.0,0.0,0.0,0.0,0.0,0.0,0.0,0.0,0.0,0.0,0.0,0.0,0.0,0.0,0.0,0.0,0.0,0.0,0.0,0.0,0.0,0.0,0.0,0.0,0.0,0.0,0.0,0.0,0.0,0.0,0.0,0.0,0.0,0.0,0.0,2.0556,2.1358,2.4926,2.7283,2.8263,2.5289,2.3336,0.0,0.0,0.0,0.0,0.0,0.0,0.0,0.0,0.0,0.0,0.0,0.0,0.0,0.0,0.0,0.0,0.0,0.0,0.0,0.0,0.0,0.0,0.0,0.0,0.0,0.0,0.0,0.0,0.0,0.0,0.0,0.0,0.0,0.0,0.0,0.0,0.0,0.0,0.0,0.0,0.0,0.0,0.0,0.0,0.0,0.0,0.0,0.0,0.0,0.0,0.0,0.0,0.0,0.0,0.0,0.0,0.0,0.0,0.0,0.0,0.0,0.0,0.0,0.0,0.0,0.0,0.0,0.0,0.0,0.0,0.0,0.0,0.0,0.0,0.0,0.0,0.0,0.0,0.0,0.0,0.0,0.0,0.0,0.0,0.0,0.0,0.0,0.0,0.0,0.0,0.0,0.0,0.0,0.0,0.0,0.0,0.0,0.0,0.0,0.0,0.0,0.0,0.0,0.0,0.0,0.0,0.0,0.0,2.1614,2.0448,2.6244,2.9871,3.0858,2.8638,2.5796,0.0,0.0,0.0,0.0,0.0,0.0,0.0,0.0,0.0,0.0,0.0,0.0,0.0,0.0,0.0,0.0,0.0,0.0,0.0,0.0,0.0,0.0,0.0,0.0,0.0,0.0,0.0,0.0,0.0,0.0,0.0,0.0,0.0,0.0,0.0,0.0,0.0,0.0,0.0,0.0,0.0,0.0,0.0,0.0,0.0,0.0,0.0,0.0,0.0,0.0,0.0,0.0,0.0,0.0,0.0,0.0,0.0,0.0,0.0,0.0,0.0,0.0,0.0,0.0,0.0,0.0,0.0,0.0,0.0,0.0,0.0,0.0,0.0,0.0,0.0,0.0,0.0,0.0,0.0,0.0,0.0,0.0,0.0,0.0,0.0,0.0,0.0,0.0,0.0,0.0,0.0,0.0,0.0,0.0,0.0,0.0,0.0,0.0,0.0,0.0,0.0,0.0,0.0,0.0,0.0,0.0,0.0,0.0,2.1088,2.2655,2.7256,3.0098,3.0948,2.7023,2.4853,0.0,0.0,0.0,0.0,0.0,0.0,0.0,0.0,0.0,0.0,0.0,0.0,0.0,0.0,0.0,0.0,0.0,0.0,0.0,0.0,0.0,0.0,0.0,0.0,0.0,0.0,0.0,0.0,0.0,0.0,0.0,0.0,0.0,0.0,0.0,0.0,0.0,0.0,0.0,0.0,0.0,0.0,0.0,0.0,0.0,0.0,0.0,0.0,3.425,0.0,0.0,0.0,0.0,0.0,0.0,0.0,0.0,0.0,0.0,0.0,0.0,0.0,0.0,0.0,0.0,0.0,0.0,0.0,0.0,0.0,0.0,0.0,0.0,0.0,0.0,0.0,0.0,0.0,0.0,0.0,0.0,0.0,0.0,0.0,0.0,0.0,0.0,0.0,0.0,0.0,0.0,0.0,0.0,0.0,0.0,0.0,0.0,0.0,0.0,0.0,0.0,0.0,0.0,0.0,0.0,0.0,0.0,0.0,2.0929,2.3236,2.6898,2.935,3.0242,2.6604,2.4785,0.0,0.0,0.0,0.0,0.0,0.0,0.0,0.0,0.0,0.0,0.0,0.0,0.0,0.0,0.0,0.0,0.0,0.0,0.0,0.0,0.0,0.0,0.0,0.0,0.0,0.0,0.0,0.0,0.0,0.0,0.0,0.0,0.0,0.0,0.0,0.0,0.0,0.0,0.0,0.0,0.0,0.0,0.0,0.0,0.0,0.0,0.0,0.0,0.0,0.0,0.0,0.0,0.0,0.0,0.0,0.0,0.0,0.0,0.0,0.0,0.0,0.0,0.0,0.0,0.0,0.0,0.0,0.0,0.0,0.0,0.0,0.0,0.0,0.0,0.0,0.0,0.0,0.0,0.0,0.0,0.0,0.0,0.0,0.0,0.0,0.0,0.0,0.0,0.0,0.0,0.0,0.0,0.0,0.0,0.0,0.0,0.0,0.0,0.0,0.0,0.0,0.0,0.0,0.0,0.0,0.0,0.0,1.8533,2.0864,2.3523,2.6302,2.8276,2.9355,2.6439,2.486,2.4921,0.0,0.0,0.0,0.0,0.0,0.0,0.0,0.0,0.0,0.0,0.0,0.0,0.0,0.0,0.0,0.0,0.0,0.0,0.0,0.0,0.0,0.0,0.0,0.0,0.0,0.0,0.0,0.0,0.0,0.0,0.0,0.0,0.0,0.0,0.0,0.0,0.0,0.0,2.9466,3.079,0.0,0.0,0.0,0.0,0.0,0.0,0.0,0.0,3.4927,0.0,0.0,0.0,0.0,0.0,0.0,0.0,0.0,0.0,0.0,0.0,0.0,0.0,0.0,0.0,0.0,0.0,0.0,0.0,0.0,0.0,0.0,0.0,0.0,0.0,0.0,0.0,0.0,0.0,0.0,0.0,0.0,0.0,0.0,0.0,0.0,0.0,0.0,0.0,0.0,0.0,0.0,0.0,0.0,0.0,0.0,0.0,0.0,0.0,0.0,0.0,0.0,0.0,0.0,0.0,0.0,1.6905,1.8014,2.0657,2.4936,2.6943,2.7897,2.7737,2.5375,2.3816,2.3253,0.0,0.0,0.0,0.0,0.0,0.0,0.0,0.0,0.0,0.0,0.0,0.0,0.0,0.0,0.0,0.0,0.0,0.0,0.0,0.0,0.0,0.0,0.0,0.0,0.0,0.0,0.0,0.0,0.0,0.0,0.0,0.0,0.0,0.0,0.0,0.0,0.0,0.0,0.0,3.2426,3.3762,0.0,0.0,0.0,0.0,0.0,0.0,0.0,0.0,3.6032,0.0,0.0,0.0,0.0,0.0,0.0,0.0,0.0,0.0,0.0,0.0,0.0,0.0,0.0,0.0,0.0,0.0,0.0,0.0,0.0,0.0,0.0,0.0,0.0,0.0,0.0,0.0,0.0,0.0,0.0,0.0,0.0,0.0,0.0,0.0,0.0,0.0,0.0,0.0,0.0,0.0,0.0,0.0,0.0,0.0,0.0,0.0,0.0,0.0,0.0,0.0,0.0,0.0,0.0,0.0,1.7419,1.8083,2.0524,2.5018,2.6134,2.6632,2.6554,2.4829,2.361,0.0,0.0,0.0,0.0,0.0,0.0,0.0,0.0,0.0,0.0,0.0,0.0,0.0,0.0,0.0,0.0,0.0,0.0,0.0,0.0,0.0,0.0,0.0,0.0,0.0,0.0,0.0,0.0,0.0,0.0,0.0,0.0,0.0,0.0,0.0,0.0,0.0,0.0,0.0,0.0,3.2482,3.3698,3.5239,0.0,0.0,0.0,0.0,0.0,0.0,3.5562,3.5556,0.0,0.0,0.0,0.0,0.0,0.0,0.0,0.0,0.0,0.0,0.0,0.0,0.0,0.0,0.0,0.0,0.0,0.0,0.0,0.0,0.0,0.0,0.0,0.0,0.0,0.0,0.0,0.0,0.0,0.0,0.0,0.0,0.0,0.0,0.0,0.0,0.0,0.0,0.0,0.0,0.0,0.0,0.0,0.0,0.0,0.0,0.0,0.0,0.0,0.0,0.0,0.0,0.0,0.0,0.0,1.7573,1.8273,2.0512,2.4344,2.506,2.542,2.554,2.3786,2.2826,0.0,0.0,0.0,0.0,0.0,0.0,0.0,0.0,0.0,0.0,0.0,0.0,0.0,0.0,0.0,0.0,0.0,0.0,0.0,0.0,0.0,0.0,0.0,0.0,0.0,0.0,0.0,0.0,0.0,0.0,0.0,0.0,0.0,0.0,0.0,0.0,0.0,0.0,0.0,0.0,0.0,3.3789,3.5909,3.5604,0.0,0.0,0.0,0.0,3.5372,3.5973,0.0,0.0,0.0,0.0,0.0,0.0,0.0,0.0,0.0,0.0,0.0,0.0,0.0,0.0,0.0,0.0,0.0,0.0,0.0,0.0,0.0,0.0,0.0,0.0,0.0,0.0,0.0,0.0,0.0,0.0,0.0,0.0,0.0,0.0,0.0,0.0,0.0,0.0,0.0,0.0,0.0,0.0,0.0,0.0,0.0,0.0,0.0,0.0,0.0,0.0,0.0,0.0,0.0,0.0,0.0,0.0,1.6047,1.835,2.0668,2.2893,2.4442,2.5077,2.4694,2.1145,2.0092,0.0,0.0,0.0,0.0,0.0,0.0,0.0,0.0,0.0,0.0,0.0,0.0,0.0,0.0,0.0,0.0,0.0,0.0,0.0,0.0,0.0,0.0,0.0,0.0,0.0,0.0,0.0,0.0,0.0,0.0,0.0,0.0,0.0,0.0,0.0,0.0,0.0,0.0,0.0,0.0,0.0,3.5195,3.6838,3.6425,3.5974,0.0,0.0,3.7914,3.8712,4.1089,0.0,0.0,0.0,0.0,0.0,0.0,0.0,0.0,0.0,0.0,0.0,0.0,0.0,0.0,0.0,0.0,0.0,0.0,0.0,0.0,0.0,0.0,0.0,0.0,0.0,0.0,0.0,0.0,0.0,0.0,0.0,0.0,0.0,0.0,0.0,0.0,0.0,0.0,0.0,0.0,0.0,0.0,0.0,0.0,0.0,0.0,0.0,0.0,0.0,0.0,0.0,0.0,0.0,0.0,0.0,1.3573,1.5517,1.7985,2.0202,2.213,2.326,2.3707,2.3525,1.9868,1.9054,0.0,0.0,0.0,0.0,0.0,0.0,0.0,0.0,0.0,0.0,0.0,0.0,0.0,0.0,0.0,0.0,0.0,0.0,0.0,0.0,0.0,0.0,0.0,0.0,0.0,0.0,0.0,0.0,0.0,0.0,0.0,0.0,0.0,0.0,0.0,0.0,0.0,0.0,0.0,0.0,0.0,0.0,3.6871,3.6862,0.0,0.0,0.0,3.8083,3.8074,0.0,0.0,0.0,0.0,0.0,0.0,0.0,0.0,0.0,0.0,0.0,0.0,0.0,0.0,0.0,0.0,0.0,0.0,0.0,0.0,0.0,0.0,0.0,0.0,0.0,0.0,0.0,0.0,0.0,0.0,0.0,0.0,0.0,0.0,0.0,0.0,0.0,0.0,0.0,0.0,0.0,0.0,0.0,0.0,0.0,0.0,0.0,0.0,0.0,0.0,0.0,0.0,0.0,0.0,0.0,0.0,0.0,1.4528,1.7318,1.9677,2.1499,2.2338,2.2723,2.2634,1.9891,0.0,0.0,0.0,0.0,0.0,0.0,0.0,0.0,0.0,0.0,0.0,0.0,0.0,0.0,0.0,0.0,0.0,0.0,0.0,0.0,0.0,0.0,0.0,0.0,0.0,0.0,0.0,1.9515,0.0,0.0,0.0,0.0,0.0,0.0,0.0,0.0,0.0,0.0,0.0,0.0,0.0,0.0,3.5434,3.6729,3.737,3.8107,0.0,0.0,3.8522,3.831,4.0978,4.1821,0.0,0.0,0.0,0.0,0.0,0.0,0.0,0.0,0.0,0.0,0.0,0.0,0.0,0.0,0.0,0.0,0.0,0.0,0.0,0.0,0.0,0.0,0.0,0.0,0.0,0.0,0.0,0.0,0.0,0.0,0.0,0.0,0.0,0.0,0.0,0.0,0.0,0.0,0.0,0.0,0.0,0.0,0.0,0.0,0.0,0.0,0.0,0.0,0.0,0.0,0.0,0.0,0.0,0.0,0.0,1.2472,1.6351,1.9209,2.0844,2.2187,2.282,2.2685,2.1661,2.1027,0.0,0.0,0.0,0.0,0.0,0.0,0.0,0.0,0.0,0.0,0.0,0.0,0.0,0.0,0.0,0.0,0.0,0.0,0.0,0.0,0.0,0.0,0.0,0.0,0.0,0.0,0.0,0.0,0.0,0.0,0.0,0.0,0.0,0.0,0.0,0.0,0.0,0.0,0.0,0.0,0.0,3.5777,3.6586,3.811,3.9932,0.0,0.0,4.0583,4.127,4.4988,4.5684,3.934,0.0,0.0,0.0,0.0,0.0,0.0,0.0,0.0,0.0,0.0,0.0,0.0,0.0,0.0,0.0,0.0,0.0,0.0,0.0,0.0,0.0,0.0,0.0,0.0,0.0,0.0,0.0,0.0,0.0,0.0,0.0,0.0,0.0,0.0,0.0,0.0,0.0,0.0,0.0,0.0,0.0,0.0,0.0,0.0,0.0,0.0,0.0,0.0,0.0,0.0,0.0,0.0,0.0,1.2113,1.1921,1.6028,1.8921,2.0463,2.142,2.1878,2.1836,2.0364,1.9326,0.0,0.0,0.0,0.0,0.0,0.0,0.0,0.0,0.0,0.0,0.0,0.0,0.0,0.0,0.0,0.0,0.0,0.0,0.0,0.0,0.0,0.0,0.0,0.0,0.0,0.0,0.0,0.0,2.3755,2.3765,2.3443,0.0,0.0,0.0,0.0,0.0,0.0,0.0,0.0,0.0,0.0,3.695,3.895,4.0486,0.0,0.0,4.2982,4.2389,4.1887,4.3604,4.3312,3.846,3.851,0.0,0.0,0.0,0.0,0.0,0.0,0.0,0.0,0.0,0.0,0.0,0.0,0.0,0.0,0.0,0.0,0.0,0.0,0.0,0.0,0.0,0.0,0.0,0.0,0.0,0.0,0.0,0.0,0.0,0.0,0.0,0.0,0.0,0.0,0.0,0.0,0.0,0.0,0.0,0.0,0.0,0.0,0.0,0.0,0.0,0.0,0.0,0.0,0.0,0.0,0.0,0.0,1.1906,1.2293,1.5861,1.8548,2.0261,2.0747,2.1086,2.1243,1.9976,1.8966,0.0,0.0,0.0,0.0,0.0,0.0,0.0,0.0,0.0,0.0,0.0,0.0,0.0,0.0,0.0,0.0,0.0,0.0,0.0,0.0,0.0,0.0,0.0,0.0,0.0,0.0,0.0,0.0,2.3591,2.3472,2.3527,0.0,0.0,0.0,0.0,0.0,0.0,0.0,0.0,0.0,0.0,3.8003,3.9483,4.0856,4.199,4.286,4.2354,4.1741,4.125,4.1596,4.0996,3.8364,0.0,0.0,0.0,0.0,0.0,0.0,0.0,0.0,0.0,0.0,0.0,0.0,0.0,0.0,0.0,0.0,0.0,0.0,0.0,0.0,0.0,0.0,0.0,0.0,0.0,0.0,0.0,0.0,0.0,0.0,0.2637,0.0,0.0,0.0,0.0,0.0,0.0,0.0,0.0,0.0,0.0,0.0,0.0,0.0,0.0,0.0,0.0,0.0,0.0,0.0,0.0,0.0,0.0,1.2492,1.3558,1.5909,1.8144,2.0187,2.0299,2.0632,2.1229,2.1243,2.0854,2.0118,0.0,0.0,0.0,0.0,0.0,0.0,0.0,0.0,0.0,0.0,0.0,0.0,0.0,0.0,0.0,0.0,0.0,0.0,0.0,0.0,0.0,0.0,0.0,0.0,0.0,0.0,2.0087,2.129,2.2429,0.0,0.0,0.0,0.0,0.0,0.0,0.0,0.0,0.0,0.0,3.5566,3.8649,3.7468,3.8473,3.9733,4.0474,3.8819,3.7945,3.941,3.9589,3.9586,0.0,0.0,0.0,0.0,0.0,0.0,0.0,0.0,0.0,0.0,0.0,0.0,0.0,0.0,0.0,0.0,0.0,0.0,0.0,0.0,0.0,0.0,0.0,0.0,0.0,0.0,0.0,0.2958,0.2388,0.0,0.0,0.0,0.0,0.0,0.0,0.0,0.0,0.0,0.0,0.0,0.7795,0.8094,0.0,0.0,0.0,0.0,0.0,0.0,0.0,0.0,0.0,0.0,0.0,0.0,1.1643,1.36,1.5888,1.7865,1.9441,1.9808,2.0,2.005,2.063,2.0494,1.9479,0.0,0.0,0.0,0.0,0.0,0.0,0.0,0.0,0.0,0.0,0.0,0.0,0.0,0.0,0.0,0.0,0.0,0.0,0.0,0.0,0.0,0.0,0.0,0.0,0.0,2.1085,0.0,0.0,0.0,0.0,0.0,0.0,0.0,0.0,0.0,0.0,0.0,2.9524,3.138,3.346,3.5169,3.6121,3.7843,3.977,0.0,0.0,0.0,0.0,0.0,0.0,0.0,0.0,0.0,0.0,0.0,0.0,0.0,0.0,4.1993,3.9229,3.9696,4.0845,4.1674,0.0,0.0,0.0,0.0,0.0,0.0,0.0,0.0,0.0,0.0,0.0,0.0,0.0,0.0,0.0,0.0,0.2928,0.0,0.0,0.0,0.0,0.0,0.0,0.0,0.0,0.6558,0.7806,0.893,0.9403,0.9749,0.0,0.9828,0.8886,0.0,0.0,0.0,0.0,0.0,0.0,0.0,0.0,1.1218,1.3052,1.562,1.7648,1.8954,1.9332,1.9442,1.9413,2.001,1.9594,1.8009,1.7454,1.66,0.0,0.0,0.0,0.0,0.0,0.0,0.0,0.0,0.0,0.0,0.0,0.0,0.0,0.0,0.0,0.0,0.0,0.0,0.0,0.0,0.0,0.0,0.0,2.1335,0.0,0.0,0.0,0.0,0.0,0.0,0.0,0.0,0.0,2.691,2.8528,3.0401,3.2334,3.3783,3.4631,3.4566,0.0,0.0,0.0,0.0,0.0,0.0,0.0,3.6749,3.7587,3.8214,3.9583,4.274,4.4354,4.5174,4.5129,0.0,0.0,4.1707,4.216,4.3382,4.4425,4.4384,4.4671,4.6216,4.6539,4.6539,0.0,0.0,0.0,0.0,0.0,0.0,0.0,0.0,0.2906,0.2873,0.0,0.3174,0.0,0.0,0.0,0.0,0.0,0.0,0.0,0.0,0.9271,1.0439,1.0161,0.9992,1.0187,1.0574,0.9902,0.9556,0.9563,0.9043,0.0,0.0,0.0,0.0,0.0,0.0,1.126,1.2197,1.5145,1.7412,1.8817,1.8912,1.9064,1.9391,1.9376,1.8326,1.6138,1.7296,1.7446,1.6427,1.6987,0.0,0.0,0.0,0.0,0.0,0.0,0.0,0.0,0.0,0.0,0.0,0.0,0.0,0.0,0.0,0.0,0.0,0.0,0.0,0.0,2.0323,0.0,0.0,0.0,0.0,0.0,0.0,0.0,0.0,0.0,0.0,2.6269,2.9745,3.2343,3.316,0.0,0.0,0.0,0.0,3.6862,3.3343,3.3432,3.4165,3.4504,3.6969,3.9632,4.1768,0.0,0.0,4.7421,4.6326,4.5492,4.5275,4.7196,4.7868,4.5882,4.4926,4.4826,4.6212,4.5982,4.585,4.7249,4.8147,4.8021,-0.0197,0.0,0.0,0.0,0.0,0.1804,0.2168,0.2449,0.3294,0.3433,0.3101,0.3801,0.0,0.0,0.0,0.0,0.0,0.0,0.6281,0.7417,0.8634,0.9985,1.1468,1.1856,1.1933,1.1819,1.1589,1.158,1.1751,1.1005,1.0007,0.8732,0.0,0.0,0.0,0.0,1.0942,1.3449,1.563,1.7143,1.8133,1.863,1.9064,1.9391,1.9176,1.8847,1.8368,1.8747,1.8616,1.7869,1.9727,0.0,0.0,0.0,0.0,0.0,0.0,0.0,0.0,0.0,0.0,0.0,0.0,0.0,0.0,0.0,0.0,0.0,0.0,0.0,2.1064,2.1867,2.1766,0.0,0.0,0.0,0.0,0.0,0.0,0.0,0.0,0.0,2.6073,2.8395,2.9935,0.0,0.0,3.0523,3.0025,3.2721,3.5526,3.7767,0.0,0.0,0.0,4.1917,4.1729,4.3595,4.6804,4.9119,4.9179,5.0548,5.1615,5.1397,5.1937,5.2151,5.1589,5.039,4.9889,5.0712,5.0753,5.1343,5.3274,5.381,5.3917,-0.0997,-0.0063,0.0489,0.0972,0.1394,0.1957,0.2356,0.2712,0.347,0.3641,0.343,0.4279,0.4454,0.4104,0.4498,0.0,0.0,0.0,0.6583,0.8232,0.8939,1.0177,1.1825,1.2154,1.2268,1.2192,1.2098,1.2225,1.2524,1.1327,1.0397,0.9652,0.0,0.0,0.9161,1.0054,1.1468,1.3531,1.5491,1.684,1.7517,1.7988,1.8305,1.85,1.8319,1.8383,1.8745,1.9104,1.9329,1.9418,2.0953,2.0994,0.0,0.0,0.0,0.0,0.0,0.0,0.0,0.0,0.0,0.0,0.0,1.7615,0.0,0.0,0.0,0.0,1.9742,2.0786,2.1318,2.1683,0.0,0.0,0.0,0.0,0.0,0.0,0.0,2.1245,2.4413,2.6682,2.6694,2.8537,3.0444,3.1867,3.2275,3.2331,3.1881,0.0,3.7317,3.9505,4.0499,4.1966,4.4502,4.4611,4.5053,4.7368,4.9706,5.1383,5.1723,5.3387,5.4668,5.4884,5.4973,5.4955,5.4973,5.3938,5.3207,5.3689,5.3813,5.442,5.6079,5.6633,5.7096,-0.1573,-0.0905,0.0194,0.1067,0.1729,0.2208,0.2704,0.3193,0.3521,0.3596,0.3628,0.4578,0.4537,0.3777,0.4018,0.0,0.5441,0.624,0.7444,0.8989,0.9798,1.0604,1.1439,1.1313,1.1435,1.1803,1.1614,1.175,1.2054,1.0583,1.0244,1.1063,1.0646,1.0073,0.9495,1.1184,1.231,1.2769,1.4907,1.6401,1.7186,1.7212,1.7212,1.7199,1.724,1.7406,1.7774,1.8659,1.9669,2.0737,2.1015,2.1471,2.1982,0.0,0.0,0.0,0.0,0.0,0.0,0.0,0.0,0.0,0.0,0.0,0.0,0.0,0.0,0.0,1.9252,0.0,2.1606,2.0825,0.0,0.0,0.0,2.3003,2.5939,2.5387,2.506,2.5795,0.0,0.0,2.8276,0.0,3.3044,3.631,3.8267,3.8569,3.6331,3.8789,4.0741,3.9554,4.0428,4.1682,4.3518,4.5917,4.871,5.1438,5.2895,5.3293,5.3957,5.4737,5.5419,5.5883,5.6222,5.6186,5.6186,5.5366,5.5098,5.4991,5.5098,5.5401,5.6222,5.6989,5.7721,-0.2788,-0.1943,-0.0861,0.0361,0.1623,0.1645,0.2171,0.2958,0.3177,0.3478,0.3857,0.4605,0.5009,0.5146,0.5263,0.5682,0.639,0.6465,0.7244,0.8502,0.8765,0.9263,1.006,1.0041,1.0069,1.0156,1.0111,1.034,1.0817,1.0361,1.0106,1.0046,0.9937,0.9779,0.9616,0.9856,1.0913,1.2821,1.3912,1.5338,1.712,1.7212,1.7212,1.7199,1.7516,1.7557,1.7365,1.8244,1.9123,1.9943,2.0344,2.0685,2.0912,2.247,0.0,0.0,0.0,0.0,0.0,0.0,0.0,0.0,0.0,1.69,1.5784,0.0,1.9613,0.0,2.0161,2.236,2.4438,2.3892,0.0,0.0,2.4714,2.4845,2.6544,2.8045,2.8561,2.7473,3.028,3.2834,3.4091,3.4406,3.5324,3.7462,3.5798,3.4742,3.5783,3.797,4.0271,4.2071,4.384,4.5749,4.7239,4.8713,5.0183,5.1892,5.2362,5.2729,5.334,5.4522,5.5187,5.4741,5.5098,5.5205,5.4723,5.4402,5.4313,5.4349,5.4777,5.5455,5.6222,5.7007,5.7792,-0.4571,-0.3415,-0.2449,-0.1048,0.0707,0.1772,0.241,0.2676,0.2781,0.2964,0.3255,0.419,0.4875,0.5321,0.5263,0.5418,0.5781,0.5965,0.661,0.7594,0.7913,0.8405,0.9004,0.9004,0.9001,0.9033,0.9011,0.9333,0.9938,0.9863,0.9893,1.001,1.0001,0.9882,0.9617,0.943,1.0135,1.168,1.2928,1.4475,1.6194,1.6717,1.6663,1.6077,1.6175,1.5919,1.5254,1.5928,1.6661,1.7374,1.8643,1.9279,1.9206,2.2367,2.1327,0.0,0.0,0.0,0.0,0.0,0.0,0.0,0.0,0.0,0.0,0.0,2.0216,1.8862,2.1312,2.3138,2.3483,2.3657,2.4451,2.6237,2.628,2.6917,2.8684,3.0075,3.0994,3.1264,3.2531,3.4089,3.6029,3.5981,3.6178,3.7404,3.5848,3.5546,3.7921,3.9824,4.1627,4.3504,4.5275,4.7067,4.8974,4.9532,5.0043,5.1017,5.1564,5.2038,5.2555,5.3352,5.3969,5.3958,5.4135,5.4259,5.4046,5.3724,5.3528,5.3581,5.3867,5.4438,5.5169,5.5972,5.6686,-0.6861,-0.5168,-0.4297,-0.2792,-0.0782,0.1522,0.2415,0.2285,0.2366,0.2329,0.2334,0.3473,0.419,0.4521,0.4448,0.4429,0.4479,0.5104,0.5746,0.6467,0.7134,0.7621,0.7999,0.7953,0.7972,0.7964,0.7957,0.8346,0.9004,0.9118,0.9413,0.9879,1.0022,0.9751,0.9193,0.9181,0.9508,1.0277,1.2136,1.3714,1.4867,1.5546,1.5344,1.422,1.4045,1.3531,1.2659,1.3167,1.3769,1.4378,1.6314,1.7431,1.7639,1.9875,1.9568,0.0,1.396,0.0,0.0,0.0,0.0,0.0,0.0,0.0,0.0,1.9035,1.9611,1.9863,2.2578,2.3556,2.1712,2.2696,2.4496,2.6844,2.7687,2.8951,3.1096,3.1525,3.2528,3.4991,3.4756,3.4808,3.5804,3.6022,3.6186,3.6622,3.6862,3.7684,4.0116,4.1703,4.2834,4.3673,4.4917,4.6192,4.7889,4.845,4.8778,4.9639,5.0241,5.0997,5.1487,5.1865,5.2323,5.3119,5.3027,5.2969,5.3389,5.2839,5.25,5.243,5.2413,5.2785,5.3725,5.4581,5.5027,-0.9909,-0.7507,-0.5839,-0.4318,-0.2961,-0.2021,-0.0421,0.1608,0.1734,0.1853,0.2002,0.2562,0.2565,0.2169,0.3046,0.3504,0.359,0.4395,0.5117,0.5721,0.5851,0.6061,0.632,0.6217,0.6174,0.6199,0.6193,0.6472,0.6983,0.7526,0.753,0.7125,0.8005,0.8054,0.736,0.0,0.0,0.0,1.1905,1.2986,1.3652,1.2659,1.2034,1.1777,1.2107,0.0,1.151,1.2655,1.3467,1.3682,1.3947,0.0,0.0,0.0,0.0,0.0,0.0,0.0,0.0,0.0,0.0,0.0,1.7027,1.7417,1.783,1.7952,1.871,2.0638,2.3642,2.5554,2.57,2.6222,2.7426,2.9372,2.975,3.0281,3.1199,3.1774,3.2694,3.3734,3.3381,3.3667,3.5145,3.5379,3.5459,3.6171,3.6789,3.7394,3.7897,3.9628,4.0944,4.1703,4.2826,4.3984,4.5379,4.5652,4.633,4.7666,4.8288,4.8709,4.9383,5.0443,5.0932,5.0828,5.1043,5.1176,5.0793,5.0476,5.0537,5.0372,5.0446,5.0969,5.2696,5.3706,5.4224,-1.1722,0.0,-0.8056,-0.6632,0.0,-0.4726,-0.3275,-0.119,0.0086,0.0743,0.0984,0.1475,0.1497,0.1244,0.2145,0.2679,0.2841,0.3201,0.3829,0.461,0.461,0.4896,0.5415,0.5543,0.549,0.5322,0.5732,0.594,0.5883,0.6445,0.6571,0.6347,0.6913,0.7391,0.7804,0.8319,0.9207,1.0437,1.1809,1.2988,1.3964,1.3773,1.3218,1.243,0.0,0.0,0.0,0.0,0.0,0.0,0.0,0.0,0.0,0.0,0.0,1.5658,1.6219,1.6221,1.5771,1.671,1.7434,1.7651,1.8293,1.8391,1.7703,1.866,1.9793,2.1013,2.3477,2.5129,2.5508,2.6202,2.7156,2.8381,2.8555,2.8672,2.9021,2.9589,3.0193,3.0628,3.1406,3.2376,3.3185,3.3919,3.4528,3.527,3.5879,3.63,3.6822,3.8415,3.9928,4.0863,4.1645,4.2507,4.346,4.3686,4.4236,4.5785,4.6307,4.6709,4.7578,4.8133,4.8447,4.8684,4.9165,4.9333,4.9384,4.9562,4.9804,4.9804,4.9804,5.008,5.1257,5.2235,5.2838,-1.306,-1.1428,-1.0467,-0.9106,-0.7566,-0.6983,-0.5862,-0.4281,0.0,0.0,0.0,0.0179,0.0493,0.0668,0.1235,0.1661,0.1938,0.193,0.2415,0.3265,0.3361,0.3778,0.453,0.4857,0.4892,0.467,0.5395,0.547,0.5068,0.5545,0.594,0.6204,0.6357,0.716,0.8613,0.9703,1.0232,1.0314,1.1315,1.2584,1.3962,1.4634,1.4318,1.3043,1.2947,1.233,1.1185,1.0968,1.1147,1.1627,1.1485,1.1874,1.2968,1.2621,1.2699,1.3453,1.4346,1.5219,1.5914,1.6722,1.7668,1.8905,1.9647,1.9488,1.8215,2.0006,2.1233,2.1233,2.2674,2.3709,2.4079,2.5062,2.6005,2.6535,2.6682,2.6744,2.6791,2.7151,2.76,2.7574,2.9336,3.0745,3.0763,3.1965,3.3255,3.4013,3.4432,3.4898,3.5808,3.7551,3.9388,4.0285,4.0825,4.1362,4.2039,4.2212,4.275,4.3912,4.4317,4.4837,4.5763,4.5834,4.6102,4.7227,4.7403,4.7666,4.8179,4.8538,4.91,4.9076,4.9179,4.9282,4.9375,5.0409,5.1137,-1.4428,-1.3331,-1.2584,-1.1322,-0.9762,-0.8893,-0.7647,-0.6019,-0.346,-0.2035,-0.1555,-0.1468,-0.1202,-0.0802,-0.0309,0.0087,0.0424,0.1046,0.1422,0.0,0.2068,0.2525,0.2988,0.3246,0.3465,0.3689,0.3837,0.3907,0.4059,0.4536,0.51,0.5601,0.614,0.695,0.8043,0.9011,0.9749,1.0181,0.9713,1.0048,1.1214,1.0428,1.0118,1.0365,1.0693,1.0744,1.0554,1.0915,1.1196,1.1297,1.1643,1.2748,1.4668,1.4079,1.5067,1.7875,1.6612,1.6228,1.7745,1.8117,1.8402,1.8992,1.9385,1.994,2.063,2.0968,2.1233,2.1244,2.1458,2.2178,2.3399,2.4467,2.5313,2.5935,2.639,2.666,2.6635,2.6763,2.6726,2.6571,2.7369,2.8451,2.9266,3.0128,3.1322,3.2453,3.2947,3.3185,3.4243,3.6305,3.8319,3.9355,3.9606,3.9996,4.0662,4.0823,4.1205,4.186,4.2563,4.3163,4.4023,4.4527,4.4982,4.5884,4.5967,4.6084,4.6224,4.6291,4.6474,4.6603,4.7003,4.7354,4.745,4.8467,4.9453,-1.5241,-1.4509,-1.369,-1.2687,-1.1489,-1.0031,-0.8728,-0.7464,-0.6223,-0.4909,-0.364,-0.3128,-0.2695,-0.2216,-0.1726,-0.1316,-0.0909,-0.0309,-0.0137,-0.0237,0.0325,0.0776,0.1155,0.1532,0.1854,0.21,0.2564,0.2597,0.2343,0.303,0.3583,0.3944,0.5206,0.6136,0.6632,0.766,0.8263,0.8527,0.9776,1.0705,1.131,1.0822,1.0641,1.0705,1.1024,1.1381,1.1732,1.2073,1.2488,1.3077,1.3237,1.3801,1.4756,1.4453,1.4992,1.6568,1.5867,1.5775,1.6615,1.7243,1.7629,1.7823,1.8418,1.8861,1.9247,2.0489,2.0892,2.0107,1.9966,2.0413,2.1406,2.2151,2.2993,2.3956,2.4234,2.4611,2.5241,2.5648,2.5624,2.5444,2.659,2.7656,2.8151,2.8973,2.9935,3.1074,3.1635,3.2321,3.328,3.4597,3.6052,3.7443,3.8317,3.9077,3.9703,3.9879,4.02,4.0873,4.1258,4.1716,4.2346,4.2877,4.3136,4.3444,4.3767,4.4075,4.4107,4.4447,4.4773,4.5227,4.5488,4.5815,4.6298,4.7158,4.8209,-1.5907,-1.5345,-1.4668,-1.3775,-1.2756,-1.1153,-0.9935,-0.9151,-0.8975,-0.8012,-0.6377,-0.5099,-0.4258,-0.3785,-0.3171,-0.2651,-0.2222,-0.1708,-0.1634,-0.1866,-0.1356,-0.0958,-0.0653,-0.0107,0.0268,0.05,0.1167,0.117,0.084,0.1567,0.2179,0.2623,0.4165,0.5101,0.5374,0.6204,0.6691,0.7101,0.9247,1.0672,1.1194,1.1423,1.1436,1.1424,1.1724,1.2203,1.2677,1.2909,1.3362,1.4136,1.4121,1.4139,1.4267,1.4446,1.4515,1.4543,1.479,1.5056,1.5294,1.6202,1.6771,1.678,1.748,1.7786,1.7726,1.9305,2.0051,1.9019,1.8643,1.8853,1.9588,2.0163,2.0723,2.1663,2.1886,2.2446,2.3397,2.4054,2.4255,2.4004,2.5475,2.6669,2.6717,2.7396,2.8195,2.8934,3.0049,3.1132,3.1977,3.2395,3.3518,3.508,3.6676,3.7676,3.8353,3.8778,3.9095,3.9747,4.0054,4.0578,4.1122,4.1276,4.1409,4.1667,4.2034,4.2452,4.2414,4.2814,4.3333,4.383,4.4073,4.4528,4.5163,4.5894,4.6969,-1.6591,-1.6105,-1.5823,-1.4809,-1.338,-1.2448,-1.1841,-1.1461,-1.1084,-1.0586,-0.9635,-0.743,-0.6108,-0.5551,-0.4674,-0.4029,-0.352,-0.2963,-0.2843,-0.2976,-0.2658,-0.2399,-0.2174,-0.1795,-0.1341,-0.0996,-0.0833,-0.0501,-0.0056,0.0167,0.1003,0.2399,0.3063,0.3898,0.4835,0.5054,0.5542,0.6416,0.6717,0.7597,0.9024,0.9926,1.0547,1.1024,1.1704,1.2123,1.2033,1.2402,1.2594,1.2687,1.2696,1.294,1.3511,1.4148,1.4455,1.4515,1.4552,1.4717,1.5129,1.59,1.6376,1.6422,1.707,1.7398,1.7055,1.7875,1.8433,1.8184,1.7569,1.7802,1.8926,1.953,1.9862,2.0156,2.0498,2.0904,2.1554,2.2179,2.2477,2.2103,2.3766,2.4309,2.402,2.4623,2.5325,2.6146,2.7348,2.8251,2.8652,2.9729,3.0903,3.2439,3.4159,3.539,3.588,3.6721,3.7478,3.7783,3.8703,3.9444,4.0054,4.0363,4.0668,4.0538,4.1292,4.135,4.1417,4.1715,4.1728,4.2129,4.2579,4.3059,4.3767,4.4458,4.5522,-1.7158,-1.6757,-1.6454,-1.5518,-1.4277,-1.3748,-1.3146,-1.2472,-1.2271,-1.1709,-1.0929,-0.9614,-0.8238,-0.6906,-0.6337,-0.5826,-0.5356,-0.4759,-0.4733,-0.5014,-0.4701,-0.4361,-0.4151,-0.4121,-0.3682,-0.2819,-0.2728,-0.2345,-0.168,-0.091,0.0172,0.1499,0.2341,0.301,0.348,0.4182,0.4766,0.5176,0.5463,0.5921,0.6639,0.7494,0.8075,0.8348,0.8862,0.9385,0.9793,1.0389,1.0927,1.1293,1.1665,1.2051,1.2304,1.294,1.37,1.4387,1.3752,1.3673,1.4497,1.5036,1.5543,1.588,1.6477,1.6688,1.6496,1.7027,1.745,1.7445,1.7534,1.7726,1.7831,1.8151,1.8701,1.9363,1.9716,2.0224,2.1478,2.185,2.2094,2.2241,2.2857,2.2987,2.2695,2.3402,2.4304,2.4788,2.5535,2.5942,2.6322,2.7383,2.8438,2.9398,3.0753,3.26,3.4446,3.5605,3.6153,3.6525,3.7049,3.771,3.8208,3.8369,3.8443,3.8824,3.9272,3.9602,3.9478,4.0045,4.0339,4.073,4.1421,4.2031,4.2382,4.2964,4.3762,-1.7729,-1.7543,-1.694,-1.6227,-1.5551,-1.502,-1.4339,-1.3611,-1.3493,-1.2933,-1.1985,-1.1575,-1.0414,-0.8802,-0.8051,-0.7487,-0.7116,-0.6666,-0.6684,-0.7013,-0.6801,-0.6585,-0.6338,-0.6472,-0.6053,-0.5112,-0.4765,-0.4116,-0.319,-0.2078,-0.0879,0.0294,0.1088,0.1658,0.2089,0.2946,0.3374,0.3554,0.4099,0.4466,0.4673,0.5251,0.5862,0.6338,0.6712,0.7189,0.7696,0.8381,0.9023,0.9503,1.014,1.053,1.0774,1.1494,1.2573,1.37,1.2948,1.2747,1.3638,1.4008,1.4487,1.4965,1.5375,1.5655,1.586,1.6451,1.6522,1.6008,1.7063,1.7495,1.7229,1.733,1.794,1.8826,1.8976,1.957,2.0671,2.1116,2.1353,2.168,2.1737,2.1807,2.1548,2.2314,2.3183,2.3433,2.3872,2.4221,2.4766,2.5608,2.6378,2.6989,2.7924,2.9877,3.3009,3.4085,3.4552,3.5255,3.5597,3.6377,3.6507,3.6535,3.6718,3.7428,3.7555,3.7728,3.8086,3.8517,3.9002,3.9692,4.0239,4.0668,4.0907,4.1544,4.1935,-1.8452,-1.8538,-1.7338,-1.7119,-1.7369,-1.6342,-1.559,-1.5109,-1.5078,-1.4485,-1.3493,-1.3209,-1.2495,-1.1394,-0.9821,-0.8837,-0.873,-0.8613,-0.8602,-0.8658,-0.8816,-0.8858,-0.8736,-0.8781,-0.826,-0.7287,-0.6785,-0.5662,-0.4012,-0.3285,-0.2341,-0.1174,-0.091,-0.0308,0.068,0.1052,0.1231,0.1854,0.241,0.2833,0.3261,0.3554,0.4448,0.5667,0.6297,0.6391,0.6563,0.6792,0.7028,0.7024,0.7608,0.8184,0.8809,0.9914,1.1197,1.2258,1.2081,1.2097,1.2522,1.294,1.3204,1.3308,1.3721,1.4131,1.4747,1.5907,1.5705,1.3738,1.5539,1.6758,1.7242,1.7378,1.7651,1.8082,1.8184,1.8386,1.8822,1.9583,1.9726,1.979,2.012,2.0381,2.0068,2.0697,2.12,2.1596,2.239,2.3047,2.3018,2.3816,2.4702,2.5346,2.6262,2.7718,2.9829,3.1444,3.2417,3.3136,3.4216,3.5619,3.5691,3.5709,3.5883,3.6136,3.6366,3.6578,3.6845,3.7204,3.7677,3.813,3.8442,3.8811,3.9621,4.0115,4.0547,-1.9738,-1.919,-1.9144,-1.8834,-1.8335,-1.7862,-1.7077,-1.6095,-1.5985,-1.5403,-1.4596,-1.4399,-1.4214,-1.3875,-1.2954,-1.1681,-1.0356,-1.0199,-1.0059,-0.9969,-0.9862,-0.9614,-0.9252,-0.9467,-0.9058,-0.8283,-0.8041,-0.6796,-0.4798,-0.4445,-0.3846,-0.2616,-0.1838,-0.1102,-0.0519,0.0325,0.0977,0.1237,0.1498,0.1693,0.182,0.1953,0.2337,0.2845,0.3717,0.4121,0.4197,0.4172,0.4389,0.4797,0.5512,0.6163,0.7015,0.865,0.9558,0.9464,0.9875,1.0451,1.1156,1.1759,1.2281,1.2672,1.31,1.3228,1.3477,1.4172,1.4243,1.3241,1.3323,1.4462,1.5917,1.6909,1.755,1.7642,1.7436,1.7357,1.764,1.8065,1.8524,1.9045,1.8807,1.849,1.9283,1.9787,1.9897,1.996,2.0533,2.0651,2.0527,2.1456,2.2775,2.3191,2.433,2.5724,2.6733,2.8895,3.0354,3.1073,3.1941,3.266,3.3012,3.3856,3.4218,3.451,3.4841,3.5654,3.5984,3.6503,3.683,3.7141,3.7386,3.7706,3.8486,3.8957,3.9334,-2.0962,-2.0368,-2.0442,-2.0084,-1.9382,-1.8992,-1.8102,-1.696,-1.7011,-1.6714,-1.6188,-1.5888,-1.5861,-1.5817,-1.5175,-1.4086,-1.256,-1.2129,-1.1824,-1.1612,-1.1316,-1.0922,-1.0568,-1.0728,-1.0372,-0.9444,-0.8954,-0.7712,-0.5946,-0.5669,-0.5058,-0.4108,-0.3115,-0.2404,-0.1938,-0.0938,-0.0268,-0.0067,0.0336,0.0671,0.0672,0.0941,0.1076,0.1139,0.1645,0.2035,0.2277,0.2209,0.2409,0.2876,0.3533,0.4389,0.5581,0.6833,0.7558,0.7558,0.8016,0.8731,0.9488,1.0199,1.071,1.1135,1.1446,1.1538,1.1442,1.2191,1.232,1.1936,1.1944,1.269,1.3901,1.5313,1.651,1.6893,1.6843,1.674,1.6865,1.7091,1.7497,1.7865,1.7229,1.7133,1.7978,1.8425,1.859,1.8566,1.8924,1.8871,1.875,1.9519,2.0747,2.0836,2.2064,2.3008,2.3821,2.5438,2.7844,2.8831,2.9887,3.0307,3.0884,3.1818,3.2564,3.2894,3.3506,3.4417,3.5144,3.5748,3.6108,3.6411,3.6582,3.6844,3.7309,3.7782,3.8144,-2.206,-2.1963,-2.1207,-2.0828,-2.0483,-1.9786,-1.8717,-1.8023,-1.8302,-1.8414,-1.821,-1.77,-1.7388,-1.7248,-1.6218,-1.5517,-1.5193,-1.4351,-1.3752,-1.3532,-1.3132,-1.2764,-1.2412,-1.2314,-1.2008,-1.1242,-0.9776,-0.8508,-0.7469,-0.6884,-0.6276,-0.5601,-0.4993,-0.4339,-0.3678,-0.2947,-0.2616,-0.2214,-0.1141,-0.047,-0.0269,0.0268,0.0604,0.0672,0.0201,0.0201,0.0873,0.1008,0.1075,0.1209,0.1674,0.28,0.4326,0.4671,0.5137,0.6445,0.678,0.7102,0.7683,0.828,0.8672,0.8865,0.8683,0.9087,0.953,1.034,1.0823,1.0614,1.0961,1.1436,1.1737,1.281,1.4291,1.5947,1.603,1.6189,1.6444,1.6619,1.6547,1.6285,1.5753,1.5723,1.6206,1.6928,1.7309,1.7407,1.781,1.8063,1.7842,1.8462,1.8808,1.9047,1.9935,2.0971,2.1318,2.1831,2.4386,2.6603,2.7696,2.8562,2.8967,2.9756,3.0572,3.1066,3.2111,3.3032,3.3853,3.4383,3.4897,3.5237,3.5494,3.5883,3.6517,3.6922,3.7063,-2.2443,-2.2503,-2.2664,-2.2322,-2.171,-2.1329,-2.061,-1.9734,-1.9781,-1.9689,-1.9425,-1.8994,-1.8583,-1.8143,-1.7476,-1.7129,-1.6952,-1.5997,-1.5096,-1.4236,-1.3653,-1.3092,-1.2628,-1.2412,-1.2147,-1.1525,-1.0151,-0.9169,-0.8685,-0.8387,-0.7768,-0.6829,-0.6396,-0.572,-0.4869,-0.4143,-0.368,-0.3347,-0.2878,-0.2609,-0.2611,-0.2341,-0.2139,-0.2206,-0.2407,-0.2407,-0.2139,-0.1073,-0.0202,0.0269,0.0537,0.134,0.2676,0.3211,0.3816,0.4812,0.5731,0.6183,0.6445,0.7037,0.7493,0.7822,0.7952,0.8021,0.8355,0.9652,1.002,0.9317,0.9308,0.9542,1.0063,1.0429,1.1827,1.4141,1.4539,1.4709,1.4909,1.4714,1.4771,1.5373,1.4643,1.4589,1.5668,1.6261,1.5936,1.5936,1.6264,1.6396,1.6231,1.6882,1.7537,1.7802,1.854,1.9107,1.9464,1.981,2.1282,2.3523,2.5009,2.6395,2.696,2.7708,2.8527,2.9474,3.0575,3.158,3.2378,3.3102,3.3675,3.4095,3.4441,3.5006,3.5803,3.6042,3.6029,-2.2805,-2.32,-2.353,-2.3171,-2.2364,-2.2234,-2.1622,-2.089,-2.0912,-2.0793,-2.0499,-2.0251,-1.9884,-1.9396,-1.8849,-1.8468,-1.8235,-1.7409,-1.6476,-1.5395,-1.4459,-1.3716,-1.3044,-1.2696,-1.2344,-1.1873,-1.0939,-1.0187,-0.9636,-0.9336,-0.8731,-0.788,-0.7282,-0.6731,-0.6088,-0.5257,-0.4623,-0.4334,-0.401,-0.401,-0.4079,-0.3877,-0.3675,-0.3678,-0.3675,-0.3675,-0.3611,-0.2611,-0.1877,-0.134,-0.0938,0.0,0.114,0.1809,0.2345,0.2948,0.3808,0.4461,0.4797,0.5325,0.5986,0.6506,0.6641,0.6715,0.712,0.8355,0.8467,0.7959,0.7763,0.8022,0.8529,0.8999,0.9892,1.1345,1.2195,1.266,1.308,1.3426,1.3453,1.377,1.3027,1.3431,1.43,1.424,1.416,1.4296,1.428,1.4243,1.4129,1.4936,1.5667,1.6285,1.6944,1.7345,1.7677,1.8041,1.8495,2.0253,2.2026,2.3567,2.4671,2.5833,2.6791,2.7893,2.8958,3.0156,3.104,3.209,3.2798,3.306,3.3161,3.3674,3.4139,3.4594,3.4759,-2.3142,-2.4019,-2.3896,-2.3415,-2.2757,-2.2521,-2.2057,-2.1473,-2.1756,-2.1847,-2.1661,-2.1383,-2.1207,-2.0863,-1.9913,-1.9432,-1.9266,-1.8574,-1.7894,-1.7055,-1.5954,-1.4903,-1.3993,-1.342,-1.2852,-1.2384,-1.2036,-1.1446,-1.06,-1.0043,-0.9282,-0.8813,-0.8055,-0.7411,-0.7212,-0.6312,-0.5709,-0.5422,-0.486,-0.4809,-0.508,-0.4411,-0.4008,-0.4074,-0.4077,-0.4077,-0.4077,-0.3944,-0.3744,-0.3476,-0.2274,-0.1205,-0.0402,0.0335,0.0872,0.1208,0.1607,0.2206,0.2743,0.3207,0.3806,0.4472,0.4674,0.4882,0.5415,0.6079,0.6609,0.6564,0.6412,0.6548,0.7227,0.7695,0.8163,0.8367,0.9895,1.0936,1.1415,1.2802,1.294,1.1855,1.1397,1.1574,1.2553,1.1914,1.2009,1.2348,1.2289,1.2169,1.2409,1.3278,1.3755,1.4378,1.5126,1.5232,1.5471,1.6278,1.6636,1.7482,1.9315,2.0953,2.2465,2.3704,2.4913,2.5991,2.7103,2.8384,2.9444,3.0126,3.0807,3.0963,3.1329,3.1882,3.2488,3.3025,3.3538,-2.3272,-2.4075,-2.4094,-2.3906,-2.3608,-2.3407,-2.3196,-2.3009,-2.2852,-2.2751,-2.2598,-2.2129,-2.1711,-2.1334,-2.0603,-2.0116,-1.9783,-1.9148,-1.8598,-1.8064,-1.7409,-1.6003,-1.4595,-1.3789,-1.3382,-1.3016,-1.2513,-1.2106,-1.185,-1.1351,-1.067,-0.9809,-0.9552,-0.8949,-0.8121,-0.7476,-0.7091,-0.6908,-0.6473,-0.6207,-0.6276,-0.6075,-0.5939,-0.5873,-0.5745,-0.5613,-0.5679,-0.5683,-0.5011,-0.3747,-0.288,-0.2078,-0.1338,-0.067,-0.0067,0.0402,0.0669,0.087,0.1071,0.1272,0.1671,0.2204,0.2939,0.3478,0.4013,0.455,0.4948,0.5147,0.5017,0.5014,0.5408,0.5731,0.5931,0.6572,0.8616,1.0423,1.0883,1.1555,1.1752,1.1235,1.0111,1.0289,1.1107,1.1229,1.099,1.1428,1.1413,1.13,1.143,1.1852,1.2541,1.2648,1.309,1.3107,1.3344,1.4248,1.4801,1.5119,1.6686,1.8556,2.0082,2.1471,2.2629,2.3707,2.4748,2.5964,2.6583,2.7261,2.7887,2.8752,2.9584,3.0319,3.1009,3.1565,3.2228,-2.3307,-2.4172,-2.419,-2.4114,-2.4036,-2.3917,-2.3855,-2.3753,-2.3513,-2.3342,-2.3151,-2.2738,-2.2303,-2.1903,-2.1456,-2.1054,-2.0668,-1.9908,-1.9368,-1.8939,-1.8159,-1.6731,-1.5231,-1.4395,-1.3921,-1.3467,-1.308,-1.2696,-1.2384,-1.2209,-1.1576,-1.0813,-1.0578,-0.9979,-0.9118,-0.851,-0.8177,-0.7965,-0.7585,-0.7297,-0.7517,-0.7003,-0.6741,-0.6675,-0.6548,-0.6482,-0.642,-0.642,-0.5683,-0.4547,-0.3946,-0.3476,-0.2674,-0.2207,-0.174,-0.127,-0.127,-0.1069,-0.0468,-0.0334,0.0067,0.0802,0.1538,0.1872,0.2407,0.3147,0.3889,0.3274,0.2941,0.3074,0.3606,0.4008,0.4565,0.5498,0.7194,0.8493,0.8922,0.9672,0.9861,0.9516,0.9113,0.8995,1.0366,1.0093,1.0193,1.0373,1.0181,1.0111,1.025,1.079,1.1158,1.1276,1.1769,1.2107,1.2378,1.3061,1.3483,1.3797,1.4627,1.6493,1.8064,1.9439,2.0387,2.1489,2.2476,2.3279,2.391,2.4565,2.5633,2.6598,2.7679,2.8287,2.8763,2.966,3.0343,-2.3436,-2.4284,-2.4229,-2.4172,-2.4113,-2.4094,-2.4016,-2.3896,-2.3753,-2.358,-2.3412,-2.3199,-2.2859,-2.2615,-2.2237,-2.2039,-2.1735,-2.0732,-2.0093,-1.9456,-1.8574,-1.7286,-1.6058,-1.5291,-1.4647,-1.3999,-1.3789,-1.3341,-1.2909,-1.2686,-1.2178,-1.1578,-1.0964,-1.047,-0.9839,-0.9322,-0.8995,-0.8696,-0.8261,-0.8127,-0.8206,-0.7687,-0.7195,-0.7068,-0.6745,-0.6613,-0.6482,-0.6416,-0.6017,-0.5286,-0.5335,-0.4803,-0.4143,-0.4074,-0.3808,-0.3544,-0.3343,-0.2941,-0.2138,-0.1871,-0.1403,-0.0334,0.0067,0.0335,0.0737,0.1945,0.2547,0.1604,0.0736,0.1137,0.1935,0.2737,0.3368,0.4111,0.4538,0.4961,0.5834,0.7257,0.7922,0.7018,0.7646,0.8348,0.8653,0.8591,0.8283,0.857,0.8463,0.8412,0.858,0.9008,0.942,0.983,1.049,1.1348,1.1624,1.201,1.2292,1.259,1.3351,1.474,1.6371,1.7619,1.8372,1.9271,2.0516,2.0975,2.119,2.209,2.3148,2.3806,2.4436,2.5047,2.5751,2.7082,2.7999,-2.4153,-2.4229,-2.4266,-2.4247,-2.417,-2.4132,-2.4094,-2.4054,-2.3795,-2.3689,-2.3558,-2.3301,-2.3102,-2.297,-2.2668,-2.2398,-2.201,-2.1197,-2.0348,-1.9303,-1.8808,-1.812,-1.7175,-1.6355,-1.556,-1.4949,-1.4457,-1.4143,-1.3873,-1.3399,-1.2861,-1.2012,-1.1674,-1.0922,-1.0165,-0.9796,-0.9314,-0.9202,-0.9081,-0.8997,-0.8873,-0.8468,-0.8032,-0.7842,-0.7265,-0.6811,-0.6679,-0.6613,-0.6482,-0.6148,-0.5679,-0.5342,-0.5077,-0.4613,-0.4348,-0.4281,-0.4284,-0.4084,-0.3747,-0.3544,-0.3347,-0.2342,-0.1672,-0.1138,-0.047,0.0805,0.1273,0.0737,0.0134,-0.0067,0.0669,0.1003,0.1511,0.1928,0.2192,0.2398,0.2999,0.5038,0.6068,0.5695,0.5292,0.5403,0.6007,0.615,0.6165,0.648,0.6659,0.6568,0.6864,0.7262,0.7731,0.8294,0.8593,0.9311,0.9809,1.0099,1.0456,1.0953,1.1863,1.2637,1.4328,1.5885,1.6607,1.7517,1.8611,1.8883,1.8769,1.9402,2.0489,2.0758,2.1313,2.2254,2.3305,2.4546,2.5544,-2.4445,-2.4392,-2.4339,-2.4247,-2.4209,-2.417,-2.4113,-2.4074,-2.3917,-2.3795,-2.3671,-2.3504,-2.3336,-2.3144,-2.2952,-2.2677,-2.2124,-2.1306,-2.0447,-1.9624,-1.9109,-1.8717,-1.838,-1.7476,-1.6612,-1.5664,-1.5005,-1.4709,-1.4444,-1.4176,-1.3695,-1.314,-1.2774,-1.208,-1.1091,-1.0657,-1.0356,-0.9881,-0.9616,-0.9557,-0.9608,-0.9205,-0.8907,-0.8667,-0.7967,-0.7386,-0.7321,-0.6937,-0.6937,-0.6802,-0.6404,-0.6009,-0.5881,-0.5484,-0.5286,-0.5286,-0.5286,-0.5087,-0.4951,-0.4749,-0.448,-0.3751,-0.328,-0.2947,-0.2213,-0.1139,-0.0938,-0.1539,-0.1941,-0.1874,-0.0803,-0.0602,-0.0343,0.0494,0.0723,0.0814,0.1228,0.3018,0.4487,0.4028,0.3496,0.3884,0.4255,0.4411,0.4884,0.5575,0.5684,0.5605,0.5695,0.6077,0.6254,0.6618,0.67,0.7071,0.7624,0.8065,0.8564,0.9175,1.0016,1.0674,1.168,1.3297,1.4848,1.5678,1.6337,1.6358,1.6494,1.7117,1.7956,1.8605,1.9342,2.0021,2.0698,2.1771,2.2711,-2.461,-2.461,-2.4539,-2.4469,-2.4394,-2.4411,-2.4501,-2.4534,-2.4253,-2.4187,-2.4006,-2.3995,-2.3998,-2.3501,-2.3446,-2.3033,-2.2175,-2.1401,-2.0563,-1.9975,-1.9566,-1.9295,-1.9006,-1.8366,-1.7531,-1.6133,-1.5555,-1.522,-1.4903,-1.4593,-1.4305,-1.4212,-1.3941,-1.2957,-1.2159,-1.1882,-1.1336,-1.0577,-1.0199,-1.0172,-1.0443,-1.003,-0.9687,-0.9175,-0.8672,-0.8161,-0.7967,-0.7647,-0.7456,-0.7837,-0.7321,-0.6937,-0.6675,-0.6416,-0.642,-0.6354,-0.6218,-0.5951,-0.5613,-0.5477,-0.5216,-0.4553,-0.442,-0.4353,-0.3885,-0.3153,-0.3017,-0.3491,-0.3899,-0.3581,-0.249,-0.2382,-0.1724,-0.0778,-0.0507,-0.037,-0.0076,0.1084,0.2061,0.2407,0.1856,0.1951,0.2814,0.3367,0.3988,0.4534,0.4552,0.459,0.4664,0.4714,0.4882,0.5174,0.5356,0.5708,0.6251,0.6438,0.6898,0.7413,0.8219,0.8729,0.919,1.0061,1.1587,1.3132,1.3788,1.4076,1.4555,1.5216,1.5974,1.6749,1.7037,1.7254,1.7963,1.8915,1.996,-2.493,-2.4647,-2.5235,-2.5393,-2.5279,-2.5239,-2.5529,-2.6004,-2.5296,-2.4978,-2.5026,-2.543,-2.5082,-2.4533,-2.4251,-2.3371,-2.2295,-2.1564,-2.0989,-2.0385,-2.0005,-1.9797,-1.9515,-1.908,-1.8419,-1.7774,-1.6854,-1.6039,-1.5457,-1.504,-1.4709,-1.4261,-1.4039,-1.3369,-1.2599,-1.212,-1.1859,-1.1191,-1.0958,-1.1083,-1.1088,-1.0863,-1.0301,-0.973,-0.932,-0.9,-0.8737,-0.8544,-0.8544,-0.8731,-0.8215,-0.7892,-0.7572,-0.6999,-0.6548,-0.642,-0.642,-0.6346,-0.6148,-0.6152,-0.5885,-0.5415,-0.5213,-0.4948,-0.4553,-0.4159,-0.4233,-0.4336,-0.4654,-0.4423,-0.4219,-0.4067,-0.4183,-0.3609,-0.2827,-0.2187,-0.1925,-0.0937,0.0,0.0237,0.0,0.0158,0.1211,0.2055,0.241,0.2765,0.3033,0.3066,0.3117,0.3236,0.334,0.3721,0.4204,0.4645,0.5176,0.5176,0.5387,0.5776,0.6373,0.6725,0.7047,0.7016,0.8079,1.0171,1.1854,1.27,1.3091,1.3465,1.3974,1.4644,1.4543,1.4435,1.5556,1.6764,1.7524,-2.5321,-2.5405,-2.5672,-2.5912,-2.6093,-2.6088,-2.6268,-2.6499,-2.6088,-2.5841,-2.5907,-2.6046,-2.5859,-2.5325,-2.5155,-2.4329,-2.3283,-2.2382,-2.1811,-2.1201,-2.0612,-2.022,-1.999,-1.9588,-1.9191,-1.8697,-1.8028,-1.7128,-1.6254,-1.5537,-1.5164,-1.4926,-1.4652,-1.4039,-1.3406,-1.3205,-1.2589,-1.1954,-1.1764,-1.1746,-1.1713,-1.1495,-1.1262,-1.1071,-1.0458,-1.0078,-0.9882,-0.95,-0.9564,-0.9691,-0.9238,-0.9046,-0.8667,-0.7902,-0.6872,-0.6675,-0.6544,-0.6478,-0.6416,-0.642,-0.6346,-0.6465,-0.6207,-0.6009,-0.5807,-0.5686,-0.5413,-0.5621,-0.5628,-0.5564,-0.5329,-0.5337,-0.5177,-0.4795,-0.4187,-0.3718,-0.3149,-0.2257,-0.1801,-0.1569,-0.1492,-0.1103,-0.0159,0.0483,0.0734,0.1068,0.1404,0.1591,0.1702,0.1803,0.1903,0.2022,0.2487,0.295,0.3393,0.3571,0.384,0.4302,0.477,0.5099,0.5344,0.5465,0.6203,0.7689,0.9228,1.0545,1.1554,1.2006,1.2266,1.2533,1.2909,1.329,1.3771,1.453,1.5279,-2.5862,-2.609,-2.6247,-2.6544,-2.6907,-2.6958,-2.7043,-2.7034,-2.6841,-2.6724,-2.6662,-2.6777,-2.6609,-2.6144,-2.5817,-2.5324,-2.4486,-2.3343,-2.2476,-2.1871,-2.1061,-2.053,-2.0323,-2.0096,-1.9705,-1.9317,-1.8955,-1.8311,-1.6969,-1.6205,-1.5869,-1.5623,-1.5367,-1.4983,-1.4389,-1.4054,-1.3396,-1.2735,-1.2199,-1.2073,-1.2075,-1.219,-1.2476,-1.2696,-1.1772,-1.1212,-1.1017,-1.0647,-1.0591,-1.0717,-1.0528,-1.0148,-1.0142,-0.9116,-0.8032,-0.7386,-0.6933,-0.6609,-0.6548,-0.6679,-0.6937,-0.719,-0.7068,-0.7134,-0.7003,-0.6651,-0.6447,-0.692,-0.6865,-0.662,-0.627,-0.6248,-0.5978,-0.5635,-0.5343,-0.4944,-0.4294,-0.3561,-0.2893,-0.2743,-0.2821,-0.2121,-0.1026,-0.0633,-0.024,0.0161,0.0566,0.0572,0.0581,0.0421,0.0511,0.0348,0.0617,0.116,0.1611,0.1878,0.2237,0.2688,0.3321,0.3792,0.401,0.4242,0.503,0.5647,0.6446,0.779,0.9072,1.0215,1.0219,1.0569,1.1453,1.2139,1.2522,1.2813,1.338,-2.6702,-2.6204,-2.7467,-2.7959,-2.7848,-2.7785,-2.8125,-2.8498,-2.7848,-2.757,-2.7588,-2.8038,-2.7822,-2.709,-2.6384,-2.5599,-2.4628,-2.3644,-2.2916,-2.2489,-2.1518,-2.0922,-2.061,-2.0357,-2.0115,-1.9792,-1.9369,-1.8379,-1.7424,-1.6871,-1.6466,-1.6175,-1.6001,-1.5724,-1.505,-1.4675,-1.3888,-1.3112,-1.2471,-1.2247,-1.2471,-1.2714,-1.2789,-1.2736,-1.2405,-1.2104,-1.1973,-1.16,-1.1608,-1.1802,-1.1802,-1.1476,-1.1087,-1.1163,-1.0332,-0.9046,-0.7702,-0.6552,-0.6868,-0.6999,-0.7451,-0.7777,-0.7842,-0.7907,-0.7391,-0.6915,-0.668,-0.7354,-0.722,-0.7123,-0.7052,-0.7167,-0.7155,-0.6923,-0.646,-0.6113,-0.5668,-0.4876,-0.4215,-0.36,-0.3522,-0.2662,-0.1727,-0.1492,-0.1179,-0.0788,-0.0396,-0.0401,-0.0487,-0.0659,-0.0591,-0.0605,-0.0702,-0.0266,0.0269,0.0448,0.0717,0.1255,0.1884,0.2515,0.2711,0.2912,0.3002,0.3597,0.4344,0.5095,0.6449,0.7398,0.7845,0.8579,0.9323,1.0334,1.117,1.1365,1.1361,-2.6256,-2.6832,-2.7355,-2.8015,-2.8624,-2.8596,-2.8732,-2.8865,-2.8604,-2.8416,-2.8429,-2.8638,-2.8384,-2.7647,-2.7163,-2.6588,-2.572,-2.4693,-2.4067,-2.3439,-2.2491,-2.1713,-2.1351,-2.0866,-2.046,-2.0166,-1.9807,-1.9309,-1.8337,-1.747,-1.6952,-1.6778,-1.6436,-1.6144,-1.5712,-1.5478,-1.4778,-1.3852,-1.2949,-1.2707,-1.3041,-1.3088,-1.3142,-1.3528,-1.3191,-1.2956,-1.2842,-1.2773,-1.2605,-1.2674,-1.249,-1.2174,-1.1919,-1.1926,-1.16,-1.0451,-1.0066,-0.9238,-0.8221,-0.7582,-0.7907,-0.842,-0.8484,-0.7777,-0.7068,-0.6717,-0.6988,-0.8081,-0.7845,-0.7722,-0.766,-0.7744,-0.7774,-0.7638,-0.7326,-0.7015,-0.6626,-0.624,-0.5541,-0.4844,-0.4144,-0.3363,-0.2582,-0.2037,-0.1725,-0.1335,-0.1022,-0.0871,-0.1201,-0.162,-0.1503,-0.1297,-0.1486,-0.1588,-0.098,-0.0628,-0.0448,0.0,0.0717,0.1256,0.1436,0.153,0.1804,0.1996,0.2589,0.3377,0.4167,0.519,0.6343,0.6875,0.7306,0.8322,0.9155,0.9008,0.93,-2.591,-2.7286,-2.7283,-2.8014,-2.9181,-2.9152,-2.9067,-2.8998,-2.8957,-2.8952,-2.8929,-2.8863,-2.8533,-2.8037,-2.7631,-2.7151,-2.6723,-2.5848,-2.5296,-2.4546,-2.367,-2.2703,-2.2083,-2.1436,-2.0884,-2.0426,-2.0246,-1.9843,-1.9242,-1.84,-1.7651,-1.731,-1.6921,-1.6565,-1.6318,-1.5988,-1.5344,-1.4354,-1.3484,-1.3331,-1.3609,-1.3408,-1.3663,-1.3825,-1.3859,-1.3588,-1.3683,-1.345,-1.3277,-1.3155,-1.2858,-1.2613,-1.249,-1.2428,-1.2174,-1.1531,-1.1469,-1.1156,-0.9882,-0.9058,-0.8801,-0.9139,-0.9467,-0.8739,-0.822,-0.7414,-0.7258,-0.8844,-0.8456,-0.8232,-0.8106,-0.8102,-0.8025,-0.8025,-0.7949,-0.7638,-0.7326,-0.7015,-0.6472,-0.5696,-0.4999,-0.4375,-0.3597,-0.2817,-0.2272,-0.1882,-0.1569,-0.1412,-0.1823,-0.2408,-0.2234,-0.1975,-0.2019,-0.23,-0.1961,-0.1615,-0.1436,-0.1076,-0.0359,0.009,0.0359,0.0718,0.1078,0.1176,0.1276,0.183,0.2862,0.395,0.4979,0.5514,0.606,0.6516,0.6955,0.6901,0.7431,-2.6058,-2.7327,-2.7792,-2.8398,-2.9163,-2.9197,-2.9075,-2.8906,-2.8943,-2.8938,-2.8952,-2.8834,-2.8474,-2.8,-2.7619,-2.7303,-2.6987,-2.5782,-2.543,-2.4929,-2.4116,-2.3293,-2.2638,-2.2068,-2.1467,-2.0906,-2.0574,-2.0335,-2.001,-1.9244,-1.838,-1.7666,-1.7325,-1.7073,-1.6663,-1.612,-1.5623,-1.4824,-1.4215,-1.4047,-1.4123,-1.4012,-1.4004,-1.4213,-1.3956,-1.3776,-1.4154,-1.3932,-1.3631,-1.3571,-1.3338,-1.3103,-1.2981,-1.2683,-1.2367,-1.2297,-1.2305,-1.205,-1.1281,-1.0212,-0.9952,-1.0021,-1.0154,-1.0397,-1.0533,-0.8306,-0.8255,-0.9293,-0.8836,-0.8479,-0.8255,-0.8102,-0.8178,-0.8174,-0.825,-0.8174,-0.794,-0.794,-0.7399,-0.6549,-0.5928,-0.5538,-0.4993,-0.4292,-0.3207,-0.274,-0.2585,-0.235,-0.254,-0.2978,-0.2805,-0.2639,-0.2634,-0.276,-0.2686,-0.2424,-0.1974,-0.1615,-0.1076,-0.0807,-0.0538,-0.009,0.0448,0.0539,0.0632,0.1081,0.1448,0.2138,0.3035,0.412,0.4835,0.5158,0.5819,0.6281,0.6714,-2.583,-2.6678,-2.6726,-2.7414,-2.8408,-2.7883,-2.7911,-2.8272,-2.8264,-2.8576,-2.8994,-2.8633,-2.8281,-2.7897,-2.7426,-2.7068,-2.6758,-2.632,-2.5999,-2.5446,-2.4663,-2.3803,-2.3113,-2.2346,-2.152,-2.1135,-2.0842,-2.0675,-2.0527,-1.9899,-1.9259,-1.8545,-1.7801,-1.7186,-1.6693,-1.6293,-1.5856,-1.5478,-1.4994,-1.4735,-1.493,-1.4701,-1.484,-1.5525,-1.53,-1.514,-1.5206,-1.5099,-1.4579,-1.4112,-1.401,-1.37,-1.3338,-1.2928,-1.2744,-1.2736,-1.2744,-1.256,-1.205,-1.085,-0.9773,-1.0206,-1.086,-1.1685,-1.226,-1.0868,-0.9653,-0.9522,-0.8927,-0.8551,-0.8556,-0.8479,-0.8475,-0.8475,-0.8475,-0.8403,-0.8403,-0.8403,-0.8246,-0.7395,-0.7165,-0.693,-0.6384,-0.5918,-0.4761,-0.3754,-0.3521,-0.345,-0.3567,-0.362,-0.354,-0.3453,-0.3384,-0.3288,-0.3221,-0.2869,-0.2513,-0.2154,-0.1884,-0.1615,-0.1346,-0.0718,-0.0269,-0.0179,-0.009,0.018,0.0363,0.0371,0.1125,0.2538,0.3221,0.3728,0.4469,0.5356,0.57,-2.5699,-2.6154,-2.5791,-2.6432,-2.7528,-2.698,-2.7009,-2.7503,-2.7754,-2.8246,-2.8952,-2.854,-2.8174,-2.7783,-2.7365,-2.7006,-2.6775,-2.6521,-2.6435,-2.5998,-2.5346,-2.4564,-2.3803,-2.3014,-2.2231,-2.1649,-2.1167,-2.099,-2.0909,-2.0499,-1.9818,-1.9008,-1.8131,-1.753,-1.7031,-1.665,-1.6337,-1.6107,-1.5836,-1.5415,-1.5556,-1.5477,-1.5505,-1.6175,-1.6053,-1.6143,-1.612,-1.6026,-1.5507,-1.4991,-1.4656,-1.4359,-1.3881,-1.3407,-1.3224,-1.3103,-1.2981,-1.2797,-1.2228,-1.1351,-1.0437,-1.1251,-1.1731,-1.2476,-1.2809,-1.2797,-1.1585,-0.9574,-0.9003,-0.8703,-0.8703,-0.8627,-0.8627,-0.8627,-0.8627,-0.8627,-0.8627,-0.8551,-0.8627,-0.8394,-0.8165,-0.7855,-0.7468,-0.6923,-0.5841,-0.4913,-0.4606,-0.453,-0.4633,-0.4634,-0.4496,-0.4349,-0.4199,-0.4031,-0.3748,-0.3578,-0.3406,-0.3139,-0.278,-0.2334,-0.1974,-0.1346,-0.1076,-0.0987,-0.0897,-0.0807,-0.0542,-0.0275,0.0275,0.11,0.1675,0.2089,0.2719,0.3467,0.4002,-2.5673,-2.6001,-2.5272,-2.5744,-2.6858,-2.6765,-2.6663,-2.6843,-2.7497,-2.8246,-2.8892,-2.8619,-2.8139,-2.7718,-2.7339,-2.7031,-2.6723,-2.6641,-2.6572,-2.6369,-2.5914,-2.5578,-2.4811,-2.3852,-2.2817,-2.2475,-2.1809,-2.1246,-2.1183,-2.0702,-2.0125,-1.9483,-1.8674,-1.7921,-1.7516,-1.7282,-1.7073,-1.6876,-1.6663,-1.63,-1.6058,-1.6087,-1.6254,-1.6421,-1.6632,-1.6824,-1.6885,-1.6789,-1.6291,-1.5786,-1.5342,-1.4932,-1.43,-1.4258,-1.4019,-1.3571,-1.3511,-1.345,-1.3329,-1.2482,-1.231,-1.2525,-1.277,-1.3172,-1.3547,-1.3397,-1.2701,-1.0726,-0.9528,-0.8927,-0.878,-0.878,-0.8856,-0.878,-0.878,-0.878,-0.878,-0.8703,-0.8703,-0.8703,-0.8703,-0.8551,-0.8241,-0.7774,-0.6846,-0.615,-0.5761,-0.5616,-0.5786,-0.5674,-0.549,-0.524,-0.5104,-0.487,-0.4696,-0.4463,-0.4208,-0.4032,-0.3585,-0.305,-0.2603,-0.2155,-0.1885,-0.1795,-0.1615,-0.1436,-0.1166,-0.0809,-0.0541,-0.0364,0.0093,0.057,0.107,0.1677,0.2284,-2.5416,-2.5528,-2.5073,-2.5174,-2.554,-2.5225,-2.541,-2.6091,-2.7206,-2.8246,-2.8753,-2.843,-2.7772,-2.7381,-2.7255,-2.6923,-2.6311,-2.6903,-2.6908,-2.6521,-2.6083,-2.5564,-2.4879,-2.405,-2.3159,-2.2665,-2.1979,-2.1526,-2.145,-2.102,-2.0493,-1.9828,-1.9072,-1.8173,-1.7666,-1.7393,-1.7323,-1.7225,-1.7086,-1.6876,-1.662,-1.6629,-1.6765,-1.6931,-1.7313,-1.7557,-1.7615,-1.7433,-1.7069,-1.6518,-1.613,-1.541,-1.501,-1.497,-1.4387,-1.407,-1.407,-1.395,-1.364,-1.3119,-1.3054,-1.3284,-1.3439,-1.3585,-1.3493,-1.3795,-1.3034,-1.1996,-1.0426,-0.9755,-0.9539,-0.9544,-0.9468,-0.9165,-0.9089,-0.8932,-0.8856,-0.878,-0.8703,-0.8703,-0.8703,-0.8703,-0.847,-0.8394,-0.7617,-0.7234,-0.6846,-0.693,-0.7099,-0.6842,-0.6617,-0.6328,-0.6092,-0.5881,-0.5629,-0.5499,-0.509,-0.4741,-0.4208,-0.3674,-0.3229,-0.296,-0.2781,-0.278,-0.2423,-0.2155,-0.1885,-0.1795,-0.2064,-0.1994,-0.12,-0.0561,-0.0,0.0481,0.0977,-2.5303,-2.522,-2.5001,-2.4876,-2.4779,-2.4461,-2.4783,-2.5649,-2.6838,-2.7824,-2.8375,-2.825,-2.7808,-2.738,-2.7278,-2.6901,-2.6042,-2.6771,-2.7006,-2.6573,-2.6118,-2.5832,-2.5229,-2.4298,-2.3802,-2.3156,-2.2538,-2.2046,-2.2059,-2.1554,-2.0831,-2.0039,-1.9494,-1.8825,-1.8218,-1.7801,-1.7557,-1.7447,-1.7282,-1.7186,-1.7174,-1.7298,-1.7587,-1.7886,-1.8284,-1.8635,-1.8458,-1.8183,-1.7918,-1.7357,-1.6698,-1.5931,-1.5816,-1.5254,-1.4684,-1.4625,-1.4488,-1.4309,-1.4001,-1.3881,-1.3908,-1.429,-1.413,-1.3972,-1.3986,-1.4568,-1.4004,-1.2959,-1.1471,-1.0657,-1.0212,-1.0218,-0.9992,-0.969,-0.9468,-0.9311,-0.9084,-0.9008,-0.8932,-0.8932,-0.8856,-0.878,-0.8851,-0.8703,-0.8394,-0.8165,-0.8012,-0.8102,-0.8196,-0.7874,-0.7651,-0.7352,-0.7278,-0.7179,-0.6966,-0.6627,-0.6133,-0.5536,-0.5008,-0.4476,-0.4387,-0.4297,-0.4032,-0.3765,-0.3496,-0.3227,-0.2873,-0.2785,-0.2784,-0.2609,-0.2177,-0.1558,-0.1014,-0.0658,-0.0288,-2.5284,-2.5111,-2.4936,-2.4825,-2.4692,-2.4498,-2.482,-2.5536,-2.6248,-2.7016,-2.7765,-2.8167,-2.7694,-2.7355,-2.7629,-2.713,-2.644,-2.6909,-2.6963,-2.6775,-2.6506,-2.637,-2.598,-2.5295,-2.4531,-2.3932,-2.3312,-2.2775,-2.2758,-2.1866,-2.0926,-2.0443,-2.0391,-1.9578,-1.8825,-1.8351,-1.803,-1.7733,-1.7488,-1.7406,-1.7358,-1.8057,-1.8235,-1.8516,-1.9012,-1.9346,-1.9253,-1.9077,-1.8715,-1.8178,-1.7512,-1.6912,-1.6301,-1.5478,-1.5264,-1.5098,-1.4902,-1.4606,-1.4497,-1.4437,-1.4836,-1.5079,-1.436,-1.4698,-1.5038,-1.5404,-1.5171,-1.4194,-1.2872,-1.1687,-1.0881,-1.0657,-1.0507,-1.0288,-1.0067,-0.9841,-0.9539,-0.9392,-0.9316,-0.9236,-0.9155,-0.9155,-0.9372,-0.9226,-0.915,-0.8922,-0.8703,-0.8453,-0.8567,-0.8572,-0.833,-0.8334,-0.8307,-0.8599,-0.8243,-0.7681,-0.7257,-0.658,-0.6157,-0.5719,-0.563,-0.5366,-0.501,-0.4743,-0.4565,-0.421,-0.3678,-0.3232,-0.3053,-0.279,-0.2527,-0.2445,-0.1918,-0.1768,-0.1517,-2.5341,-2.5292,-2.501,-2.4884,-2.4808,-2.4532,-2.482,-2.5502,-2.5757,-2.627,-2.7022,-2.6858,-2.6607,-2.5783,-2.6345,-2.6282,-2.634,-2.6621,-2.7023,-2.7016,-2.6873,-2.6708,-2.6235,-2.5629,-2.5079,-2.4613,-2.4058,-2.3466,-2.2824,-2.2015,-2.1794,-2.1575,-2.1162,-2.0295,-1.9625,-1.9276,-1.8663,-1.8152,-1.7869,-1.7745,-1.7726,-1.8315,-1.8485,-1.8734,-1.9403,-1.9571,-1.9219,-1.8988,-1.8584,-1.819,-1.709,-1.6446,-1.6684,-1.6009,-1.5614,-1.5303,-1.5079,-1.4852,-1.4862,-1.4871,-1.5134,-1.5589,-1.4994,-1.4765,-1.5211,-1.5754,-1.6123,-1.5117,-1.4178,-1.3077,-1.2198,-1.1835,-1.1465,-1.1099,-1.0881,-1.0657,-1.0432,-1.0432,-1.0282,-1.0056,-0.9976,-1.0121,-1.0265,-1.004,-0.9895,-0.9593,-0.9322,-0.9076,-0.885,-0.8852,-0.8853,-0.8867,-0.8972,-0.9077,-0.9002,-0.851,-0.8131,-0.7705,-0.7291,-0.6782,-0.6425,-0.6163,-0.5808,-0.5633,-0.5453,-0.4832,-0.4121,-0.3855,-0.3855,-0.3142,-0.2789,-0.2884,-0.2902,-0.2581,-0.2418,-2.5361,-2.5322,-2.5025,-2.4827,-2.4704,-2.4532,-2.4726,-2.5116,-2.5372,-2.5812,-2.6176,-2.6315,-2.5863,-2.543,-2.5986,-2.6062,-2.5468,-2.6496,-2.6985,-2.6714,-2.704,-2.6808,-2.6371,-2.5932,-2.5496,-2.5096,-2.4728,-2.426,-2.3603,-2.3161,-2.2932,-2.2034,-2.1753,-2.0921,-2.0064,-1.9657,-1.9469,-1.8915,-1.8562,-1.8398,-1.8528,-1.8772,-1.8932,-1.8989,-1.9721,-1.9568,-1.9081,-1.8843,-1.8703,-1.8483,-1.739,-1.7011,-1.719,-1.6684,-1.5894,-1.5594,-1.5303,-1.5147,-1.5098,-1.497,-1.5362,-1.5671,-1.5568,-1.5683,-1.5669,-1.6035,-1.6184,-1.5824,-1.518,-1.4458,-1.381,-1.3157,-1.2572,-1.1983,-1.1761,-1.1613,-1.1539,-1.1539,-1.1391,-1.1168,-1.1242,-1.1391,-1.131,-1.1013,-1.064,-1.0351,-0.9986,-0.9646,-0.9299,-0.9032,-0.9063,-0.9058,-0.9192,-0.9349,-0.9233,-0.9154,-0.8897,-0.8595,-0.8444,-0.7929,-0.7397,-0.7136,-0.7136,-0.6694,-0.6251,-0.563,-0.5099,-0.483,-0.4652,-0.3942,-0.332,-0.3236,-0.3153,-0.281,-0.273,-2.5351,-2.5293,-2.5031,-2.4779,-2.4532,-2.4534,-2.4535,-2.4575,-2.5097,-2.5408,-2.5518,-2.6064,-2.5803,-2.525,-2.5667,-2.5652,-2.5507,-2.6195,-2.6496,-2.6155,-2.6827,-2.6805,-2.6384,-2.6319,-2.59,-2.5447,-2.5196,-2.5146,-2.5061,-2.4314,-2.3194,-2.236,-2.2457,-2.1667,-2.0259,-2.0224,-2.011,-1.995,-1.9543,-1.9377,-1.9699,-2.0093,-2.0301,-2.0112,-2.0329,-2.0459,-1.9825,-1.9552,-1.946,-1.8987,-1.8387,-1.7776,-1.7512,-1.7078,-1.6285,-1.5884,-1.5652,-1.543,-1.5323,-1.5205,-1.5696,-1.5932,-1.6033,-1.6522,-1.6622,-1.6082,-1.6097,-1.6131,-1.5463,-1.4966,-1.4322,-1.3818,-1.323,-1.2938,-1.2718,-1.2572,-1.2498,-1.2645,-1.2858,-1.2778,-1.307,-1.3142,-1.2778,-1.2398,-1.1896,-1.1323,-1.0738,-1.038,-1.0017,-0.9625,-0.9384,-0.9431,-0.9283,-0.947,-0.9475,-0.9423,-0.9561,-0.9401,-0.9248,-0.9082,-0.8548,-0.8372,-0.8464,-0.7933,-0.7401,-0.6694,-0.6163,-0.5983,-0.5542,-0.4743,-0.4121,-0.3765,-0.3502,-0.3241,-0.2882,-2.5351,-2.5332,-2.5138,-2.4883,-2.466,-2.4645,-2.4599,-2.4518,-2.4597,-2.4709,-2.4691,-2.4763,-2.4742,-2.4723,-2.4832,-2.488,-2.5387,-2.5623,-2.5798,-2.6096,-2.6596,-2.64,-2.5932,-2.6273,-2.6143,-2.5896,-2.5765,-2.5791,-2.5557,-2.4547,-2.3686,-2.3457,-2.3109,-2.1835,-2.0516,-2.0655,-2.0862,-2.0695,-2.0466,-2.0175,-2.0263,-2.0398,-2.0522,-2.0523,-2.0678,-2.0597,-2.0003,-1.9488,-1.8963,-1.8278,-1.7556,-1.729,-1.7256,-1.6807,-1.6477,-1.6249,-1.606,-1.5926,-1.5811,-1.5704,-1.6035,-1.6412,-1.6631,-1.7171,-1.7111,-1.6318,-1.5936,-1.6016,-1.5745,-1.5259,-1.4903,-1.4394,-1.389,-1.3745,-1.3665,-1.3528,-1.3455,-1.3818,-1.425,-1.4466,-1.4752,-1.4601,-1.4235,-1.3723,-1.315,-1.2492,-1.1829,-1.1315,-1.1118,-1.0746,-1.0158,-0.9951,-0.9356,-0.9436,-0.9601,-0.9658,-0.9693,-0.9753,-0.9602,-0.9519,-0.9519,-0.9257,-0.8903,-0.8819,-0.8468,-0.7757,-0.7312,-0.7136,-0.6514,-0.5719,-0.501,-0.4656,-0.4121,-0.3771,-0.3233,-2.5322,-2.5322,-2.5171,-2.4936,-2.4719,-2.4673,-2.4613,-2.4498,-2.4465,-2.4466,-2.443,-2.4284,-2.421,-2.419,-2.4209,-2.4337,-2.4942,-2.523,-2.528,-2.5601,-2.5982,-2.5871,-2.588,-2.5964,-2.5622,-2.5456,-2.5698,-2.5744,-2.5775,-2.4647,-2.3784,-2.3819,-2.3052,-2.2017,-2.0913,-2.1103,-2.1332,-2.1193,-2.1058,-2.1012,-2.089,-2.1167,-2.1109,-2.1111,-2.0917,-2.0709,-2.0245,-1.9683,-1.9226,-1.8536,-1.7929,-1.7346,-1.719,-1.6909,-1.6867,-1.6775,-1.6705,-1.657,-1.6505,-1.6467,-1.6556,-1.6888,-1.713,-1.7563,-1.7927,-1.7264,-1.7054,-1.7001,-1.6026,-1.5463,-1.5392,-1.4958,-1.4106,-1.368,-1.4186,-1.4402,-1.4617,-1.5046,-1.5046,-1.4903,-1.5401,-1.5965,-1.5534,-1.5108,-1.4537,-1.3725,-1.298,-1.2399,-1.217,-1.1998,-1.1329,-1.0761,-1.0288,-0.9771,-0.9767,-0.9842,-0.9875,-0.9836,-0.9864,-0.9777,-0.9602,-0.9515,-0.9345,-0.917,-0.9087,-0.8819,-0.8464,-0.8109,-0.7577,-0.6779,-0.6074,-0.5544,-0.501,-0.4476,-0.421,-2.5313,-2.5274,-2.5171,-2.4981,-2.4749,-2.4738,-2.4645,-2.4517,-2.45,-2.45,-2.4464,-2.4303,-2.4229,-2.421,-2.419,-2.4209,-2.4373,-2.4774,-2.4838,-2.4937,-2.5458,-2.5278,-2.5214,-2.5287,-2.5195,-2.5172,-2.5275,-2.5631,-2.5893,-2.483,-2.4198,-2.3935,-2.3047,-2.1987,-2.1316,-2.1054,-2.119,-2.1262,-2.1377,-2.1757,-2.1998,-2.217,-2.1833,-2.1609,-2.1361,-2.097,-2.0547,-2.0093,-1.9798,-1.9069,-1.8321,-1.7733,-1.7357,-1.72,-1.7381,-1.7391,-1.7539,-1.7465,-1.7398,-1.7175,-1.7355,-1.755,-1.7666,-1.7859,-1.8218,-1.8269,-1.8056,-1.756,-1.6585,-1.5816,-1.5745,-1.5604,-1.4681,-1.3745,-1.4402,-1.5046,-1.5401,-1.5762,-1.5551,-1.5338,-1.6114,-1.683,-1.6621,-1.6202,-1.5655,-1.492,-1.4309,-1.3741,-1.3259,-1.3182,-1.2862,-1.2245,-1.1659,-1.1093,-1.058,-1.0178,-1.025,-1.0096,-1.0033,-0.9859,-0.9777,-0.9689,-0.9607,-0.9432,-0.9262,-0.9257,-0.917,-0.8903,-0.8285,-0.7753,-0.7048,-0.6428,-0.6074,-0.563,-0.5455,-2.5313,-2.5303,-2.5264,-2.5103,-2.4874,-2.4847,-2.4719,-2.4534,-2.45,-2.45,-2.4482,-2.443,-2.4339,-2.4284,-2.4228,-2.4209,-2.4246,-2.4502,-2.4371,-2.4361,-2.4965,-2.4755,-2.4613,-2.4825,-2.5127,-2.5062,-2.498,-2.5329,-2.558,-2.5263,-2.5013,-2.473,-2.3702,-2.2782,-2.21,-2.1768,-2.1357,-2.1417,-2.1579,-2.1883,-2.2467,-2.2555,-2.231,-2.2077,-2.1793,-2.1602,-2.1251,-2.0683,-1.9991,-1.9162,-1.8387,-1.7854,-1.7667,-1.7668,-1.7855,-1.8203,-1.836,-1.8208,-1.8048,-1.7843,-1.7912,-1.7752,-1.7815,-1.8127,-1.8398,-1.8539,-1.8405,-1.8414,-1.7432,-1.6376,-1.6167,-1.6315,-1.5675,-1.4219,-1.3996,-1.4625,-1.5184,-1.5446,-1.548,-1.6035,-1.695,-1.7097,-1.6899,-1.6551,-1.6342,-1.5752,-1.5518,-1.4897,-1.4382,-1.4276,-1.4307,-1.3738,-1.3104,-1.2588,-1.2043,-1.088,-1.0707,-1.0458,-1.0294,-1.012,-1.0038,-0.9951,-0.9868,-0.9864,-0.9868,-0.9777,-0.9689,-0.9515,-0.9165,-0.8636,-0.7841,-0.7224,-0.6959,-0.6782,-0.6694]}]]